[[{"header":{"parameterUnit":"m.s-1","parameterCategory":1,"la1":31.0,"la2":29.5877,"lo1":-88.7671,"lo2":-86.6584,"dy":0.0162,"dx":0.0185,"nx":115,"ny":88,"refTime":"2023-03-14T06:00:00:Z","depth":0,"parameterNumber":2,"parameterNumberName":"U-component_of_WINDS"},"data":[0.0,0.0,0.0,0.0,0.0,0.0,0.0,0.0,0.0,0.0,0.0,0.0,0.0,0.0,0.0,0.0,0.0,0.0,0.0,0.0,0.0,0.0,0.0,0.0,0.0,0.0,0.0,0.0,0.0,0.0,0.0,0.0,0.0,0.0,0.0,0.0,0.0,0.0,0.0,0.0,0.0,0.0,0.0,0.0,0.0,0.0,0.0,0.0,0.0,0.0,0.0,0.0,0.0,0.0,0.0,0.0,0.0,0.0,0.0,0.0,0.0,0.0,0.0,0.0,0.0,0.0,0.0,0.0,0.0,0.0,0.0,0.0,0.0,0.0,0.0,0.0,0.0,0.0,0.0,0.0,0.0,0.0,0.0,0.0,0.0,0.0,0.0,0.0,0.0,0.0,0.0,0.0,0.0,0.0,0.0,0.0,0.0,0.0,0.0,0.0,0.0,0.0,0.0,0.0,0.0,0.0,0.0,0.0,0.0,0.0,0.0,0.0,0.0,0.0,0.0,0.0,0.0,0.0,0.0,0.0,0.0,0.0,0.0,0.0,0.0,0.0,0.0,0.0,0.0,0.0,0.0,0.0,0.0,0.0,0.0,0.0,0.0,0.0,0.0,0.0,0.0,0.0,0.0,0.0,0.0,0.0,0.0,0.0,0.0,0.0,0.0,0.0,0.0,0.0,0.0,0.0,0.0,0.0,0.0,0.0,0.0,0.0,0.0,0.0,0.0,0.0,0.0,0.0,0.0,0.0,0.0,0.0,0.0,0.0,0.0,0.0,0.0,0.0,0.0,0.0,0.0,0.0,0.0,0.0,0.0,0.0,0.0,0.0,0.0,0.0,0.0,0.0,0.0,0.0,0.0,0.0,0.0,0.0,0.0,0.0,0.0,0.0,0.0,0.0,0.0,0.0,0.0,0.0,0.0,0.0,0.0,0.0,0.0,0.0,0.0,0.0,0.0,0.0,0.0,0.0,0.0,0.0,0.0,0.0,0.0,0.0,0.0,0.0,0.0,0.0,0.0,0.0,0.0,0.0,0.0,0.0,0.0,0.0,0.0,0.0,0.0,0.0,0.0,0.0,0.0,0.0,0.0,0.0,0.0,0.0,0.0,0.0,0.0,0.0,0.0,0.0,0.0,0.0,0.0,0.0,0.0,0.0,0.0,0.0,0.0,0.0,0.0,0.0,0.0,0.0,0.0,0.0,0.0,0.0,0.0,0.0,0.0,0.0,0.0,0.0,0.0,0.0,0.0,0.0,0.0,0.0,0.0,0.0,0.0,0.0,0.0,0.0,0.0,0.0,0.0,0.0,0.0,0.0,0.0,0.0,0.0,0.0,0.0,0.0,0.0,0.0,0.0,0.0,0.0,0.0,0.0,0.0,0.0,0.0,0.0,0.0,0.0,0.0,0.0,0.0,0.0,0.0,0.0,0.0,0.0,0.0,0.0,0.0,0.0,0.0,0.0,0.0,0.0,0.0,0.0,0.0,0.0,0.0,0.0,0.0,0.0,0.0,0.0,0.0,0.0,0.0,0.0,0.0,0.0,0.0,0.0,0.0,0.0,0.0,0.0,0.0,0.0,0.0,0.0,0.0,0.0,0.0,0.0,0.0,0.0,0.0,0.0,0.0,0.0,0.0,0.0,0.0,0.0,0.0,0.0,0.0,0.0,0.0,0.0,0.0,0.0,0.0,0.0,0.0,0.0,0.0,0.0,0.0,0.0,0.0,0.0,0.0,0.0,0.0,0.0,0.0,0.0,0.0,0.0,0.0,0.0,0.0,0.0,0.0,0.0,0.0,0.0,0.0,0.0,0.0,0.0,0.0,0.0,0.0,0.0,0.0,0.0,0.0,0.0,0.0,0.0,0.0,0.0,0.0,0.0,0.0,0.0,0.0,0.0,0.0,0.0,0.0,0.0,0.0,0.0,0.0,0.0,0.0,0.0,0.0,0.0,0.0,0.0,0.0,0.0,0.0,0.0,0.0,0.0,0.0,0.0,0.0,0.0,0.0,0.0,0.0,0.0,0.0,0.0,0.0,0.0,0.0,0.0,0.0,0.0,0.0,0.0,0.0,0.0,0.0,0.0,0.0,0.0,0.0,0.0,0.0,0.0,0.0,0.0,0.0,0.0,0.0,0.0,0.0,0.0,0.0,0.0,0.0,0.0,0.0,0.0,0.0,0.0,0.0,0.0,0.0,0.0,0.0,0.0,0.0,0.0,0.0,0.0,0.0,0.0,0.0,0.0,0.0,0.0,0.0,0.0,0.0,0.0,0.0,0.0,0.0,0.0,0.0,0.0,0.0,0.0,0.0,0.0,0.0,0.0,0.0,0.0,0.0,0.0,0.0,0.0,0.0,0.0,0.0,0.0,0.0,0.0,0.0,0.0,0.0,0.0,0.0,0.0,0.0,0.0,0.0,0.0,0.0,0.0,0.0,0.0,0.0,0.0,0.0,0.0,0.0,0.0,0.0,0.0,0.0,0.0,0.0,0.0,0.0,0.0,0.0,0.0,0.0,0.0,0.0,0.0,0.0,0.0,0.0,0.0,0.0,0.0,0.0,0.0,0.0,0.0,0.0,0.0,0.0,0.0,0.0,0.0,0.0,0.0,0.0,0.0,0.0,0.0,0.0,0.0,0.0,0.0,0.0,0.0,0.0,0.0,0.0,0.0,0.0,0.0,0.0,0.0,0.0,0.0,0.0,0.0,0.0,0.0,0.0,0.0,0.0,0.0,0.0,0.0,0.0,0.0,0.0,0.0,0.0,0.0,0.0,0.0,0.0,0.0,0.0,0.0,0.0,0.0,0.0,0.0,0.0,0.0,0.0,0.0,0.0,0.0,0.0,0.0,0.0,0.0,0.0,0.0,0.0,0.0,0.0,0.0,0.0,0.0,0.0,0.0,0.0,0.0,0.0,0.0,0.0,0.0,0.0,0.0,0.0,0.0,0.0,0.0,0.0,0.0,0.0,0.0,0.0,0.0,0.0,0.0,0.0,0.0,0.0,0.0,0.0,0.0,0.0,0.0,0.0,0.0,0.0,0.0,0.0,0.0,0.0,0.0,0.0,0.0,0.0,0.0,0.0,0.0,0.0,0.0,0.0,0.0,0.0,0.0,0.0,0.0,0.0,0.0,0.0,0.0,0.0,0.0,0.0,0.0,0.0,0.0,0.0,0.0,0.0,0.0,0.0,0.0,0.0,0.0,0.0,0.0,0.0,0.0,0.0,0.0,0.0,0.0,0.0,0.0,0.0,0.0,0.0,0.0,0.0,0.0,0.0,0.0,0.0,0.0,0.0,0.0,0.0,0.0,0.0,0.0,0.0,0.0,0.0,0.0,0.0,0.0,0.0,0.0,0.0,0.0,0.0,0.0,0.0,0.0,0.0,0.0,0.0,0.0,0.0,0.0,0.0,0.0,0.0,0.0,0.0,0.0,0.0,0.0,0.0,0.0,0.0,0.0,0.0,0.0,0.0,0.0,0.0,0.0,0.0,0.0,0.0,0.0,0.0,0.0,0.0,0.0,0.0,0.0,0.0,0.0,0.0,0.0,0.0,0.0,0.0,0.0,0.0,0.0,0.0,0.0,0.0,0.0,0.0,0.0,0.0,0.0,0.0,0.0,0.0,0.0,0.0,0.0,0.0,0.0,0.0,0.0,0.0,0.0,0.0,0.0,0.0,0.0,0.0,0.0,0.0,0.0,0.0,0.0,0.0,0.0,0.0,0.0,0.0,0.0,0.0,0.0,0.0,0.0,0.0,0.0,0.0,0.0,0.0,0.0,0.0,0.0,0.0,0.0,0.0,0.0,0.0,0.0,0.0,0.0,0.0,0.0,0.0,0.0,0.0,0.0,0.0,0.0,0.0,0.0,0.0,0.0,0.0,0.0,0.0,0.0,0.0,0.0,0.0,0.0,0.0,0.0,0.0,0.0,0.0,0.0,0.0,0.0,0.0,0.0,0.0,0.0,0.0,0.0,0.0,0.0,0.0,0.0,0.0,0.0,0.0,0.0,0.0,0.0,0.0,0.0,0.0,0.0,0.0,0.0,0.0,0.0,0.0,0.0,0.0,0.0,0.0,0.0,0.0,0.0,0.0,0.0,0.0,0.0,0.0,0.0,0.0,0.0,0.0,0.0,0.0,0.0,0.0,0.0,0.0,0.0,0.0,0.0,0.0,0.0,0.0,0.0,0.0,0.0,0.0,0.0,0.0,0.0,0.0,0.0,0.0,0.0,0.0,0.0,0.0,0.0,0.0,0.0,0.0,0.0,0.0,0.0,0.0,5.9428,0.0,0.0,0.0,0.0,0.0,0.0,0.0,0.0,0.0,0.0,0.0,0.0,0.0,0.0,0.0,0.0,0.0,0.0,0.0,0.0,0.0,0.0,0.0,0.0,0.0,0.0,0.0,0.0,0.0,0.0,0.0,0.0,0.0,0.0,0.0,0.0,0.0,0.0,0.0,0.0,0.0,0.0,0.0,0.0,0.0,0.0,0.0,0.0,0.0,0.0,0.0,0.0,0.0,0.0,0.0,0.0,0.0,0.0,0.0,0.0,0.0,0.0,0.0,0.0,0.0,0.0,0.0,0.0,0.0,0.0,0.0,0.0,0.0,0.0,0.0,0.0,0.0,0.0,0.0,0.0,0.0,0.0,0.0,0.0,0.0,0.0,0.0,0.0,0.0,0.0,0.0,0.0,0.0,0.0,0.0,0.0,0.0,0.0,0.0,0.0,0.0,0.0,0.0,0.0,0.0,0.0,0.0,0.0,0.0,0.0,5.8547,5.8547,5.8914,5.8914,5.8584,0.0,0.0,0.0,0.0,0.0,0.0,0.0,0.0,0.0,0.0,0.0,0.0,0.0,0.0,0.0,0.0,0.0,0.0,0.0,0.0,0.0,0.0,0.0,0.0,0.0,0.0,0.0,0.0,0.0,0.0,0.0,0.0,0.0,0.0,0.0,0.0,0.0,0.0,0.0,0.0,0.0,0.0,0.0,0.0,0.0,0.0,0.0,0.0,0.0,0.0,0.0,0.0,0.0,0.0,0.0,0.0,0.0,0.0,0.0,0.0,0.0,0.0,0.0,0.0,0.0,0.0,0.0,0.0,0.0,0.0,0.0,0.0,0.0,0.0,0.0,0.0,0.0,0.0,0.0,0.0,0.0,0.0,0.0,0.0,0.0,0.0,0.0,0.0,0.0,0.0,0.0,0.0,0.0,0.0,0.0,0.0,0.0,0.0,0.0,0.0,0.0,0.0,0.0,0.0,0.0,0.0,0.0,0.0,0.0,0.0,0.0,0.0,5.7997,5.7997,5.7997,0.0,0.0,0.0,0.0,0.0,0.0,0.0,0.0,0.0,0.0,0.0,0.0,0.0,0.0,0.0,0.0,0.0,0.0,0.0,0.0,0.0,0.0,0.0,0.0,0.0,0.0,0.0,0.0,0.0,0.0,0.0,0.0,0.0,0.0,0.0,0.0,0.0,0.0,0.0,0.0,0.0,0.0,0.0,0.0,0.0,0.0,0.0,0.0,0.0,0.0,0.0,0.0,0.0,0.0,0.0,0.0,0.0,0.0,0.0,0.0,0.0,0.0,0.0,0.0,0.0,0.0,0.0,0.0,0.0,0.0,0.0,0.0,0.0,0.0,0.0,0.0,0.0,0.0,0.0,0.0,0.0,0.0,0.0,0.0,0.0,0.0,0.0,0.0,0.0,0.0,0.0,0.0,0.0,0.0,0.0,0.0,0.0,0.0,0.0,0.0,0.0,0.0,0.0,0.0,0.0,0.0,0.0,0.0,0.0,0.0,5.7997,5.7997,5.7997,0.0,5.7997,0.0,0.0,0.0,0.0,0.0,0.0,0.0,0.0,0.0,0.0,0.0,0.0,0.0,0.0,0.0,0.0,0.0,0.0,0.0,0.0,0.0,0.0,0.0,0.0,0.0,0.0,0.0,0.0,0.0,0.0,0.0,0.0,0.0,0.0,0.0,0.0,0.0,0.0,0.0,0.0,0.0,0.0,0.0,0.0,0.0,0.0,0.0,0.0,0.0,0.0,0.0,0.0,0.0,0.0,0.0,0.0,0.0,0.0,0.0,0.0,0.0,0.0,0.0,0.0,0.0,0.0,0.0,0.0,0.0,0.0,0.0,0.0,0.0,0.0,0.0,0.0,0.0,0.0,0.0,0.0,0.0,0.0,0.0,0.0,0.0,0.0,0.0,0.0,0.0,0.0,0.0,0.0,0.0,0.0,0.0,0.0,0.0,0.0,0.0,0.0,0.0,0.0,0.0,0.0,0.0,0.0,0.0,0.0,0.0,0.0,5.84,5.84,5.84,5.84,0.0,0.0,0.0,0.0,0.0,0.0,0.0,0.0,0.0,0.0,0.0,0.0,0.0,0.0,0.0,0.0,0.0,0.0,0.0,0.0,0.0,0.0,0.0,0.0,0.0,0.0,0.0,0.0,0.0,0.0,0.0,0.0,0.0,0.0,0.0,0.0,0.0,0.0,0.0,0.0,0.0,0.0,0.0,0.0,0.0,0.0,0.0,0.0,0.0,0.0,0.0,0.0,0.0,0.0,0.0,0.0,0.0,0.0,0.0,0.0,0.0,0.0,0.0,0.0,0.0,0.0,0.0,0.0,0.0,0.0,0.0,0.0,0.0,0.0,0.0,0.0,0.0,0.0,0.0,0.0,0.0,0.0,0.0,0.0,0.0,0.0,0.0,0.0,0.0,0.0,0.0,0.0,0.0,0.0,0.0,0.0,0.0,0.0,0.0,0.0,0.0,0.0,0.0,0.0,0.0,0.0,0.0,0.0,0.0,0.0,5.8781,5.8781,5.8781,5.8781,5.8781,5.8781,0.0,0.0,0.0,0.0,0.0,0.0,0.0,0.0,0.0,0.0,0.0,0.0,0.0,0.0,0.0,0.0,0.0,0.0,0.0,0.0,0.0,0.0,0.0,0.0,0.0,0.0,0.0,0.0,0.0,0.0,0.0,0.0,0.0,0.0,0.0,0.0,0.0,0.0,0.0,0.0,0.0,0.0,0.0,0.0,0.0,0.0,0.0,0.0,0.0,0.0,0.0,0.0,0.0,0.0,0.0,0.0,0.0,0.0,0.0,0.0,0.0,0.0,0.0,0.0,0.0,0.0,0.0,0.0,0.0,0.0,0.0,0.0,0.0,0.0,0.0,0.0,0.0,0.0,0.0,0.0,0.0,0.0,0.0,0.0,0.0,0.0,0.0,0.0,0.0,0.0,0.0,0.0,0.0,0.0,0.0,0.0,0.0,0.0,0.0,0.0,0.0,0.0,0.0,0.0,0.0,0.0,0.0,0.0,5.8984,5.8984,5.8984,5.8984,5.8984,5.8984,0.0,0.0,0.0,0.0,0.0,0.0,0.0,0.0,0.0,0.0,0.0,0.0,0.0,0.0,0.0,0.0,0.0,0.0,0.0,0.0,0.0,0.0,0.0,0.0,0.0,0.0,0.0,0.0,0.0,0.0,0.0,0.0,0.0,0.0,0.0,0.0,0.0,0.0,0.0,0.0,0.0,0.0,0.0,0.0,0.0,0.0,0.0,0.0,0.0,0.0,0.0,0.0,0.0,0.0,0.0,0.0,0.0,0.0,0.0,0.0,0.0,0.0,0.0,0.0,0.0,0.0,0.0,0.0,0.0,0.0,0.0,0.0,0.0,0.0,0.0,0.0,0.0,0.0,0.0,0.0,0.0,0.0,0.0,0.0,0.0,0.0,0.0,0.0,0.0,0.0,0.0,0.0,0.0,0.0,0.0,0.0,0.0,0.0,0.0,0.0,0.0,0.0,0.0,0.0,0.0,0.0,0.0,0.0,0.0,5.9677,5.9677,5.9711,5.9711,5.9711,5.9711,0.0,0.0,0.0,0.0,0.0,0.0,0.0,0.0,0.0,0.0,0.0,0.0,0.0,0.0,0.0,0.0,0.0,0.0,0.0,0.0,0.0,0.0,0.0,0.0,0.0,0.0,0.0,0.0,0.0,0.0,0.0,0.0,0.0,0.0,0.0,0.0,0.0,0.0,0.0,0.0,0.0,0.0,0.0,0.0,0.0,0.0,0.0,0.0,0.0,0.0,0.0,0.0,0.0,0.0,0.0,0.0,0.0,0.0,0.0,0.0,0.0,0.0,0.0,0.0,0.0,0.0,0.0,0.0,0.0,0.0,0.0,0.0,0.0,0.0,0.0,0.0,0.0,0.0,0.0,0.0,0.0,0.0,0.0,0.0,0.0,0.0,0.0,0.0,0.0,0.0,0.0,0.0,0.0,0.0,0.0,0.0,0.0,0.0,0.0,0.0,0.0,0.0,0.0,0.0,0.0,0.0,0.0,0.0,0.0,6.0159,0.0,6.0188,6.0188,6.0159,6.0188,0.0,0.0,0.0,0.0,0.0,0.0,0.0,0.0,0.0,0.0,0.0,0.0,0.0,0.0,0.0,0.0,0.0,0.0,0.0,0.0,0.0,0.0,0.0,0.0,0.0,0.0,0.0,0.0,0.0,0.0,0.0,0.0,0.0,0.0,0.0,0.0,0.0,0.0,0.0,0.0,0.0,0.0,0.0,0.0,0.0,0.0,0.0,0.0,0.0,0.0,0.0,0.0,0.0,0.0,0.0,0.0,0.0,0.0,0.0,0.0,0.0,0.0,0.0,0.0,0.0,0.0,0.0,0.0,0.0,0.0,0.0,0.0,0.0,0.0,0.0,0.0,0.0,0.0,0.0,0.0,0.0,0.0,0.0,0.0,0.0,0.0,0.0,0.0,0.0,0.0,0.0,0.0,0.0,0.0,0.0,0.0,0.0,0.0,0.0,0.0,0.0,0.0,0.0,0.0,0.0,0.0,0.0,0.0,6.0332,6.0332,6.037,6.0436,6.0332,6.036,6.0332,0.0,0.0,0.0,0.0,0.0,0.0,0.0,0.0,0.0,0.0,0.0,0.0,0.0,0.0,0.0,0.0,0.0,0.0,0.0,0.0,0.0,0.0,0.0,0.0,0.0,0.0,0.0,0.0,0.0,0.0,0.0,0.0,0.0,0.0,0.0,0.0,0.0,0.0,0.0,0.0,0.0,0.0,0.0,0.0,0.0,0.0,0.0,0.0,0.0,0.0,0.0,0.0,0.0,0.0,0.0,0.0,0.0,0.0,0.0,0.0,0.0,0.0,0.0,0.0,0.0,0.0,0.0,0.0,0.0,0.0,0.0,0.0,0.0,0.0,0.0,0.0,0.0,0.0,0.0,0.0,0.0,0.0,0.0,0.0,0.0,0.0,0.0,0.0,0.0,0.0,0.0,0.0,0.0,0.0,0.0,0.0,0.0,0.0,0.0,0.0,0.0,0.0,0.0,0.0,0.0,0.0,0.0,0.0,0.0,6.1582,6.2081,6.2119,6.1543,6.1543,6.1236,0.0,0.0,0.0,0.0,0.0,0.0,0.0,0.0,0.0,0.0,0.0,0.0,0.0,0.0,0.0,0.0,0.0,0.0,0.0,0.0,0.0,0.0,0.0,0.0,0.0,0.0,0.0,0.0,0.0,0.0,0.0,0.0,0.0,0.0,0.0,0.0,0.0,0.0,0.0,0.0,0.0,0.0,0.0,0.0,0.0,0.0,0.0,0.0,0.0,0.0,0.0,0.0,0.0,0.0,0.0,0.0,0.0,0.0,0.0,0.0,0.0,0.0,0.0,0.0,0.0,0.0,0.0,0.0,0.0,0.0,0.0,0.0,0.0,0.0,0.0,0.0,0.0,0.0,0.0,0.0,0.0,0.0,0.0,0.0,0.0,0.0,0.0,0.0,0.0,0.0,0.0,0.0,0.0,0.0,0.0,0.0,0.0,0.0,0.0,0.0,0.0,0.0,0.0,0.0,0.0,0.0,0.0,0.0,0.0,6.4474,6.4936,6.482,6.3974,6.3935,6.3089,6.1358,0.0,0.0,0.0,0.0,0.0,0.0,0.0,0.0,0.0,0.0,0.0,0.0,0.0,0.0,0.0,0.0,0.0,0.0,0.0,0.0,0.0,0.0,0.0,0.0,0.0,0.0,0.0,0.0,0.0,0.0,0.0,0.0,0.0,0.0,0.0,0.0,0.0,0.0,0.0,0.0,0.0,0.0,0.0,0.0,0.0,0.0,0.0,0.0,0.0,0.0,0.0,0.0,0.0,0.0,0.0,0.0,0.0,0.0,0.0,0.0,0.0,0.0,0.0,0.0,0.0,0.0,0.0,0.0,0.0,0.0,0.0,0.0,0.0,0.0,0.0,0.0,0.0,0.0,0.0,0.0,0.0,0.0,0.0,0.0,0.0,0.0,0.0,0.0,0.0,0.0,0.0,0.0,0.0,0.0,0.0,0.0,0.0,0.0,0.0,0.0,0.0,0.0,0.0,0.0,0.0,0.0,0.0,0.0,6.8744,6.8898,6.8475,6.7398,6.7205,6.5628,0.0,0.0,0.0,0.0,0.0,0.0,0.0,0.0,0.0,0.0,0.0,0.0,0.0,0.0,0.0,0.0,0.0,0.0,0.0,0.0,0.0,0.0,0.0,0.0,0.0,0.0,0.0,0.0,0.0,0.0,0.0,0.0,0.0,0.0,0.0,0.0,0.0,0.0,0.0,0.0,0.0,0.0,0.0,0.0,0.0,0.0,0.0,0.0,0.0,0.0,0.0,0.0,0.0,0.0,0.0,0.0,0.0,0.0,0.0,0.0,0.0,0.0,0.0,0.0,0.0,0.0,0.0,0.0,0.0,0.0,0.0,0.0,0.0,0.0,0.0,0.0,0.0,0.0,0.0,0.0,0.0,0.0,0.0,0.0,0.0,0.0,0.0,0.0,0.0,0.0,0.0,0.0,0.0,0.0,0.0,0.0,0.0,0.0,0.0,0.0,0.0,0.0,0.0,0.0,0.0,0.0,0.0,0.0,0.0,7.2976,7.4861,7.4284,7.0975,6.9052,6.709,0.0,0.0,0.0,0.0,0.0,0.0,0.0,0.0,0.0,0.0,0.0,0.0,0.0,0.0,0.0,0.0,0.0,0.0,0.0,0.0,0.0,0.0,0.0,0.0,0.0,0.0,0.0,0.0,0.0,0.0,0.0,0.0,0.0,0.0,0.0,0.0,0.0,0.0,0.0,0.0,0.0,0.0,0.0,0.0,0.0,0.0,0.0,0.0,0.0,0.0,0.0,0.0,0.0,0.0,0.0,0.0,0.0,0.0,0.0,0.0,0.0,0.0,0.0,0.0,0.0,0.0,0.0,0.0,0.0,0.0,0.0,0.0,0.0,0.0,0.0,0.0,0.0,0.0,0.0,0.0,0.0,0.0,0.0,0.0,0.0,0.0,0.0,0.0,0.0,0.0,0.0,0.0,0.0,0.0,0.0,0.0,0.0,0.0,0.0,0.0,0.0,0.0,0.0,0.0,0.0,0.0,0.0,0.0,7.1898,7.4668,7.79,7.8438,7.6015,7.2745,6.9744,0.0,0.0,0.0,0.0,0.0,0.0,0.0,0.0,0.0,0.0,0.0,0.0,0.0,0.0,0.0,0.0,0.0,0.0,0.0,0.0,0.0,0.0,0.0,0.0,0.0,0.0,0.0,0.0,0.0,0.0,0.0,0.0,0.0,0.0,0.0,0.0,0.0,0.0,0.0,0.0,0.0,0.0,0.0,0.0,0.0,0.0,0.0,0.0,0.0,0.0,0.0,0.0,0.0,0.0,0.0,0.0,0.0,0.0,0.0,0.0,0.0,0.0,0.0,0.0,0.0,0.0,0.0,0.0,0.0,0.0,0.0,0.0,0.0,0.0,0.0,0.0,0.0,0.0,0.0,0.0,0.0,0.0,0.0,0.0,0.0,0.0,0.0,0.0,0.0,0.0,0.0,0.0,0.0,0.0,0.0,0.0,0.0,0.0,0.0,0.0,0.0,0.0,0.0,0.0,0.0,0.0,0.0,0.0,7.3937,7.513,7.9015,8.1093,8.0977,7.6938,7.286,0.0,0.0,0.0,0.0,0.0,0.0,0.0,0.0,0.0,0.0,0.0,0.0,0.0,0.0,0.0,0.0,0.0,0.0,0.0,0.0,0.0,0.0,0.0,0.0,0.0,0.0,0.0,0.0,0.0,0.0,0.0,0.0,0.0,0.0,0.0,0.0,0.0,0.0,0.0,0.0,0.0,0.0,0.0,0.0,0.0,0.0,0.0,0.0,0.0,0.0,0.0,0.0,0.0,0.0,0.0,0.0,0.0,0.0,0.0,0.0,0.0,0.0,0.0,0.0,0.0,0.0,0.0,0.0,0.0,0.0,0.0,0.0,0.0,0.0,0.0,0.0,0.0,0.0,0.0,0.0,0.0,0.0,0.0,0.0,0.0,0.0,0.0,0.0,0.0,0.0,0.0,0.0,0.0,0.0,0.0,0.0,0.0,0.0,0.0,0.0,0.0,0.0,0.0,0.0,0.0,0.0,0.0,0.0,7.4168,7.763,7.99,8.1093,8.1093,7.6938,7.3668,0.0,0.0,0.0,0.0,0.0,0.0,0.0,0.0,0.0,0.0,0.0,0.0,0.0,0.0,0.0,0.0,0.0,0.0,0.0,0.0,0.0,0.0,0.0,0.0,0.0,0.0,0.0,0.0,0.0,0.0,0.0,0.0,0.0,0.0,0.0,0.0,0.0,0.0,0.0,0.0,0.0,0.0,0.0,0.0,0.0,0.0,0.0,0.0,6.0283,0.0,0.0,0.0,0.0,0.0,0.0,0.0,0.0,0.0,0.0,0.0,0.0,0.0,0.0,0.0,0.0,0.0,0.0,0.0,0.0,0.0,0.0,0.0,0.0,0.0,0.0,0.0,0.0,0.0,0.0,0.0,0.0,0.0,0.0,0.0,0.0,0.0,0.0,0.0,0.0,0.0,0.0,0.0,0.0,0.0,0.0,0.0,0.0,0.0,0.0,0.0,0.0,0.0,0.0,0.0,0.0,0.0,0.0,0.0,7.4668,7.8361,8.0208,8.1093,8.0977,7.8092,7.5322,0.0,0.0,0.0,0.0,0.0,0.0,0.0,0.0,0.0,0.0,0.0,0.0,0.0,0.0,0.0,0.0,0.0,0.0,0.0,0.0,0.0,0.0,0.0,0.0,0.0,0.0,0.0,0.0,0.0,0.0,0.0,0.0,0.0,0.0,0.0,0.0,0.0,0.0,0.0,0.0,0.0,0.0,0.0,0.0,0.0,0.0,0.0,0.0,0.0,0.0,0.0,0.0,0.0,0.0,0.0,0.0,0.0,0.0,0.0,0.0,0.0,0.0,0.0,0.0,0.0,0.0,0.0,0.0,0.0,0.0,0.0,0.0,0.0,0.0,0.0,0.0,0.0,0.0,0.0,0.0,0.0,0.0,0.0,0.0,0.0,0.0,0.0,0.0,0.0,0.0,0.0,0.0,0.0,0.0,0.0,0.0,0.0,0.0,0.0,0.0,0.0,0.0,0.0,0.0,0.0,0.0,0.0,7.2783,7.5399,7.8784,8.0323,8.1093,8.1093,7.94,7.6938,7.363,0.0,0.0,0.0,0.0,0.0,0.0,0.0,0.0,0.0,0.0,0.0,0.0,0.0,0.0,0.0,0.0,0.0,0.0,0.0,0.0,0.0,0.0,0.0,0.0,0.0,0.0,0.0,0.0,0.0,0.0,0.0,0.0,0.0,0.0,0.0,0.0,0.0,0.0,5.9531,5.9445,0.0,0.0,0.0,0.0,0.0,0.0,0.0,0.0,6.096,0.0,0.0,0.0,0.0,0.0,0.0,0.0,0.0,0.0,0.0,0.0,0.0,0.0,0.0,0.0,0.0,0.0,0.0,0.0,0.0,0.0,0.0,0.0,0.0,0.0,0.0,0.0,0.0,0.0,0.0,0.0,0.0,0.0,0.0,0.0,0.0,0.0,0.0,0.0,0.0,0.0,0.0,0.0,0.0,0.0,0.0,0.0,0.0,0.0,0.0,0.0,0.0,0.0,0.0,0.0,0.0,7.1937,7.3668,7.6515,8.0554,8.0939,8.1093,8.1054,7.94,7.6899,7.3668,0.0,0.0,0.0,0.0,0.0,0.0,0.0,0.0,0.0,0.0,0.0,0.0,0.0,0.0,0.0,0.0,0.0,0.0,0.0,0.0,0.0,0.0,0.0,0.0,0.0,0.0,0.0,0.0,0.0,0.0,0.0,0.0,0.0,0.0,0.0,0.0,0.0,0.0,0.0,6.0926,6.1028,0.0,0.0,0.0,0.0,0.0,0.0,0.0,0.0,6.1694,0.0,0.0,0.0,0.0,0.0,0.0,0.0,0.0,0.0,0.0,0.0,0.0,0.0,0.0,0.0,0.0,0.0,0.0,0.0,0.0,0.0,0.0,0.0,0.0,0.0,0.0,0.0,0.0,0.0,0.0,0.0,0.0,0.0,0.0,0.0,0.0,0.0,0.0,0.0,0.0,0.0,0.0,0.0,0.0,0.0,0.0,0.0,0.0,0.0,0.0,0.0,0.0,0.0,0.0,0.0,7.2168,7.4745,7.7669,8.0939,8.1093,8.1093,8.1054,7.9015,7.6284,0.0,0.0,0.0,0.0,0.0,0.0,0.0,0.0,0.0,0.0,0.0,0.0,0.0,0.0,0.0,0.0,0.0,0.0,0.0,0.0,0.0,0.0,0.0,0.0,0.0,0.0,0.0,0.0,0.0,0.0,0.0,0.0,0.0,0.0,0.0,0.0,0.0,0.0,0.0,0.0,6.1873,6.2279,6.3429,0.0,0.0,0.0,0.0,0.0,0.0,6.37,6.3147,0.0,0.0,0.0,0.0,0.0,0.0,0.0,0.0,0.0,0.0,0.0,0.0,0.0,0.0,0.0,0.0,0.0,0.0,0.0,0.0,0.0,0.0,0.0,0.0,0.0,0.0,0.0,0.0,0.0,0.0,0.0,0.0,0.0,0.0,0.0,0.0,0.0,0.0,0.0,0.0,0.0,0.0,0.0,0.0,0.0,0.0,0.0,0.0,0.0,0.0,0.0,0.0,0.0,0.0,0.0,7.2745,7.5899,7.8707,8.0977,8.1093,8.1093,8.1054,7.8284,7.5322,0.0,0.0,0.0,0.0,0.0,0.0,0.0,0.0,0.0,0.0,0.0,0.0,0.0,0.0,0.0,0.0,0.0,0.0,0.0,0.0,0.0,0.0,0.0,0.0,0.0,0.0,0.0,0.0,0.0,0.0,0.0,0.0,0.0,0.0,0.0,0.0,0.0,0.0,0.0,0.0,0.0,6.3362,6.5358,6.3429,0.0,0.0,0.0,0.0,6.4647,6.5087,0.0,0.0,0.0,0.0,0.0,0.0,0.0,0.0,0.0,0.0,0.0,0.0,0.0,0.0,0.0,0.0,0.0,0.0,0.0,0.0,0.0,0.0,0.0,0.0,0.0,0.0,0.0,0.0,0.0,0.0,0.0,0.0,0.0,0.0,0.0,0.0,0.0,0.0,0.0,0.0,0.0,0.0,0.0,0.0,0.0,0.0,0.0,0.0,0.0,0.0,0.0,0.0,0.0,0.0,0.0,0.0,7.4399,7.7015,7.9246,8.0977,8.1093,8.1093,8.1054,7.713,7.413,0.0,0.0,0.0,0.0,0.0,0.0,0.0,0.0,0.0,0.0,0.0,0.0,0.0,0.0,0.0,0.0,0.0,0.0,0.0,0.0,0.0,0.0,0.0,0.0,0.0,0.0,0.0,0.0,0.0,0.0,0.0,0.0,0.0,0.0,0.0,0.0,0.0,0.0,0.0,0.0,0.0,6.3937,6.5459,6.4309,6.3057,0.0,0.0,6.5358,6.5561,6.6643,0.0,0.0,0.0,0.0,0.0,0.0,0.0,0.0,0.0,0.0,0.0,0.0,0.0,0.0,0.0,0.0,0.0,0.0,0.0,0.0,0.0,0.0,0.0,0.0,0.0,0.0,0.0,0.0,0.0,0.0,0.0,0.0,0.0,0.0,0.0,0.0,0.0,0.0,0.0,0.0,0.0,0.0,0.0,0.0,0.0,0.0,0.0,0.0,0.0,0.0,0.0,0.0,0.0,0.0,0.0,7.2437,7.4091,7.7938,8.0323,8.1054,8.1093,8.1093,8.1093,7.6938,7.3668,0.0,0.0,0.0,0.0,0.0,0.0,0.0,0.0,0.0,0.0,0.0,0.0,0.0,0.0,0.0,0.0,0.0,0.0,0.0,0.0,0.0,0.0,0.0,0.0,0.0,0.0,0.0,0.0,0.0,0.0,0.0,0.0,0.0,0.0,0.0,0.0,0.0,0.0,0.0,0.0,0.0,0.0,6.6136,6.5425,0.0,0.0,0.0,6.5696,6.5696,0.0,0.0,0.0,0.0,0.0,0.0,0.0,0.0,0.0,0.0,0.0,0.0,0.0,0.0,0.0,0.0,0.0,0.0,0.0,0.0,0.0,0.0,0.0,0.0,0.0,0.0,0.0,0.0,0.0,0.0,0.0,0.0,0.0,0.0,0.0,0.0,0.0,0.0,0.0,0.0,0.0,0.0,0.0,0.0,0.0,0.0,0.0,0.0,0.0,0.0,0.0,0.0,0.0,0.0,0.0,0.0,0.0,7.386,7.8631,8.1093,8.1093,8.1093,8.1093,8.1016,7.7361,0.0,0.0,0.0,0.0,0.0,0.0,0.0,0.0,0.0,0.0,0.0,0.0,0.0,0.0,0.0,0.0,0.0,0.0,0.0,0.0,0.0,0.0,0.0,0.0,0.0,0.0,0.0,6.4273,0.0,0.0,0.0,0.0,0.0,0.0,0.0,0.0,0.0,0.0,0.0,0.0,0.0,0.0,6.5121,6.6609,6.6508,6.6508,0.0,0.0,6.6305,6.6508,6.8301,6.8417,0.0,0.0,0.0,0.0,0.0,0.0,0.0,0.0,0.0,0.0,0.0,0.0,0.0,0.0,0.0,0.0,0.0,0.0,0.0,0.0,0.0,0.0,0.0,0.0,0.0,0.0,0.0,0.0,0.0,0.0,0.0,0.0,0.0,0.0,0.0,0.0,0.0,0.0,0.0,0.0,0.0,0.0,0.0,0.0,0.0,0.0,0.0,0.0,0.0,0.0,0.0,0.0,0.0,0.0,7.2976,7.4707,7.89,8.1093,8.1093,8.1093,8.1093,8.1054,7.8515,7.5515,0.0,0.0,0.0,0.0,0.0,0.0,0.0,0.0,0.0,0.0,0.0,0.0,0.0,0.0,0.0,0.0,0.0,0.0,0.0,0.0,0.0,0.0,0.0,0.0,0.0,0.0,0.0,0.0,0.0,0.0,0.0,0.0,0.0,0.0,0.0,0.0,0.0,0.0,0.0,0.0,0.0,6.5155,6.6609,6.7354,6.803,0.0,6.8267,6.7996,6.8741,7.0128,6.9566,6.5076,0.0,0.0,0.0,0.0,0.0,0.0,0.0,0.0,0.0,0.0,0.0,0.0,0.0,0.0,0.0,0.0,0.0,0.0,0.0,0.0,0.0,0.0,0.0,0.0,0.0,0.0,0.0,0.0,0.0,0.0,0.0,0.0,0.0,0.0,0.0,0.0,0.0,0.0,0.0,0.0,0.0,0.0,0.0,0.0,0.0,0.0,0.0,0.0,0.0,0.0,0.0,0.0,0.0,7.2245,7.3976,7.8669,8.1093,8.1093,8.1093,8.1093,8.1093,7.9131,7.6476,0.0,0.0,0.0,0.0,0.0,0.0,0.0,0.0,0.0,0.0,0.0,0.0,0.0,0.0,0.0,0.0,0.0,0.0,0.0,0.0,0.0,0.0,0.0,0.0,0.0,0.0,0.0,0.0,6.9888,6.9872,6.7919,0.0,0.0,0.0,0.0,0.0,0.0,0.0,0.0,0.0,0.0,6.6132,6.7929,6.847,0.0,0.0,6.8842,6.8402,6.7793,6.8944,6.8741,6.5073,6.3265,0.0,0.0,0.0,0.0,0.0,0.0,0.0,0.0,0.0,0.0,0.0,0.0,0.0,0.0,0.0,0.0,0.0,0.0,0.0,0.0,0.0,0.0,0.0,0.0,0.0,0.0,0.0,0.0,0.0,0.0,0.0,0.0,0.0,0.0,0.0,0.0,0.0,0.0,0.0,0.0,0.0,0.0,0.0,0.0,0.0,0.0,0.0,0.0,0.0,0.0,0.0,0.0,7.2014,7.4245,7.9015,8.1593,8.1862,8.1823,8.1862,8.1823,8.0669,7.8438,0.0,0.0,0.0,0.0,0.0,0.0,0.0,0.0,0.0,0.0,0.0,0.0,0.0,0.0,0.0,0.0,0.0,0.0,0.0,0.0,0.0,0.0,0.0,0.0,0.0,0.0,0.0,0.0,7.001,6.9176,6.5716,0.0,0.0,0.0,0.0,0.0,0.0,0.0,0.0,0.0,0.0,6.7014,6.8233,6.8605,6.8741,6.8827,6.8454,6.776,6.6964,6.7489,6.7286,6.4986,0.0,0.0,0.0,0.0,0.0,0.0,0.0,0.0,0.0,0.0,0.0,0.0,0.0,0.0,0.0,0.0,0.0,0.0,0.0,0.0,0.0,0.0,0.0,0.0,0.0,0.0,0.0,0.0,0.0,0.0,6.5936,0.0,0.0,0.0,0.0,0.0,0.0,0.0,0.0,0.0,0.0,0.0,0.0,0.0,0.0,0.0,0.0,0.0,0.0,0.0,0.0,0.0,0.0,7.2552,7.5938,8.0092,8.267,8.3478,8.3555,8.3478,8.3478,8.3478,8.1862,7.8438,0.0,0.0,0.0,0.0,0.0,0.0,0.0,0.0,0.0,0.0,0.0,0.0,0.0,0.0,0.0,0.0,0.0,0.0,0.0,0.0,0.0,0.0,0.0,0.0,0.0,0.0,6.7616,6.8553,6.7945,0.0,0.0,0.0,0.0,0.0,0.0,0.0,0.0,0.0,6.3645,6.6132,6.759,6.6981,6.7455,6.8014,6.8252,6.6912,6.605,6.669,6.6268,6.5493,0.0,0.0,0.0,0.0,0.0,0.0,0.0,0.0,0.0,0.0,0.0,0.0,0.0,0.0,0.0,0.0,0.0,0.0,0.0,0.0,0.0,0.0,0.0,0.0,0.0,0.0,0.0,7.131,6.9706,0.0,0.0,0.0,0.0,0.0,0.0,0.0,0.0,0.0,0.0,0.0,7.4851,7.4476,0.0,0.0,0.0,0.0,0.0,0.0,0.0,0.0,0.0,0.0,0.0,0.0,7.3168,7.6053,8.0746,8.3285,8.3593,8.3593,8.3593,8.3593,8.3593,8.2247,7.9438,0.0,0.0,0.0,0.0,0.0,0.0,0.0,0.0,0.0,0.0,0.0,0.0,0.0,0.0,0.0,0.0,0.0,0.0,0.0,0.0,0.0,0.0,0.0,0.0,0.0,6.8349,0.0,0.0,0.0,0.0,0.0,0.0,0.0,0.0,0.0,0.0,6.3639,6.4823,6.5834,6.6024,6.6126,6.6117,6.6271,6.6981,0.0,0.0,0.0,0.0,0.0,0.0,0.0,0.0,0.0,0.0,0.0,0.0,0.0,5.6868,5.5748,5.4431,5.4887,5.5323,5.4982,0.0,0.0,0.0,0.0,0.0,0.0,0.0,0.0,0.0,0.0,0.0,0.0,0.0,0.0,7.5187,0.0,7.2976,0.0,0.0,0.0,0.0,0.0,0.0,0.0,0.0,7.6092,7.7284,7.7784,7.7784,7.7476,0.0,7.6322,7.4591,0.0,0.0,0.0,0.0,0.0,0.0,0.0,0.0,7.4053,7.6938,8.1593,8.417,8.4439,8.4478,8.4478,8.4439,8.4209,8.3285,8.1631,7.8823,7.613,0.0,0.0,0.0,0.0,0.0,0.0,0.0,0.0,0.0,0.0,0.0,0.0,0.0,0.0,0.0,0.0,0.0,0.0,0.0,0.0,0.0,0.0,0.0,6.8787,0.0,0.0,0.0,0.0,0.0,0.0,0.0,0.0,0.0,6.4599,6.5683,6.6512,6.7025,6.6976,6.6398,6.4796,0.0,0.0,0.0,0.0,0.0,0.0,0.0,6.3666,6.2956,6.3789,6.4521,6.4419,6.2437,6.0735,6.0442,0.0,0.0,5.6555,5.6989,5.7523,5.728,5.6957,5.6275,5.4996,5.3689,5.2289,0.0,0.0,0.0,0.0,0.0,0.0,0.0,0.0,7.9991,7.9191,0.0,7.6976,0.0,0.0,0.0,0.0,0.0,7.5707,0.0,0.0,8.1554,8.2747,8.1323,8.1246,8.1246,8.117,7.9554,7.8746,7.8515,7.5476,0.0,0.0,0.0,0.0,0.0,0.0,7.5245,7.8631,8.2785,8.5324,8.6017,8.6055,8.6094,8.6055,8.5324,8.4939,8.4824,8.1747,7.9592,7.8592,7.3937,0.0,0.0,0.0,0.0,0.0,0.0,0.0,0.0,0.0,0.0,0.0,0.0,0.0,0.0,0.0,0.0,0.0,0.0,0.0,0.0,6.8825,0.0,0.0,0.0,0.0,0.0,0.0,0.0,0.0,0.0,6.5686,6.6173,6.6679,6.7078,6.7112,0.0,0.0,0.0,0.0,6.6237,6.1998,6.2009,6.2347,6.1559,6.3248,6.4952,6.5628,0.0,0.0,6.8092,6.5151,6.2643,6.2116,6.1461,6.0436,5.862,5.886,5.917,5.8952,5.8872,5.8009,5.5874,5.5137,5.3888,7.9015,0.0,0.0,0.0,0.0,7.6245,7.7784,8.0092,8.1393,8.1085,7.9669,7.99,0.0,0.0,0.0,0.0,0.0,0.0,7.9131,8.09,8.2747,8.3978,8.467,8.467,8.467,8.4632,8.417,8.3939,8.3862,8.2978,7.8977,7.2129,0.0,0.0,0.0,0.0,7.7246,8.1131,8.4209,8.5863,8.6094,8.6094,8.6094,8.6094,8.5863,8.5786,8.5747,8.4824,8.3324,8.1285,7.9285,0.0,0.0,0.0,0.0,0.0,0.0,0.0,0.0,0.0,0.0,0.0,0.0,0.0,0.0,0.0,0.0,0.0,0.0,0.0,6.9669,6.9631,6.882,0.0,0.0,0.0,0.0,0.0,0.0,0.0,0.0,0.0,7.1223,6.8916,6.7266,0.0,0.0,6.4393,6.2662,6.4208,6.5831,6.6643,6.6102,0.0,6.8098,6.7557,6.7015,6.7218,6.8707,6.9469,6.8274,6.6842,6.5504,6.4359,6.3213,6.2355,6.1822,6.1792,6.1912,6.1828,6.1828,6.1714,6.085,5.8845,5.6706,8.4132,8.1593,7.9092,7.8515,7.9323,8.0015,8.1554,8.367,8.4478,8.4362,8.3632,8.3978,8.2708,8.0285,7.94,0.0,0.0,0.0,8.2054,8.3824,8.4362,8.5132,8.6055,8.6094,8.6094,8.6094,8.6094,8.6094,8.6094,8.6094,8.3208,7.7592,0.0,0.0,7.5053,7.7015,7.9438,8.2285,8.4824,8.6094,8.6094,8.6094,8.6094,8.6094,8.6094,8.6094,8.6094,8.6094,8.5401,8.3862,8.2362,7.9722,0.0,0.0,0.0,0.0,0.0,0.0,0.0,0.0,0.0,0.0,0.0,6.4897,6.5044,0.0,0.0,0.0,7.0146,7.0991,7.1468,7.0604,0.0,0.0,0.0,0.0,0.0,0.0,0.0,6.9089,7.1036,7.2865,7.3833,7.1126,6.9083,6.9392,6.7837,6.6079,6.4343,0.0,6.7929,6.8538,6.8098,6.8335,7.0128,7.0026,6.9789,7.006,7.0601,7.0693,6.9569,6.8242,6.6958,6.5941,6.4401,6.3079,6.3079,6.3079,6.3079,6.3079,6.3079,6.2701,6.1407,5.938,5.7624,8.8671,8.8286,8.3632,8.2131,8.2939,8.4516,8.6055,8.7555,8.8325,8.8248,8.7555,8.8325,8.7401,8.517,8.4362,0.0,8.4055,8.4824,8.5593,8.6324,8.6324,8.6324,8.6286,8.6324,8.6286,8.6324,8.6286,8.6324,8.6324,8.6324,8.5517,8.3978,8.2477,8.0439,7.8169,8.0246,8.1862,8.2824,8.5132,8.6324,8.6286,8.6324,8.6286,8.6324,8.6324,8.6324,8.6286,8.6247,8.6209,8.6132,8.3901,8.2138,8.092,0.0,0.0,0.0,0.0,0.0,0.0,0.0,0.0,0.0,0.0,0.0,0.0,0.0,0.0,7.1138,7.2936,0.0,7.3964,7.1908,0.0,0.0,0.0,6.969,7.1939,7.2144,7.2408,7.3035,0.0,0.0,7.4849,7.3296,7.243,7.3299,7.2707,7.0995,6.7692,7.008,7.1413,6.8944,6.9147,6.9654,7.0263,7.1515,7.2732,7.3172,7.2969,7.21,7.1118,6.8927,6.7401,6.6887,6.4813,6.3079,6.3079,6.3079,6.3079,6.3079,6.3079,6.2175,5.9256,5.8257,5.7112,8.8671,8.8594,8.7401,8.6978,8.7209,8.7632,8.8017,8.8402,8.8594,8.8556,8.8402,8.8594,8.8363,8.7786,8.7555,8.7478,8.7478,8.7709,8.7902,8.8094,8.8094,8.8055,8.8094,8.8094,8.8094,8.8094,8.8094,8.8094,8.8094,8.8094,8.7863,8.7478,8.7055,8.5632,8.3208,8.3708,8.5055,8.7171,8.7786,8.8094,8.8094,8.8094,8.8055,8.8094,8.8094,8.8094,8.8055,8.744,8.7094,8.7055,8.5863,8.4176,8.1958,7.705,0.0,0.0,0.0,0.0,0.0,0.0,0.0,0.0,0.0,6.5191,6.5558,0.0,7.0697,0.0,7.4441,7.646,7.6423,7.5395,0.0,0.0,7.3031,7.2971,7.4613,7.5917,7.6501,7.5972,7.702,7.796,7.8297,7.723,7.672,7.7329,7.3238,7.0209,7.0554,7.1504,7.2394,7.2259,7.3138,7.4119,7.4018,7.4525,7.4728,7.439,7.3713,7.2658,7.088,6.873,6.6855,6.5759,6.432,6.3164,6.3079,6.3079,6.3079,6.3079,6.3079,6.2438,6.0359,5.8856,5.7369,8.9825,8.9825,8.9825,8.9825,8.9787,8.9402,8.9248,8.9248,8.9633,8.9825,8.9825,8.9787,8.9825,8.9787,8.9825,8.9594,8.9248,8.9248,8.9017,8.8709,8.8671,8.8671,8.8671,8.8671,8.8671,8.8671,8.8671,8.8671,8.8709,8.9056,8.921,8.9248,8.9633,8.9094,8.7748,8.6978,8.7286,8.8671,8.8671,8.8671,8.8671,8.8671,8.8171,8.7055,8.6632,8.5863,8.4786,8.3901,8.3439,8.3439,8.333,8.2534,8.1047,7.695,7.3383,0.0,0.0,0.0,0.0,0.0,0.0,0.0,0.0,0.0,0.0,0.0,7.3046,7.3413,7.6166,7.7598,7.6827,7.635,7.6179,7.6411,7.6045,7.6558,7.8373,7.9425,7.9856,7.9324,8.0414,8.1249,8.1183,8.0581,8.0476,8.1377,7.7576,7.4445,7.3669,7.3765,7.4018,7.4458,7.5168,7.5676,7.5676,7.5676,7.5439,7.4728,7.3984,7.3021,7.1432,6.8992,6.699,6.6048,6.4401,6.3079,6.3079,6.3079,6.3079,6.3079,6.2438,6.1377,5.9749,5.8606,5.7369,9.121,9.121,9.121,9.121,9.1133,9.0402,9.0094,9.0133,9.0864,9.121,9.121,9.121,9.121,9.121,9.121,9.0787,9.0094,9.0094,8.971,8.9056,8.9017,8.9017,8.9017,8.9017,8.9017,8.9017,8.9017,8.9017,8.9017,8.971,9.0056,9.0094,9.0825,9.121,9.1133,8.9748,8.9017,8.9017,8.8902,8.8786,8.8709,8.8594,8.7363,8.5016,8.4055,8.2477,8.0208,7.9169,7.8669,7.8707,7.9338,7.978,7.9804,7.6312,7.4136,0.0,7.0313,0.0,0.0,0.0,0.0,0.0,0.0,0.0,0.0,7.4111,7.5469,7.6497,7.7892,7.8222,7.7011,7.6864,7.7451,7.8846,7.9066,7.9947,8.2039,8.237,8.237,8.248,8.3141,8.3544,8.3478,8.3371,8.3592,8.3803,8.2382,7.9796,7.6929,7.6122,7.5994,7.5906,7.5777,7.5676,7.5676,7.5676,7.5506,7.483,7.4187,7.3283,7.2296,6.9583,6.7292,6.6679,6.4703,6.3194,6.3079,6.3079,6.3079,6.3079,6.1792,6.0116,5.8481,5.7724,5.6596,9.121,9.121,9.121,9.121,9.1171,9.1018,9.0941,9.0979,9.1133,9.121,9.121,9.121,9.121,9.121,9.121,9.1095,9.0941,9.0941,9.0864,9.0748,9.0748,9.071,9.0748,9.071,9.071,9.071,9.0748,9.071,9.0748,9.0902,9.0979,9.0979,9.1133,9.121,9.1171,0.0,0.0,0.0,9.0017,8.9363,8.8709,8.7979,8.6748,8.4978,8.4055,0.0,8.1862,8.0362,7.9554,7.9554,7.9684,0.0,0.0,0.0,0.0,0.0,0.0,0.0,0.0,0.0,0.0,0.0,7.4625,7.4368,7.3597,7.4955,7.6754,7.8846,7.9396,7.9984,8.0938,8.1048,8.1158,8.1452,8.1489,8.1966,8.3067,8.3177,8.3434,8.4058,8.4278,8.4389,8.4389,8.4364,8.4019,8.3593,8.2969,8.1667,7.9276,7.8361,7.7743,7.6877,7.6115,7.5709,7.5676,7.5676,7.5642,7.5405,7.4864,7.371,7.1948,6.974,6.7355,6.5991,6.4209,6.3079,6.3079,6.3079,6.3079,6.3079,6.1644,5.9965,5.8383,5.6828,5.5314,9.2441,0.0,9.2441,9.2441,0.0,9.2441,9.2441,9.2364,9.1556,9.121,9.121,9.121,9.121,9.121,9.121,9.121,9.121,9.121,9.121,9.121,9.121,9.121,9.121,9.121,9.121,9.121,9.121,9.121,9.121,9.121,9.121,9.121,9.121,9.121,9.121,9.121,9.121,9.121,9.0748,9.0364,8.994,8.9517,8.8248,8.6209,8.5286,0.0,0.0,0.0,0.0,0.0,0.0,0.0,0.0,8.0444,0.0,7.9201,7.7441,7.6516,7.668,7.7451,7.8442,7.958,7.969,7.8846,7.6864,7.8185,7.9617,8.0828,8.0975,8.1305,8.2113,8.2553,8.281,8.281,8.3141,8.3581,8.3911,8.3985,8.4168,8.4535,8.4939,8.5196,8.5196,8.5563,8.561,8.5008,8.4424,8.3474,8.1837,8.021,7.8672,7.7182,7.6217,7.5709,7.5676,7.5676,7.5676,7.5608,7.51,7.385,7.1853,6.9765,6.761,6.5483,6.3984,6.3079,6.3079,6.3079,6.3079,6.2817,6.1019,5.9104,5.8131,5.6569,5.4916,9.3672,9.3672,9.3672,9.3672,9.3672,9.3672,9.3672,9.3595,0.0,0.0,0.0,9.1633,9.1633,9.1633,9.1633,9.1633,9.1633,9.1518,9.1441,9.1441,9.1287,9.121,9.121,9.121,9.121,9.121,9.121,9.121,9.121,9.121,9.121,9.121,9.121,9.121,9.121,9.121,9.121,9.121,9.1056,9.0902,9.0787,9.0594,8.9402,8.7017,8.6132,8.4593,8.2401,8.1516,8.0939,8.0523,8.1574,8.2207,8.2148,8.1609,8.1257,8.1185,8.0496,8.0514,8.1562,8.226,8.3177,8.4499,8.3985,8.2737,8.0571,8.1636,8.248,8.259,8.2627,8.2627,8.2627,8.3214,8.3618,8.3618,8.4205,8.4646,8.4792,8.4792,8.4903,8.5049,8.5637,8.6004,8.604,8.6554,8.6925,8.6571,8.5661,8.4773,8.3323,8.0852,7.8647,7.7154,7.6217,7.5676,7.5676,7.5676,7.5676,7.5676,7.5202,7.3984,7.1589,6.9658,6.7599,6.5046,6.3789,6.3164,6.3079,6.3079,6.3079,6.3079,6.0416,5.7977,5.785,5.6337,5.4567,9.371,9.3672,9.3713,9.3713,9.3672,9.3672,9.3672,9.3672,9.3441,9.3326,9.3364,9.3326,9.3364,9.3361,9.3326,9.3364,9.3287,9.2633,9.2326,9.2287,9.1556,9.121,9.121,9.121,9.121,9.121,9.121,9.121,9.121,9.121,9.121,9.121,9.121,9.121,9.121,9.121,9.121,9.1171,9.0479,8.9748,8.9056,8.8325,8.7094,8.5324,8.4516,8.3439,8.2362,8.1593,8.0177,7.8346,8.0734,8.2416,8.285,8.3966,8.4685,8.4931,8.4889,8.4609,8.4132,8.4205,8.4352,8.4572,8.4499,8.3985,8.303,8.3104,8.3508,8.4168,8.4168,8.4278,8.4278,8.4352,8.4425,8.4462,8.4535,8.4866,8.5527,8.5637,8.5857,8.6481,8.6738,8.6811,8.6775,8.6921,8.6679,8.5806,8.5355,8.4532,8.2451,7.9952,7.8031,7.7092,7.6217,7.5743,7.5676,7.5676,7.5676,7.5676,7.5608,7.4067,7.0507,6.939,6.7647,6.4145,6.3339,6.3194,6.3079,6.3079,6.3079,6.2817,6.0144,5.8131,5.785,5.5446,5.3316,9.5134,9.5134,9.5097,9.5097,9.5134,9.5095,9.5095,9.5095,9.5134,9.4557,9.371,9.3672,9.3672,9.3672,9.3672,9.371,9.3674,9.3326,9.3133,9.3095,9.2441,9.2287,9.2479,9.2249,9.2056,9.1902,9.1902,9.1672,9.1248,9.121,9.121,9.121,9.121,9.121,9.121,9.121,9.121,9.121,9.0825,9.0441,9.0056,8.9671,8.9094,8.8325,8.7902,8.7555,8.7132,8.6786,8.606,8.506,8.5932,8.6573,8.6851,8.6824,8.6884,8.7053,8.6679,8.6297,8.593,8.593,8.571,8.527,8.5233,8.5123,8.4719,8.4315,8.4205,8.4572,8.4609,8.4609,8.4609,8.5013,8.5233,8.5233,8.5637,8.604,8.6371,8.6444,8.6591,8.6958,8.7031,8.7031,8.7031,8.7031,8.6856,8.6211,8.5314,8.3755,8.2083,7.97,7.7874,7.7468,7.6487,7.5777,7.5676,7.5676,7.5676,7.5676,7.5064,7.334,7.0405,6.9136,6.6945,6.4287,6.3318,6.3109,6.3079,6.3079,6.2701,6.1525,5.9872,5.7977,5.6596,5.4567,5.3042,9.6288,9.6288,9.6288,9.6288,9.6288,9.6288,9.6288,9.6288,9.6288,9.5557,9.4403,9.4287,9.4287,9.4287,9.4287,9.4289,9.4289,9.4095,9.398,9.3941,9.3249,9.321,9.3633,9.3403,9.3133,9.2787,9.2749,9.2441,9.1825,9.1748,9.1672,9.1518,9.1518,9.1402,9.121,9.121,9.121,9.121,9.121,9.121,9.121,9.121,9.121,9.121,9.1171,9.121,9.121,9.121,9.121,9.1175,9.0646,9.0203,8.9741,8.8872,8.819,8.7898,8.7365,8.7031,8.7031,8.7031,8.6738,8.6114,8.604,8.6077,8.6004,8.5527,8.5123,8.5159,8.5196,8.5196,8.5306,8.5673,8.6077,8.6077,8.6591,8.6921,8.6995,8.7031,8.7031,8.7031,8.7031,8.7031,8.7031,8.7031,8.6856,8.632,8.4613,8.2928,8.1829,7.9666,7.8142,7.7705,7.669,7.5777,7.5676,7.5676,7.5676,7.5709,7.4539,7.2864,7.0685,6.8642,6.6488,6.4503,6.3468,6.3139,6.3079,6.3079,6.2409,6.099,5.9228,5.7341,5.5181,5.392,5.2929,9.6288,9.6288,9.6288,9.6288,9.6288,9.6288,9.6288,9.6288,9.6288,9.6249,9.598,9.6057,9.6019,9.6057,9.598,9.598,9.5903,9.5211,9.4864,9.4711,9.3518,9.321,9.3826,9.421,9.417,9.3672,9.3595,9.3518,9.3326,9.3364,9.3056,9.2441,9.2364,9.1979,9.1325,9.1248,9.121,9.121,9.121,9.121,9.121,9.121,9.121,9.121,9.121,9.121,9.121,9.121,9.121,9.121,9.11,9.0294,8.8835,8.8843,8.8446,8.7231,8.7064,8.7031,8.7031,8.7031,8.6958,8.6921,8.6885,8.6848,8.6848,8.6811,8.6775,8.6701,8.6738,8.6664,8.6775,8.6811,8.6811,8.6775,8.6921,8.7031,8.7031,8.7031,8.7031,8.7031,8.7031,8.7031,8.7031,8.7031,8.6571,8.5731,8.3839,8.2335,8.1771,7.9666,7.801,7.7739,7.669,7.5811,7.5676,7.5676,7.5676,7.558,7.4505,7.2723,7.0738,6.8595,6.6488,6.4744,6.3498,6.3109,6.3079,6.3079,6.2438,6.0359,5.8606,5.6855,5.4055,5.3042,5.2929,9.6288,9.6288,9.6288,9.6288,9.6288,9.6288,9.6288,9.6288,9.6288,9.6288,9.6288,9.6288,9.6288,9.6288,9.6288,9.6288,9.6249,9.5942,9.5749,9.5711,9.5172,9.5057,9.5249,9.5441,9.5211,9.4518,9.4441,9.421,9.3787,9.371,9.3518,9.3249,9.321,9.3018,9.271,9.2672,9.2479,9.2018,9.1979,9.171,9.1248,9.121,9.121,9.121,9.121,9.121,9.121,9.121,9.121,9.1136,9.0406,8.9631,8.8857,8.8218,8.7581,8.7064,8.7031,8.7031,8.7031,8.7031,8.7031,8.7031,8.7031,8.7031,8.7031,8.7031,8.7031,8.7031,8.7031,8.7031,8.7031,8.7031,8.7031,8.7031,8.7031,8.7031,8.7031,8.7031,8.7031,8.7031,8.7031,8.7031,8.7031,8.7031,8.65,8.5468,8.3839,8.2661,8.1898,7.9666,7.8176,7.7807,7.669,7.5811,7.5676,7.5676,7.5676,7.5354,7.377,7.1735,7.094,6.792,6.5551,6.4723,6.3707,6.3139,6.3079,6.2933,6.2438,5.9872,5.6726,5.4459,5.3042,5.2929,5.2491,9.6288,9.6288,9.6288,9.6288,9.6288,9.6288,9.6288,9.6288,9.6288,9.6288,9.6288,9.6288,9.6288,9.6288,9.6288,9.6288,9.6288,9.6288,9.6288,9.6288,9.6288,9.6288,9.6288,9.6288,9.598,9.5441,9.5326,9.5057,9.4441,9.4403,9.4287,9.4095,9.4057,9.3941,9.371,9.3672,9.3403,9.2903,9.2826,9.2441,9.171,9.1556,9.1441,9.1248,9.121,9.121,9.121,9.0989,9.0876,9.0876,8.9716,8.9016,8.8801,8.7861,8.7231,8.6995,8.7031,8.7031,8.7031,8.7031,8.7031,8.7031,8.7031,8.7031,8.7031,8.7031,8.7031,8.7031,8.7031,8.7031,8.7031,8.7031,8.7031,8.7031,8.7031,8.7031,8.7031,8.7031,8.7031,8.7031,8.7031,8.6856,8.6608,8.65,8.6064,8.4852,8.3755,8.2928,8.176,7.9734,7.801,7.7942,7.669,7.5811,7.5676,7.5676,7.5614,7.4638,7.3018,7.1388,7.0743,6.7365,6.5024,6.4725,6.3767,6.3169,6.2963,6.2701,6.1287,5.7977,5.5075,5.3179,5.2929,5.2929,5.205,9.6288,9.6288,9.6288,9.6288,9.6288,9.6288,9.6288,9.6288,9.6288,9.6288,9.6288,9.6288,9.6288,9.6288,9.6288,9.6288,9.6288,9.6288,9.6288,9.6288,9.6288,9.6288,9.6288,9.6288,9.6249,9.6134,9.6095,9.6095,9.6057,9.6095,9.5749,9.498,9.4941,9.4518,9.3941,9.3864,9.371,9.3672,9.3672,9.3249,9.2518,9.2441,9.2018,9.1364,9.121,9.121,9.1136,9.0566,9.016,9.016,8.9438,8.8801,8.8249,8.8046,8.7646,8.7132,8.7031,8.7031,8.7031,8.7031,8.7031,8.7031,8.7031,8.7031,8.7031,8.7031,8.7031,8.7031,8.7031,8.7031,8.7031,8.7031,8.7031,8.7031,8.7031,8.7031,8.7031,8.7031,8.7031,8.7031,8.7031,8.6571,8.5656,8.5355,8.4888,8.3839,8.275,8.1968,8.1515,7.9604,7.8209,7.7705,7.6792,7.5676,7.5676,7.5676,7.5161,7.4106,7.2704,7.0981,6.908,6.726,6.5919,6.4814,6.3887,6.3202,6.2907,6.1407,5.9352,5.6699,5.4567,5.3042,5.2929,5.2792,5.1747,9.6288,9.6288,9.6288,9.6288,9.6288,9.6288,9.6288,9.6288,9.6288,9.6288,9.6288,9.6288,9.6288,9.6288,9.6288,9.6288,9.6288,9.6288,9.6288,9.6288,9.6288,9.6288,9.6288,9.6288,9.6288,9.6288,9.6288,9.6288,9.6288,9.6288,9.6134,9.5903,9.5826,9.5672,9.5403,9.5365,9.5134,9.4557,9.4518,9.4095,9.3287,9.2787,9.2326,9.2018,9.1479,9.121,9.121,9.0488,9.0078,9.0116,8.9032,8.8367,8.8107,8.7683,8.7261,8.7064,8.7031,8.7031,8.7031,8.7031,8.7031,8.7031,8.7031,8.7031,8.7031,8.7031,8.7031,8.7031,8.7031,8.7031,8.7031,8.7031,8.7031,8.7031,8.7031,8.7031,8.7031,8.7031,8.7031,8.7031,8.7031,8.6571,8.5544,8.5278,8.4532,8.2928,8.2152,8.1629,8.0726,7.9186,7.801,7.7773,7.6724,7.5676,7.5676,7.5676,7.5161,7.3803,7.2388,7.0838,6.9121,6.7208,6.5772,6.5024,6.4096,6.3088,6.2529,6.0144,5.7977,5.5918,5.3784,5.3042,5.2929,5.2263,5.0624,9.6288,9.6288,9.6288,9.6288,9.6288,9.6288,9.6288,9.6288,9.6288,9.6288,9.6288,9.6288,9.6288,9.6288,9.6288,9.6288,9.6288,9.6288,9.6288,9.6288,9.6288,9.6288,9.6288,9.6288,9.6288,9.6288,9.6288,9.6288,9.6288,9.6288,9.6288,9.6288,9.6288,9.6288,9.6288,9.6288,9.598,9.548,9.5403,9.498,9.4134,9.3326,9.2749,9.2367,9.145,9.0839,9.08,8.9984,8.9476,8.9289,8.833,8.7709,8.7646,8.7298,8.7031,8.7031,8.7031,8.7031,8.7031,8.7031,8.7031,8.7031,8.7031,8.7031,8.7031,8.7031,8.7031,8.7031,8.7031,8.7031,8.7031,8.7031,8.7031,8.7031,8.7031,8.7031,8.7031,8.7031,8.7031,8.6925,8.6571,8.588,8.4931,8.4452,8.3242,8.1535,8.1379,8.0966,8.0173,7.8991,7.801,7.7874,7.6657,7.5556,7.5064,7.4736,7.4106,7.2809,7.1605,7.028,6.8962,6.7153,6.5922,6.5144,6.4219,6.318,6.1459,5.9064,5.6956,5.5049,5.3784,5.2767,5.2124,5.1051,4.9362,9.6288,9.6288,9.6288,9.6288,9.6288,9.6288,9.6288,9.6288,9.6288,9.6288,9.6288,9.6288,9.6288,9.6288,9.6288,9.6288,9.6288,9.6288,9.6288,9.6288,9.6288,9.6288,9.6288,9.6288,9.6288,9.6288,9.6288,9.6288,9.6288,9.6288,9.6288,9.6288,9.6288,9.6288,9.6288,9.6288,9.6288,9.6172,9.6172,9.5788,9.5018,9.4095,9.3251,9.2409,9.0985,9.0073,9.0028,8.8856,8.8249,8.813,8.7489,8.6995,8.7132,8.6995,8.7031,8.7031,8.7031,8.7031,8.7031,8.7031,8.7031,8.7031,8.7031,8.7031,8.7031,8.7031,8.7031,8.7031,8.7031,8.7031,8.7031,8.7031,8.7031,8.7031,8.7031,8.7031,8.7031,8.7031,8.7031,8.6856,8.6174,8.4967,8.3755,8.2928,8.191,8.0804,8.0376,8.0308,7.9938,7.8855,7.8111,7.7671,7.6399,7.4935,7.424,7.3496,7.2599,7.1637,7.0424,6.917,6.8115,6.652,6.5922,6.5114,6.3565,6.241,5.9977,5.7624,5.5709,5.4055,5.3154,5.2263,5.1265,5.0079,4.8396,9.6288,9.6288,9.6288,9.6288,9.6288,9.6288,9.6288,9.6288,9.6288,9.6288,9.6288,9.6288,9.6288,9.6288,9.6288,9.6288,9.6288,9.6288,9.6288,9.6288,9.6288,9.6288,9.6288,9.6288,9.6288,9.6288,9.6288,9.6288,9.6288,9.6288,9.6288,9.6288,9.6288,9.6288,9.6288,9.6288,9.6288,9.6288,9.6288,9.6134,9.5749,9.4441,9.3371,9.2474,9.0523,8.9225,8.8746,8.8309,8.8107,8.8046,8.7394,8.7031,8.7031,8.7031,8.7031,8.7031,8.7031,8.7031,8.7031,8.7031,8.7031,8.7031,8.7031,8.7031,8.7031,8.7031,8.7031,8.7031,8.7031,8.7031,8.7031,8.7031,8.7031,8.7031,8.7031,8.7031,8.7031,8.7031,8.7031,8.6856,8.5991,8.4888,8.3706,8.2571,8.1379,8.0442,8.0209,8.0073,7.9464,7.8686,7.7773,7.7266,7.5668,7.4106,7.3154,7.2068,7.0838,7.0312,6.9317,6.8531,6.7457,6.6729,6.6101,6.4664,6.2998,6.094,5.8494,5.6493,5.4567,5.3589,5.2955,5.1828,5.058,4.9075,4.7286,9.6288,9.6288,9.6288,9.6288,9.6288,9.6288,9.6288,9.6288,9.6288,9.6288,9.6288,9.6288,9.6288,9.6288,9.6288,9.6288,9.6288,9.6288,9.6288,9.6288,9.6288,9.6288,9.6288,9.6288,9.6288,9.6288,9.6288,9.6288,9.6288,9.6288,9.6288,9.6288,9.6288,9.6288,9.6288,9.6288,9.6288,9.6288,9.6288,9.6174,9.5635,9.4214,9.3013,9.2043,8.9989,8.8635,8.8107,8.7836,8.7646,8.7618,8.7231,8.7031,8.7031,8.7031,8.7031,8.7031,8.7031,8.7031,8.7031,8.7031,8.7031,8.7031,8.7031,8.7031,8.7031,8.7031,8.7031,8.7031,8.7031,8.7031,8.7031,8.7031,8.7031,8.7031,8.7031,8.7031,8.7031,8.7031,8.6749,8.6247,8.5278,8.4289,8.3103,8.2003,8.1029,8.0376,8.0209,7.9938,7.9228,7.8483,7.7607,7.6438,7.4839,7.3389,7.1961,7.0648,6.9201,6.8766,6.8325,6.7759,6.7183,6.6909,6.6368,6.3901,6.1935,5.9486,5.7146,5.5393,5.37,5.3229,5.2511,5.1153,4.9677,4.8133,4.6476,9.6288,9.6288,9.6288,9.6288,9.6288,9.6288,9.6288,9.6288,9.6288,9.6288,9.6288,9.6288,9.6288,9.6288,9.6288,9.6288,9.6288,9.6288,9.6288,9.6288,9.6288,9.6288,9.6288,9.6288,9.6288,9.6288,9.6288,9.6288,9.6288,9.6288,9.6288,9.6288,9.6288,9.6288,9.6288,9.6288,9.6288,9.6288,9.6288,9.5942,9.5216,9.3638,9.2328,9.1491,8.9422,8.8107,8.7898,8.7394,8.7064,8.6995,8.6995,8.7031,8.7031,8.7031,8.7031,8.7031,8.7031,8.7031,8.7031,8.7031,8.7031,8.7031,8.7031,8.7031,8.7031,8.7031,8.7031,8.7031,8.7031,8.7031,8.7031,8.7031,8.7031,8.7031,8.7031,8.7031,8.7031,8.7031,8.6571,8.5544,8.437,8.3191,8.2244,8.1063,8.0476,8.0209,8.0175,7.9837,7.9058,7.8182,7.7044,7.5672,7.4229,7.2508,7.0965,6.9547,6.8206,6.7998,6.7668,6.7305,6.6757,6.6421,6.5996,6.3428,6.0724,5.8263,5.6425,5.5034,5.3633,5.2858,5.1776,5.018,4.8674,4.7091,4.5807,9.6288,9.6288,9.6288,9.6288,9.6288,9.6288,9.6288,9.6288,9.6288,9.6288,9.6288,9.6288,9.6288,9.6288,9.6288,9.6288,9.6288,9.6288,9.6288,9.6288,9.6288,9.6288,9.6288,9.6288,9.6288,9.6288,9.6288,9.6288,9.6288,9.6288,9.6288,9.6288,9.6288,9.6288,9.6288,9.6288,9.6288,9.6288,9.6288,9.5867,9.4905,9.3459,9.2053,9.0684,8.9007,8.7873,8.7394,8.7132,8.7031,8.7031,8.7031,8.7031,8.7031,8.7031,8.7031,8.7031,8.7031,8.7031,8.7031,8.7031,8.7031,8.7031,8.7031,8.7031,8.7031,8.7031,8.7031,8.7031,8.7031,8.7031,8.7031,8.7031,8.7031,8.7031,8.7031,8.7031,8.7031,8.6962,8.6571,8.5468,8.4289,8.3103,8.1875,8.0966,8.0209,8.0209,8.0073,7.9701,7.8754,7.7814,7.6676,7.5297,7.377,7.1804,7.0078,6.8505,6.7548,6.7335,6.7091,6.7091,6.6144,6.5287,6.4493,6.2974,6.0124,5.7438,5.6494,5.5503,5.4185,5.2427,5.1194,4.9686,4.7751,4.6111,4.5205,9.6288,9.6288,9.6288,9.6288,9.6288,9.6288,9.6288,9.6288,9.6288,9.6288,9.6288,9.6288,9.6288,9.6288,9.6288,9.6288,9.6288,9.6288,9.6288,9.6288,9.6288,9.6288,9.6288,9.6288,9.6288,9.6288,9.6288,9.6288,9.6288,9.6288,9.6288,9.6288,9.6288,9.6288,9.6288,9.6288,9.6288,9.6288,9.6212,9.5675,9.4108,9.2916,9.1303,8.9681,8.8244,8.7394,8.7064,8.7031,8.7031,8.7031,8.7031,8.7031,8.7031,8.7031,8.7031,8.7031,8.7031,8.7031,8.7031,8.7031,8.7031,8.7031,8.7031,8.7031,8.7031,8.7031,8.7031,8.7031,8.7031,8.7031,8.7031,8.7031,8.7031,8.7031,8.7031,8.7031,8.7031,8.6571,8.5806,8.4693,8.3621,8.2516,8.1379,8.0607,8.0276,8.0141,7.9837,7.916,7.828,7.7412,7.6105,7.4373,7.2497,7.0482,6.9123,6.7819,6.7061,6.6846,6.5358,6.5513,6.4959,6.3779,6.262,6.1163,5.8968,5.7118,5.6096,5.4895,5.325,5.1796,5.0537,4.8803,4.6826,4.4925,4.4033,9.6288,9.6288,9.6288,9.6288,9.6288,9.6288,9.6288,9.6288,9.6288,9.6288,9.6288,9.6288,9.6288,9.6288,9.6288,9.6288,9.6288,9.6288,9.6288,9.6288,9.6288,9.6288,9.6288,9.6288,9.6288,9.6288,9.6288,9.6288,9.6288,9.6288,9.6288,9.6288,9.6288,9.6288,9.6288,9.6288,9.6288,9.6212,9.5906,9.4849,9.3124,9.1884,9.0284,8.8673,8.7667,8.7132,8.6995,8.7031,8.7031,8.7031,8.7031,8.7031,8.7031,8.7031,8.7031,8.7031,8.7031,8.7031,8.7031,8.7031,8.7031,8.7031,8.7031,8.7031,8.7031,8.7031,8.7031,8.7031,8.7031,8.7031,8.7031,8.7031,8.7031,8.7031,8.7031,8.6995,8.6642,8.588,8.4852,8.3585,8.2481,8.1474,8.0607,8.0209,8.0175,7.9769,7.9364,7.8589,7.7447,7.6206,7.4609,7.2645,7.0784,6.8945,6.7998,6.7121,6.6723,6.6198,6.3866,6.3084,6.2821,6.183,6.0457,5.8876,5.7188,5.5878,5.4727,5.3497,5.203,5.048,4.883,4.7354,4.5553,4.3746,4.2582,9.6288,9.6288,9.6288,9.6288,9.6288,9.6288,9.6288,9.6288,9.6288,9.6288,9.6288,9.6288,9.6288,9.6288,9.6288,9.6288,9.6288,9.6288,9.6288,9.6288,9.6288,9.6288,9.6288,9.6288,9.6288,9.6288,9.6288,9.6288,9.6288,9.6288,9.6288,9.6288,9.6288,9.6288,9.6288,9.6288,9.6288,9.6059,9.5131,9.395,9.2527,9.0812,8.9346,8.8117,8.7372,8.7031,8.7031,8.7031,8.7031,8.7031,8.7031,8.7031,8.7031,8.7031,8.7031,8.7031,8.7031,8.7031,8.7031,8.7031,8.7031,8.7031,8.7031,8.7031,8.7031,8.7031,8.7031,8.7031,8.7031,8.7031,8.7031,8.7031,8.7031,8.7031,8.7031,8.6608,8.5806,8.5468,8.437,8.2928,8.206,8.1474,8.0376,8.0141,7.9904,7.9464,7.8623,7.7884,7.654,7.5025,7.3188,7.1168,6.9774,6.8206,6.7517,6.6446,6.5358,6.4567,6.2396,6.0648,6.0511,5.9797,5.8385,5.7112,5.5842,5.4671,5.4035,5.1699,5.0267,4.8671,4.7114,4.5412,4.3699,4.2122,4.0445,9.6288,9.6288,9.6288,9.6288,9.6288,9.6288,9.6288,9.6288,9.6288,9.6288,9.6288,9.6288,9.6288,9.6288,9.6288,9.6288,9.6288,9.6288,9.6288,9.6288,9.6288,9.6288,9.6288,9.6288,9.6288,9.6288,9.6288,9.6288,9.6288,9.6288,9.6288,9.6288,9.6288,9.6288,9.6288,9.6288,9.6057,9.5559,9.4547,9.3191,9.1583,9.0156,8.8678,8.7767,8.7231,8.7031,8.7031,8.7031,8.7031,8.7031,8.7031,8.7031,8.7031,8.7031,8.7031,8.7031,8.7031,8.7031,8.7031,8.7031,8.7031,8.7031,8.7031,8.7031,8.7031,8.7031,8.7031,8.7031,8.7031,8.7031,8.7031,8.7031,8.7031,8.7031,8.7031,8.632,8.4967,8.4532,8.3922,8.2244,8.1379,8.0868,8.0342,7.9938,7.96,7.9126,7.7044,7.6102,7.4977,7.3477,7.1807,7.0151,6.892,6.7759,6.7061,6.5764,6.3894,6.2529,6.0511,5.9043,5.8224,5.7343,5.6283,5.5605,5.4918,5.457,5.3576,5.1076,4.8662,4.7464,4.5979,4.3719,4.1936,4.0764,3.8545,9.6288,9.6288,9.6288,9.6288,9.6288,9.6288,9.6288,9.6288,9.6288,9.6288,9.6288,9.6288,9.6288,9.6288,9.6288,9.6288,9.6288,9.6288,9.6288,9.6288,9.6288,9.6288,9.6288,9.6288,9.6288,9.6288,9.6288,9.6288,9.6288,9.6288,9.6288,9.6288,9.6288,9.6288,9.6288,9.6249,9.579,9.4868,9.3791,9.2391,9.0524,8.9355,8.8137,8.7378,8.7064,8.7031,8.7031,8.7031,8.7031,8.7031,8.7031,8.7031,8.7031,8.7031,8.7031,8.7031,8.7031,8.7031,8.7031,8.7031,8.7031,8.7031,8.7031,8.7031,8.7031,8.7031,8.7031,8.7031,8.7031,8.7031,8.7031,8.7031,8.7031,8.6925,8.6925,8.5731,8.4207,8.3536,8.275,8.1723,8.0931,8.0408,7.9937,7.9566,7.9194,7.8454,7.634,7.4418,7.3347,7.2183,7.0658,6.9247,6.8059,6.6849,6.6014,6.3765,6.1997,6.0784,5.8763,5.7369,5.6118,5.5336,5.4745,5.4917,5.4393,5.3537,5.1631,4.8706,4.693,4.6264,4.4251,4.1751,4.0409,3.9395,3.6642,9.6288,9.6288,9.6288,9.6288,9.6288,9.6288,9.6288,9.6288,9.6288,9.6288,9.6288,9.6288,9.6288,9.6288,9.6288,9.6288,9.6288,9.6288,9.6288,9.6288,9.6288,9.6288,9.6288,9.6288,9.6288,9.6288,9.6288,9.6288,9.6288,9.6288,9.6288,9.6288,9.6288,9.6288,9.6288,9.6174,9.5444,9.4042,9.2813,9.1197,8.9622,8.8303,8.7489,8.7031,8.7031,8.7031,8.7031,8.7031,8.7031,8.7031,8.7031,8.7031,8.7031,8.7031,8.7031,8.7031,8.7031,8.7031,8.7031,8.7031,8.7031,8.7031,8.7031,8.7031,8.7031,8.7031,8.7031,8.7031,8.7031,8.7031,8.7031,8.7031,8.6925,8.6749,8.6138,8.5123,8.379,8.2769,8.1806,8.0697,8.0306,7.9972,7.9532,7.9025,7.8416,7.7612,7.5906,7.3914,7.2391,7.1314,6.9984,6.8623,6.7243,6.6014,6.4949,6.1864,5.9574,5.9156,5.7512,5.5751,5.4621,5.3852,5.3299,5.274,5.1631,5.0143,4.82,4.6144,4.4435,4.306,4.123,3.9564,3.7656,3.5934,3.3846,9.6288,9.6288,9.6288,9.6288,9.6288,9.6288,9.6288,9.6288,9.6288,9.6288,9.6288,9.6288,9.6288,9.6288,9.6288,9.6288,9.6288,9.6288,9.6288,9.6288,9.6288,9.6288,9.6288,9.6288,9.6288,9.6288,9.6288,9.6288,9.6288,9.6288,9.6288,9.6288,9.6288,9.6288,9.6134,9.5788,9.479,9.3289,9.1799,9.023,8.8777,8.7542,8.71,8.7031,8.7031,8.7031,8.7031,8.7031,8.7031,8.7031,8.7031,8.7031,8.7031,8.7031,8.7031,8.7031,8.7031,8.7031,8.7031,8.7031,8.7031,8.7031,8.7031,8.7031,8.7031,8.7031,8.7031,8.7031,8.7031,8.7031,8.7031,8.7031,8.6749,8.6174,8.5508,8.4497,8.305,8.1952,8.0768,7.9799,7.9564,7.9329,7.916,7.8517,7.7705,7.6539,7.5272,7.3443,7.142,7.0312,6.9201,6.7668,6.6044,6.4567,6.3215,6.0648,5.7914,5.7082,5.6214,5.4473,5.2798,5.1708,5.0452,4.9383,4.8114,4.6957,4.5738,4.4072,4.1952,4.0018,3.885,3.733,3.4735,3.2484,3.0534,9.6288,9.6288,9.6288,9.6288,9.6288,9.6288,9.6288,9.6288,9.6288,9.6288,9.6288,9.6288,9.6288,9.6288,9.6288,9.6288,9.6288,9.6288,9.6288,9.6288,9.6288,9.6288,9.6288,9.6288,9.6288,9.6288,9.6288,9.6288,9.6288,9.6288,9.6288,9.6288,9.6288,9.6134,9.5865,9.5403,9.406,9.2391,9.1105,8.9573,8.8109,8.7328,8.7031,8.7031,8.7031,8.7031,8.7031,8.7031,8.7031,8.7031,8.7031,8.7031,8.7031,8.7031,8.7031,8.7031,8.7031,8.7031,8.7031,8.7031,8.7031,8.7031,8.7031,8.7031,8.7031,8.7031,8.7031,8.7031,8.7031,8.7031,8.7031,8.7031,8.6428,8.5583,8.4901,8.3967,8.2136,8.0835,7.9857,7.9084,7.8853,7.8551,7.8148,7.7212,7.6274,7.5238,7.3858,7.2359,7.0504,6.9401,6.8176,6.6451,6.4822,6.2953,6.1326,5.9574,5.7082,5.5483,5.4573,5.31,5.1093,4.9227,4.8122,4.6846,4.5434,4.435,4.3089,4.1782,3.9706,3.793,3.6969,3.4719,3.1558,2.9601,2.818,9.6288,9.6288,9.6288,9.6288,9.6288,9.6288,9.6288,9.6288,9.6288,9.6288,9.6288,9.6288,9.6288,9.6288,9.6288,9.6288,9.6288,9.6288,9.6288,9.6288,9.6288,9.6288,9.6288,9.6288,9.6288,9.6288,9.6288,9.6288,9.6288,9.6288,9.6288,9.6288,9.6172,9.598,9.5326,9.4864,9.3472,9.123,9.0457,8.929,8.7571,8.7132,8.7031,8.7031,8.7031,8.7031,8.7031,8.7031,8.7031,8.7031,8.7031,8.7031,8.7031,8.7031,8.7031,8.7031,8.7031,8.7031,8.7031,8.7031,8.7031,8.7031,8.7031,8.7031,8.7031,8.7031,8.7031,8.7031,8.7031,8.7031,8.6995,8.6958,8.6392,8.5066,8.3772,8.2531,8.0949,7.9514,7.8599,7.8133,7.7773,7.7337,7.6901,7.5739,7.4695,7.3684,7.2559,7.1091,6.96,6.8352,6.7185,6.558,6.3346,6.1461,6.0264,5.8366,5.6359,5.4175,5.2949,5.1708,4.9518,4.7486,4.5879,4.4618,4.3322,4.1621,3.9964,3.8542,3.7196,3.5681,3.418,3.1203,2.7653,2.6387,2.5275,9.6288,9.6288,9.6288,9.6288,9.6288,9.6288,9.6288,9.6288,9.6288,9.6288,9.6288,9.6288,9.6288,9.6288,9.6288,9.6288,9.6288,9.6288,9.6288,9.6288,9.6288,9.6288,9.6288,9.6288,9.6288,9.6288,9.6288,9.6288,9.6288,9.6249,9.6288,9.6172,9.5826,9.5403,9.4749,9.4172,9.2584,9.065,8.9232,8.8233,8.7628,8.7231,8.7031,8.7031,8.7031,8.7031,8.7031,8.7031,8.7031,8.7031,8.7031,8.7031,8.7031,8.7031,8.7031,8.7031,8.7031,8.7031,8.7031,8.7031,8.7031,8.7031,8.7031,8.7031,8.7031,8.7031,8.7031,8.7031,8.7031,8.6995,8.6848,8.6591,8.5299,8.399,8.2572,8.0998,7.9672,7.8408,7.7397,7.7063,7.6695,7.6167,7.5438,7.4364,7.3508,7.2965,7.1637,6.9973,6.8439,6.6973,6.5926,6.4793,6.2264,5.9851,5.8903,5.7681,5.5629,5.3576,5.1555,5.0142,4.7804,4.592,4.4271,4.2787,4.1602,3.9547,3.7313,3.5476,3.3823,3.2515,3.1231,2.836,2.5491,2.2546,2.1248,9.6288,9.6288,9.6288,9.6288,9.6288,9.6288,9.6288,9.6288,9.6288,9.6288,9.6288,9.6288,9.6288,9.6288,9.6288,9.6288,9.6288,9.6288,9.6288,9.6288,9.6288,9.6288,9.6288,9.6288,9.6288,9.6288,9.6288,9.6134,9.5942,9.5942,9.5865,9.5942,9.5403,9.4711,9.4172,9.3368,9.2018,8.9815,8.8058,8.7431,8.7489,8.7231,8.7064,8.7031,8.7031,8.7031,8.7031,8.7031,8.7031,8.7031,8.7031,8.7031,8.7031,8.7031,8.7031,8.7031,8.7031,8.7031,8.7031,8.7031,8.7031,8.7031,8.7031,8.7031,8.7031,8.7031,8.7031,8.7031,8.6701,8.6701,8.6449,8.5793,8.4169,8.2656,8.1211,7.9554,7.8177,7.7318,7.656,7.6227,7.5796,7.4872,7.407,7.3012,7.2314,7.2068,7.0727,6.9085,6.7517,6.5896,6.448,6.3476,6.1326,5.8903,5.7538,5.641,5.4621,5.2798,5.0762,4.8597,4.6244,4.4271,4.2436,4.11,3.9734,3.7501,3.5083,3.2836,3.0803,2.97,2.8373,2.6375,2.3656,2.0529,1.8144,9.6288,9.6288,9.6288,9.6288,9.6288,9.6288,9.6288,9.6288,9.6288,9.6288,9.6288,9.6288,9.6288,9.6288,9.6288,9.6288,9.6288,9.6288,9.6288,9.6288,9.6288,9.6288,9.6288,9.6288,9.6249,9.6172,9.6095,9.5672,9.5249,9.5095,9.5057,9.5018,9.4634,9.3864,9.3138,9.2488,9.0979,8.9008,8.7439,8.7132,8.7231,8.7132,8.7031,8.7031,8.7031,8.7031,8.7031,8.7031,8.7031,8.7031,8.7031,8.7031,8.7031,8.7031,8.7031,8.7031,8.7031,8.7031,8.7031,8.7031,8.7031,8.7031,8.7031,8.6958,8.6811,8.6921,8.6995,8.6738,8.6151,8.5825,8.5325,8.4318,8.285,8.1307,7.9861,7.8577,7.7358,7.6544,7.5918,7.5523,7.4803,7.3904,7.2599,7.1497,7.0949,7.0727,6.9485,6.7759,6.6574,6.5047,6.3448,6.1864,6.0127,5.8224,5.6435,5.4819,5.3251,5.1071,4.9047,4.6867,4.4658,4.2659,4.11,3.9225,3.7673,3.5273,3.3189,3.1324,2.9343,2.7435,2.5491,2.3289,2.1093,1.8152,1.6696,9.6288,9.6288,9.6288,9.6288,9.6288,9.6288,9.6288,9.6288,9.6288,9.6288,9.6288,9.6288,9.6288,9.6288,9.6288,9.6288,9.6288,9.6288,9.6288,9.6288,9.6288,9.6288,9.6288,9.6172,9.6057,9.5634,9.5441,9.5057,9.4249,9.421,9.3787,9.3633,9.3557,9.3172,9.2484,9.1329,8.9505,8.818,8.7301,8.7163,8.7554,8.7163,8.7031,8.7031,8.7031,8.7031,8.7031,8.7031,8.7031,8.7031,8.7031,8.7031,8.7031,8.7031,8.7031,8.7031,8.7031,8.7031,8.7031,8.7031,8.7031,8.7031,8.6995,8.6811,8.6371,8.6261,8.593,8.56,8.5238,8.4808,8.3955,8.2938,8.1686,7.9985,7.8622,7.7377,7.6616,7.5906,7.5194,7.477,7.3904,7.2914,7.1497,6.9973,6.9631,6.9201,6.7848,6.657,6.5513,6.3894,6.2131,6.0347,5.8596,5.6743,5.4942,5.3401,5.1685,4.9518,4.7347,4.5758,4.3856,4.1788,4.0072,3.8032,3.5793,3.3365,3.1437,2.9998,2.8205,2.6218,2.3289,2.0159,1.7965,1.5946,1.5605,9.6288,9.6288,9.6288,9.6288,9.6288,9.6288,9.6288,9.6288,9.6288,9.6288,9.6288,9.6288,9.6288,9.6288,9.6288,9.6288,9.6288,9.6288,9.6288,9.6288,9.6288,9.6134,9.5942,9.5672,9.5288,9.4749,9.4518,9.4172,9.3364,9.3364,9.2864,9.2402,9.2133,9.2095,9.1644,9.0205,8.8394,8.7313,8.7064,8.7231,8.7618,8.7298,8.7031,8.7031,8.7031,8.7031,8.7031,8.7031,8.7031,8.7031,8.7031,8.7031,8.7031,8.7031,8.7031,8.7031,8.6995,8.6995,8.6995,8.7031,8.6885,8.6591,8.6591,8.6151,8.5673,8.5453,8.5196,8.4762,8.4222,8.3407,8.2461,8.1246,7.9994,7.8346,7.7478,7.6377,7.6224,7.5614,7.4736,7.4073,7.3018,7.1929,7.0392,6.8969,6.8413,6.7907,6.6574,6.5513,6.4694,6.2821,6.0648,5.885,5.6912,5.5164,5.3401,5.1378,4.9361,4.8417,4.6384,4.5291,4.3487,4.1267,3.9225,3.733,3.4925,3.1791,2.9475,2.7292,2.6206,2.5127,2.1452,1.7584,1.6876,1.5416,1.5444,9.6288,9.6288,9.6288,9.6288,9.6288,9.6288,9.6288,9.6288,9.6288,9.6288,9.6288,9.6288,9.6288,9.6288,9.6288,9.6211,9.6095,9.6134,9.6057,9.5903,9.5901,9.567,9.5134,9.4711,9.4326,9.3864,9.3672,9.3326,9.2518,9.2518,9.2018,9.1559,9.137,9.1256,9.1103,8.9839,8.8425,8.725,8.7062,8.709,8.7132,8.7064,8.7031,8.7031,8.7031,8.7031,8.7031,8.7031,8.7031,8.7031,8.7031,8.7031,8.7031,8.7031,8.7031,8.7031,8.6958,8.6921,8.6921,8.6958,8.6481,8.5967,8.5894,8.5527,8.4903,8.4646,8.4327,8.3715,8.2863,8.1997,8.0775,7.9468,7.8221,7.7244,7.6392,7.602,7.5771,7.5161,7.4306,7.3018,7.1929,7.0838,6.9401,6.8087,6.7427,6.654,6.5232,6.4281,6.3606,6.1864,5.9574,5.7629,5.5776,5.3953,5.2014,4.9047,4.7166,4.6384,4.5251,4.3797,4.1788,3.9225,3.7518,3.6313,3.3145,2.9475,2.6942,2.4387,2.3106,2.1452,1.8693,1.5744,1.5221,1.4676,1.4115,9.6288,9.6288,9.6288,9.6288,9.6288,9.6288,9.6288,9.6288,9.6288,9.6288,9.6288,9.6288,9.6288,9.6288,9.6172,9.598,9.5516,9.5403,9.5288,9.4672,9.5016,9.4708,9.4172,9.3672,9.3287,9.3018,9.2826,9.2479,9.1633,9.171,9.1595,9.1175,9.0646,9.0411,9.0126,8.9373,8.8408,8.7264,8.6988,8.7031,8.7031,8.7031,8.7031,8.7031,8.7031,8.7031,8.7031,8.7031,8.7031,8.7031,8.7031,8.7031,8.7031,8.7031,8.6995,8.6848,8.6628,8.593,8.56,8.538,8.5306,8.5123,8.5159,8.4866,8.4022,8.4022,8.3349,8.2354,8.1599,8.0422,7.8741,7.8202,7.7229,7.6392,7.5771,7.5771,7.5484,7.4604,7.3533,7.2036,7.0838,6.9516,6.8087,6.7215,6.6417,6.5358,6.4153,6.3084,6.2264,6.0648,5.8648,5.6794,5.4942,5.2925,5.0785,4.7963,4.592,4.5128,4.3448,4.1602,3.9395,3.769,3.5604,3.4211,3.0684,2.6966,2.4751,2.2556,1.9789,1.7584,1.5931,1.5208,1.5242,1.353,1.1426,9.6288,9.6288,9.6288,9.6288,9.6288,9.6288,9.6288,9.6288,9.6288,9.6288,9.6288,9.6288,9.6095,9.5942,9.5788,9.5365,9.4593,9.4518,9.4441,9.3749,9.4093,9.3862,9.3287,9.2672,9.2287,9.2095,9.2018,9.171,9.1325,9.121,9.1026,9.0684,9.0116,8.9545,8.9213,8.8689,8.8143,8.7238,8.6985,8.7031,8.7031,8.7031,8.7031,8.7031,8.7031,8.7031,8.7031,8.7031,8.7031,8.7031,8.7031,8.7031,8.7031,8.6995,8.6885,8.6481,8.582,8.5049,8.4462,8.4278,8.4132,8.3728,8.4382,8.4058,8.3287,8.3104,8.2235,8.1308,8.0402,7.9063,7.7771,7.7248,7.6508,7.5676,7.5676,7.5676,7.5258,7.4406,7.305,7.1529,6.9973,6.8531,6.7061,6.6263,6.5484,6.4281,6.3187,6.1997,6.092,5.9322,5.7512,5.5629,5.3552,5.1401,4.9204,4.6867,4.5128,4.3856,4.1974,4.009,3.8885,3.733,3.4735,3.1926,2.8898,2.5855,2.3096,2.0529,1.7965,1.6501,1.5584,1.5235,1.5073,1.3548,1.1441,9.6288,9.6288,9.6288,9.6288,9.6288,9.6288,9.6288,9.6288,9.6288,9.6249,9.6211,9.6134,9.5711,9.5058,9.498,9.4441,9.3787,9.371,9.3518,9.3403,9.3323,9.2903,9.2402,9.1748,9.1556,9.1364,9.1325,9.1441,9.121,9.0989,9.0646,9.0073,8.9426,8.8764,8.833,8.7972,8.7635,8.7151,8.7022,8.7031,8.7031,8.7031,8.7031,8.7031,8.7031,8.7031,8.7031,8.7031,8.7031,8.7031,8.7031,8.7031,8.6995,8.6995,8.6444,8.5747,8.4903,8.4205,8.3544,8.3398,8.3141,8.281,8.3104,8.281,8.2524,8.2172,8.1269,8.0364,7.9458,7.8376,7.7336,7.6599,7.5926,7.5676,7.5676,7.5484,7.5194,7.4139,7.2769,7.1233,6.9662,6.8176,6.6634,6.5513,6.4438,6.2661,6.1326,6.0127,5.9043,5.7966,5.6118,5.4102,5.2014,4.9674,4.7486,4.5758,4.3962,4.2659,4.095,3.9055,3.8015,3.5934,3.2793,2.9793,2.746,2.4376,2.0705,1.8152,1.6133,1.5221,1.5242,1.5276,1.5113,1.4937,1.2433,9.6288,9.6288,9.6288,9.6288,9.6288,9.6288,9.6288,9.6288,9.6288,9.6019,9.5365,9.5365,9.4866,9.4099,9.4095,9.3518,9.3095,9.2749,9.2364,9.2249,9.2172,9.1825,9.1556,9.1364,9.121,9.121,9.121,9.121,9.1026,9.08,9.0116,8.9426,8.8856,8.813,8.7646,8.7328,8.7163,8.7064,8.7031,8.7031,8.7031,8.7031,8.7031,8.7031,8.7031,8.7031,8.7031,8.7031,8.7031,8.7031,8.7031,8.7031,8.6995,8.6444,8.5673,8.4278,8.3765,8.3398,8.2737,8.2553,8.2443,8.2296,8.248,8.2406,8.2018,8.1328,8.0406,7.9465,7.8623,7.765,7.6768,7.6011,7.554,7.5506,7.5377,7.5056,7.4636,7.3727,7.2219,7.0118,6.8531,6.7306,6.5764,6.4694,6.3476,6.1326,5.9574,5.8366,5.7251,5.6289,5.4794,5.2774,5.0762,4.8597,4.6867,4.5128,4.3118,4.1453,3.9395,3.733,3.5446,3.3174,3.0355,2.7279,2.4,2.0705,1.7211,1.557,1.5228,1.5262,1.5282,1.512,1.495,1.2824,0.9547,9.6288,9.6288,9.6288,9.6288,9.6249,9.5942,9.5788,9.5788,9.5788,9.5441,9.498,9.4634,9.402,9.3328,9.321,9.2787,9.2018,9.1941,9.1748,9.1518,9.121,9.1248,9.121,9.121,9.121,9.121,9.121,9.121,9.0989,9.0488,8.9855,8.9573,8.8673,8.7923,8.7554,8.7298,8.7064,8.7031,8.7031,8.7031,8.7031,8.7031,8.7031,8.7031,8.7031,8.7031,8.7031,8.7031,8.7031,8.7031,8.7031,8.6811,8.6407,8.549,8.4719,8.3508,8.3067,8.281,8.237,8.226,8.2223,8.2186,8.2186,8.1885,8.1474,8.0802,7.9696,7.8541,7.7822,7.6982,7.6129,7.5473,7.5337,7.5236,7.4916,7.4594,7.3871,7.3054,7.1187,6.8828,6.7366,6.6233,6.5105,6.4024,6.2396,6.0264,5.8507,5.7421,5.6264,5.5238,5.3576,5.1555,4.9674,4.7645,4.6061,4.4126,4.2269,3.9903,3.733,3.5273,3.3028,3.0342,2.7279,2.3634,2.0159,1.7406,1.557,1.541,1.5255,1.5093,1.2589,0.8759,0.6856,0.4954,0.0952,9.6288,9.6288,9.6211,9.6095,9.6057,9.5326,9.4941,9.4864,9.4788,9.4788,9.4557,9.3941,9.3172,9.2482,9.2364,9.2018,9.1556,9.1402,9.1402,9.121,9.121,9.121,9.121,9.121,9.121,9.121,9.121,9.121,9.0989,9.0488,9.0073,8.999,8.8746,8.7985,8.7898,8.7298,8.6995,8.7031,8.7031,8.7031,8.7031,8.7031,8.7031,8.7031,8.7031,8.7031,8.7031,8.7031,8.7031,8.7031,8.6811,8.6444,8.5306,8.4462,8.3691,8.3177,8.2663,8.2406,8.2223,8.2186,8.2186,8.2186,8.2121,8.1259,8.0515,8.0258,7.9187,7.7642,7.6779,7.5982,7.5179,7.4695,7.4559,7.4303,7.3984,7.3142,7.2069,7.1144,6.9579,6.7637,6.651,6.5358,6.3606,6.2529,6.0784,5.8789,5.7564,5.6631,5.5115,5.4025,5.2471,5.0475,4.8755,4.6867,4.4782,4.2806,4.1081,3.8527,3.5777,3.2984,3.0876,2.7628,2.4011,2.1083,1.8321,1.6688,1.5228,1.4285,1.3536,1.3957,0.9919,0.228,-0.1141,-0.2666,-0.3998,9.6288,9.6211,9.5595,9.5326,9.5249,9.4901,9.4403,9.398,9.3557,9.3287,9.3056,9.2826,9.2364,9.171,9.1633,9.1402,9.1287,9.121,9.121,9.121,9.121,9.121,9.121,9.121,9.121,9.121,9.121,9.121,9.1026,9.0528,9.0035,8.9946,8.8856,8.8227,8.8046,8.7394,8.7031,8.7031,8.7031,8.7031,8.7031,8.7031,8.7031,8.7031,8.7031,8.7031,8.7031,8.7031,8.7031,8.6995,8.6371,8.538,8.4058,8.3618,8.3104,8.259,8.2333,8.2223,8.2186,8.215,8.2047,8.1812,8.1328,7.9972,7.9303,7.9358,7.8574,7.6937,7.5729,7.498,7.4314,7.4077,7.3654,7.3245,7.283,7.1555,7.0299,6.8987,6.7722,6.6792,6.5801,6.4281,6.2557,6.0784,5.8903,5.7707,5.6895,5.5729,5.3876,5.2494,5.1401,4.954,4.8122,4.6061,4.3797,4.1453,3.9395,3.7141,3.4386,3.1572,2.854,2.49,2.1258,1.9604,1.7398,1.596,1.4084,1.1217,1.0853,1.1077,0.3993,-0.5135,-0.8379,-1.0108,-0.9332,9.6057,9.5634,9.4788,9.4441,9.4326,9.4016,9.3557,9.3095,9.2441,9.2056,9.1941,9.1902,9.1633,9.121,9.121,9.121,9.121,9.121,9.121,9.121,9.121,9.121,9.121,9.121,9.121,9.121,9.121,9.1136,9.11,9.0876,9.0488,9.0028,8.9016,8.8367,8.8107,8.746,8.7031,8.7031,8.7031,8.7031,8.7031,8.7031,8.7031,8.7031,8.7031,8.7031,8.7031,8.7031,8.7031,8.6628,8.593,8.4829,8.3728,8.3067,8.2663,8.237,8.2223,8.2186,8.2186,8.2047,8.1769,8.1146,8.0545,7.9248,7.7062,7.6947,7.6447,7.5077,7.4662,7.3976,7.3772,7.3443,7.2479,7.1837,7.1388,7.0466,6.9052,6.7588,6.6791,6.6221,6.5228,6.3894,6.2131,6.0401,5.8507,5.7014,5.6219,5.5115,5.3251,5.0939,4.983,4.8259,4.6524,4.4558,4.2103,3.9752,3.769,3.5257,3.2999,2.8309,2.4354,2.1433,1.8685,1.7406,1.6501,1.5793,1.3524,1.0654,0.704,0.6104,-0.3046,-1.3792,-1.514,-1.5492,-1.4279,9.548,9.4749,9.3903,9.3557,9.3441,9.2903,9.2556,9.2249,9.1556,9.1248,9.1287,9.1287,9.121,9.121,9.121,9.121,9.121,9.121,9.121,9.121,9.121,9.121,9.121,9.121,9.121,9.121,9.121,9.121,9.1136,9.0876,9.0447,9.0028,8.9377,8.8673,8.8046,8.746,8.7031,8.7031,8.7031,8.7031,8.7031,8.7031,8.7031,8.7031,8.7031,8.7031,8.7031,8.7031,8.7031,8.6224,8.5306,8.4132,8.3324,8.2627,8.2443,8.2186,8.2186,8.2186,8.2084,8.1732,8.0891,8.004,7.9396,7.7896,7.5624,7.4636,7.4233,7.3809,7.339,7.3206,7.3003,7.2549,7.1493,7.027,6.9746,6.8968,6.7433,6.63,6.5981,6.559,6.4522,6.3261,6.173,5.9989,5.825,5.675,5.5435,5.4348,5.2798,5.0142,4.828,4.6504,4.4415,4.2436,4.0596,3.8545,3.6485,3.3861,3.104,2.5241,2.052,1.8685,1.7219,1.6126,1.5221,1.5066,1.3542,1.1052,0.7052,0.0381,-0.6853,-1.5309,-1.5478,-1.5821,-1.7086,9.4134,9.3897,9.3092,9.271,9.2633,9.1902,9.1479,9.1441,9.1325,9.121,9.121,9.121,9.121,9.121,9.121,9.121,9.121,9.121,9.121,9.121,9.121,9.121,9.121,9.121,9.121,9.121,9.121,9.121,9.0952,9.0566,9.0241,8.9901,8.8746,8.8249,8.8046,8.746,8.7031,8.7031,8.7031,8.7031,8.7031,8.7031,8.7031,8.7031,8.7031,8.7031,8.7031,8.7031,8.6628,8.5783,8.4609,8.3471,8.2774,8.237,8.2223,8.2186,8.2186,8.2076,8.1901,8.0995,7.9897,7.8927,7.7944,7.5906,7.4239,7.3303,7.2846,7.2361,7.2124,7.2225,7.209,7.1705,7.0817,6.8928,6.7856,6.6493,6.4964,6.5169,6.5353,6.4552,6.3536,6.2492,6.1461,5.9462,5.7159,5.5754,5.4646,5.3401,5.1401,4.9047,4.6867,4.4578,4.264,4.1435,4.0259,3.7861,3.562,3.2632,2.9065,2.343,1.9419,1.7025,1.5744,1.5403,1.5046,1.4695,1.2974,0.7416,-0.019,-0.7236,-1.0848,-1.5262,-1.5807,-1.6718,-1.816]},{"header":{"parameterUnit":"m.s-1","parameterCategory":1,"la1":31.0,"la2":29.5877,"lo1":-88.7671,"lo2":-86.6584,"dy":0.0162,"dx":0.0185,"nx":115,"ny":88,"refTime":"2023-03-14T06:00:00:Z","depth":0,"parameterNumber":3,"parameterNumberName":"V-component_of_WINDS"},"data":[0.0,0.0,0.0,0.0,0.0,0.0,0.0,0.0,0.0,0.0,0.0,0.0,0.0,0.0,0.0,0.0,0.0,0.0,0.0,0.0,0.0,0.0,0.0,0.0,0.0,0.0,0.0,0.0,0.0,0.0,0.0,0.0,0.0,0.0,0.0,0.0,0.0,0.0,0.0,0.0,0.0,0.0,0.0,0.0,0.0,0.0,0.0,0.0,0.0,0.0,0.0,0.0,0.0,0.0,0.0,0.0,0.0,0.0,0.0,0.0,0.0,0.0,0.0,0.0,0.0,0.0,0.0,0.0,0.0,0.0,0.0,0.0,0.0,0.0,0.0,0.0,0.0,0.0,0.0,0.0,0.0,0.0,0.0,0.0,0.0,0.0,0.0,0.0,0.0,0.0,0.0,0.0,0.0,0.0,0.0,0.0,0.0,0.0,0.0,0.0,0.0,0.0,0.0,0.0,0.0,0.0,0.0,0.0,0.0,0.0,0.0,0.0,0.0,0.0,0.0,0.0,0.0,0.0,0.0,0.0,0.0,0.0,0.0,0.0,0.0,0.0,0.0,0.0,0.0,0.0,0.0,0.0,0.0,0.0,0.0,0.0,0.0,0.0,0.0,0.0,0.0,0.0,0.0,0.0,0.0,0.0,0.0,0.0,0.0,0.0,0.0,0.0,0.0,0.0,0.0,0.0,0.0,0.0,0.0,0.0,0.0,0.0,0.0,0.0,0.0,0.0,0.0,0.0,0.0,0.0,0.0,0.0,0.0,0.0,0.0,0.0,0.0,0.0,0.0,0.0,0.0,0.0,0.0,0.0,0.0,0.0,0.0,0.0,0.0,0.0,0.0,0.0,0.0,0.0,0.0,0.0,0.0,0.0,0.0,0.0,0.0,0.0,0.0,0.0,0.0,0.0,0.0,0.0,0.0,0.0,0.0,0.0,0.0,0.0,0.0,0.0,0.0,0.0,0.0,0.0,0.0,0.0,0.0,0.0,0.0,0.0,0.0,0.0,0.0,0.0,0.0,0.0,0.0,0.0,0.0,0.0,0.0,0.0,0.0,0.0,0.0,0.0,0.0,0.0,0.0,0.0,0.0,0.0,0.0,0.0,0.0,0.0,0.0,0.0,0.0,0.0,0.0,0.0,0.0,0.0,0.0,0.0,0.0,0.0,0.0,0.0,0.0,0.0,0.0,0.0,0.0,0.0,0.0,0.0,0.0,0.0,0.0,0.0,0.0,0.0,0.0,0.0,0.0,0.0,0.0,0.0,0.0,0.0,0.0,0.0,0.0,0.0,0.0,0.0,0.0,0.0,0.0,0.0,0.0,0.0,0.0,0.0,0.0,0.0,0.0,0.0,0.0,0.0,0.0,0.0,0.0,0.0,0.0,0.0,0.0,0.0,0.0,0.0,0.0,0.0,0.0,0.0,0.0,0.0,0.0,0.0,0.0,0.0,0.0,0.0,0.0,0.0,0.0,0.0,0.0,0.0,0.0,0.0,0.0,0.0,0.0,0.0,0.0,0.0,0.0,0.0,0.0,0.0,0.0,0.0,0.0,0.0,0.0,0.0,0.0,0.0,0.0,0.0,0.0,0.0,0.0,0.0,0.0,0.0,0.0,0.0,0.0,0.0,0.0,0.0,0.0,0.0,0.0,0.0,0.0,0.0,0.0,0.0,0.0,0.0,0.0,0.0,0.0,0.0,0.0,0.0,0.0,0.0,0.0,0.0,0.0,0.0,0.0,0.0,0.0,0.0,0.0,0.0,0.0,0.0,0.0,0.0,0.0,0.0,0.0,0.0,0.0,0.0,0.0,0.0,0.0,0.0,0.0,0.0,0.0,0.0,0.0,0.0,0.0,0.0,0.0,0.0,0.0,0.0,0.0,0.0,0.0,0.0,0.0,0.0,0.0,0.0,0.0,0.0,0.0,0.0,0.0,0.0,0.0,0.0,0.0,0.0,0.0,0.0,0.0,0.0,0.0,0.0,0.0,0.0,0.0,0.0,0.0,0.0,0.0,0.0,0.0,0.0,0.0,0.0,0.0,0.0,0.0,0.0,0.0,0.0,0.0,0.0,0.0,0.0,0.0,0.0,0.0,0.0,0.0,0.0,0.0,0.0,0.0,0.0,0.0,0.0,0.0,0.0,0.0,0.0,0.0,0.0,0.0,0.0,0.0,0.0,0.0,0.0,0.0,0.0,0.0,0.0,0.0,0.0,0.0,0.0,0.0,0.0,0.0,0.0,0.0,0.0,0.0,0.0,0.0,0.0,0.0,0.0,0.0,0.0,0.0,0.0,0.0,0.0,0.0,0.0,0.0,0.0,0.0,0.0,0.0,0.0,0.0,0.0,0.0,0.0,0.0,0.0,0.0,0.0,0.0,0.0,0.0,0.0,0.0,0.0,0.0,0.0,0.0,0.0,0.0,0.0,0.0,0.0,0.0,0.0,0.0,0.0,0.0,0.0,0.0,0.0,0.0,0.0,0.0,0.0,0.0,0.0,0.0,0.0,0.0,0.0,0.0,0.0,0.0,0.0,0.0,0.0,0.0,0.0,0.0,0.0,0.0,0.0,0.0,0.0,0.0,0.0,0.0,0.0,0.0,0.0,0.0,0.0,0.0,0.0,0.0,0.0,0.0,0.0,0.0,0.0,0.0,0.0,0.0,0.0,0.0,0.0,0.0,0.0,0.0,0.0,0.0,0.0,0.0,0.0,0.0,0.0,0.0,0.0,0.0,0.0,0.0,0.0,0.0,0.0,0.0,0.0,0.0,0.0,0.0,0.0,0.0,0.0,0.0,0.0,0.0,0.0,0.0,0.0,0.0,0.0,0.0,0.0,0.0,0.0,0.0,0.0,0.0,0.0,0.0,0.0,0.0,0.0,0.0,0.0,0.0,0.0,0.0,0.0,0.0,0.0,0.0,0.0,0.0,0.0,0.0,0.0,0.0,0.0,0.0,0.0,0.0,0.0,0.0,0.0,0.0,0.0,0.0,0.0,0.0,0.0,0.0,0.0,0.0,0.0,0.0,0.0,0.0,0.0,0.0,0.0,0.0,0.0,0.0,0.0,0.0,0.0,0.0,0.0,0.0,0.0,0.0,0.0,0.0,0.0,0.0,0.0,0.0,0.0,0.0,0.0,0.0,0.0,0.0,0.0,0.0,0.0,0.0,0.0,0.0,0.0,0.0,0.0,0.0,0.0,0.0,0.0,0.0,0.0,0.0,0.0,0.0,0.0,0.0,0.0,0.0,0.0,0.0,0.0,0.0,0.0,0.0,0.0,0.0,0.0,0.0,0.0,0.0,0.0,0.0,0.0,0.0,0.0,0.0,0.0,0.0,0.0,0.0,0.0,0.0,0.0,0.0,0.0,0.0,0.0,0.0,0.0,0.0,0.0,0.0,0.0,0.0,0.0,0.0,0.0,0.0,0.0,0.0,0.0,0.0,0.0,0.0,0.0,0.0,0.0,0.0,0.0,0.0,0.0,0.0,0.0,0.0,0.0,0.0,0.0,0.0,0.0,0.0,0.0,0.0,0.0,0.0,0.0,0.0,0.0,0.0,0.0,0.0,0.0,0.0,0.0,0.0,0.0,0.0,0.0,0.0,0.0,0.0,0.0,0.0,0.0,0.0,0.0,0.0,0.0,0.0,0.0,0.0,0.0,0.0,0.0,0.0,0.0,0.0,0.0,0.0,0.0,0.0,0.0,0.0,0.0,0.0,0.0,0.0,0.0,0.0,0.0,0.0,0.0,0.0,0.0,0.0,0.0,0.0,0.0,0.0,0.0,0.0,0.0,0.0,0.0,0.0,0.0,0.0,0.0,0.0,0.0,0.0,0.0,0.0,0.0,0.0,0.0,0.0,0.0,0.0,0.0,0.0,0.0,0.0,0.0,0.0,0.0,0.0,0.0,0.0,0.0,0.0,0.0,0.0,0.0,0.0,0.0,0.0,0.0,0.0,0.0,0.0,0.0,0.0,0.0,0.0,0.0,0.0,0.0,0.0,0.0,0.0,0.0,0.0,0.0,0.0,0.0,0.0,0.0,0.0,0.0,0.0,0.0,0.0,0.0,0.0,0.0,0.0,0.0,0.0,0.0,0.0,0.0,0.0,0.0,0.0,0.0,0.0,0.0,0.0,0.0,0.0,0.0,0.0,0.0,0.0,0.0,0.0,0.0,0.0,0.0,0.0,0.0,0.0,0.0,0.0,0.0,0.0,0.0,0.0,0.0,0.0,0.0,0.0,0.0,0.0,0.0,0.0,0.0,0.0,0.0,0.0,0.0,-2.163,0.0,0.0,0.0,0.0,0.0,0.0,0.0,0.0,0.0,0.0,0.0,0.0,0.0,0.0,0.0,0.0,0.0,0.0,0.0,0.0,0.0,0.0,0.0,0.0,0.0,0.0,0.0,0.0,0.0,0.0,0.0,0.0,0.0,0.0,0.0,0.0,0.0,0.0,0.0,0.0,0.0,0.0,0.0,0.0,0.0,0.0,0.0,0.0,0.0,0.0,0.0,0.0,0.0,0.0,0.0,0.0,0.0,0.0,0.0,0.0,0.0,0.0,0.0,0.0,0.0,0.0,0.0,0.0,0.0,0.0,0.0,0.0,0.0,0.0,0.0,0.0,0.0,0.0,0.0,0.0,0.0,0.0,0.0,0.0,0.0,0.0,0.0,0.0,0.0,0.0,0.0,0.0,0.0,0.0,0.0,0.0,0.0,0.0,0.0,0.0,0.0,0.0,0.0,0.0,0.0,0.0,0.0,0.0,0.0,0.0,-2.1309,-2.1309,-2.1443,-2.1443,-2.1323,0.0,0.0,0.0,0.0,0.0,0.0,0.0,0.0,0.0,0.0,0.0,0.0,0.0,0.0,0.0,0.0,0.0,0.0,0.0,0.0,0.0,0.0,0.0,0.0,0.0,0.0,0.0,0.0,0.0,0.0,0.0,0.0,0.0,0.0,0.0,0.0,0.0,0.0,0.0,0.0,0.0,0.0,0.0,0.0,0.0,0.0,0.0,0.0,0.0,0.0,0.0,0.0,0.0,0.0,0.0,0.0,0.0,0.0,0.0,0.0,0.0,0.0,0.0,0.0,0.0,0.0,0.0,0.0,0.0,0.0,0.0,0.0,0.0,0.0,0.0,0.0,0.0,0.0,0.0,0.0,0.0,0.0,0.0,0.0,0.0,0.0,0.0,0.0,0.0,0.0,0.0,0.0,0.0,0.0,0.0,0.0,0.0,0.0,0.0,0.0,0.0,0.0,0.0,0.0,0.0,0.0,0.0,0.0,0.0,0.0,0.0,0.0,-2.1109,-2.1109,-2.1109,0.0,0.0,0.0,0.0,0.0,0.0,0.0,0.0,0.0,0.0,0.0,0.0,0.0,0.0,0.0,0.0,0.0,0.0,0.0,0.0,0.0,0.0,0.0,0.0,0.0,0.0,0.0,0.0,0.0,0.0,0.0,0.0,0.0,0.0,0.0,0.0,0.0,0.0,0.0,0.0,0.0,0.0,0.0,0.0,0.0,0.0,0.0,0.0,0.0,0.0,0.0,0.0,0.0,0.0,0.0,0.0,0.0,0.0,0.0,0.0,0.0,0.0,0.0,0.0,0.0,0.0,0.0,0.0,0.0,0.0,0.0,0.0,0.0,0.0,0.0,0.0,0.0,0.0,0.0,0.0,0.0,0.0,0.0,0.0,0.0,0.0,0.0,0.0,0.0,0.0,0.0,0.0,0.0,0.0,0.0,0.0,0.0,0.0,0.0,0.0,0.0,0.0,0.0,0.0,0.0,0.0,0.0,0.0,0.0,0.0,-2.1109,-2.1109,-2.1109,0.0,-2.1109,0.0,0.0,0.0,0.0,0.0,0.0,0.0,0.0,0.0,0.0,0.0,0.0,0.0,0.0,0.0,0.0,0.0,0.0,0.0,0.0,0.0,0.0,0.0,0.0,0.0,0.0,0.0,0.0,0.0,0.0,0.0,0.0,0.0,0.0,0.0,0.0,0.0,0.0,0.0,0.0,0.0,0.0,0.0,0.0,0.0,0.0,0.0,0.0,0.0,0.0,0.0,0.0,0.0,0.0,0.0,0.0,0.0,0.0,0.0,0.0,0.0,0.0,0.0,0.0,0.0,0.0,0.0,0.0,0.0,0.0,0.0,0.0,0.0,0.0,0.0,0.0,0.0,0.0,0.0,0.0,0.0,0.0,0.0,0.0,0.0,0.0,0.0,0.0,0.0,0.0,0.0,0.0,0.0,0.0,0.0,0.0,0.0,0.0,0.0,0.0,0.0,0.0,0.0,0.0,0.0,0.0,0.0,0.0,0.0,0.0,-1.9966,-1.9966,-1.9966,-1.9966,0.0,0.0,0.0,0.0,0.0,0.0,0.0,0.0,0.0,0.0,0.0,0.0,0.0,0.0,0.0,0.0,0.0,0.0,0.0,0.0,0.0,0.0,0.0,0.0,0.0,0.0,0.0,0.0,0.0,0.0,0.0,0.0,0.0,0.0,0.0,0.0,0.0,0.0,0.0,0.0,0.0,0.0,0.0,0.0,0.0,0.0,0.0,0.0,0.0,0.0,0.0,0.0,0.0,0.0,0.0,0.0,0.0,0.0,0.0,0.0,0.0,0.0,0.0,0.0,0.0,0.0,0.0,0.0,0.0,0.0,0.0,0.0,0.0,0.0,0.0,0.0,0.0,0.0,0.0,0.0,0.0,0.0,0.0,0.0,0.0,0.0,0.0,0.0,0.0,0.0,0.0,0.0,0.0,0.0,0.0,0.0,0.0,0.0,0.0,0.0,0.0,0.0,0.0,0.0,0.0,0.0,0.0,0.0,0.0,0.0,-1.8816,-1.8816,-1.8816,-1.8816,-1.8816,-1.8816,0.0,0.0,0.0,0.0,0.0,0.0,0.0,0.0,0.0,0.0,0.0,0.0,0.0,0.0,0.0,0.0,0.0,0.0,0.0,0.0,0.0,0.0,0.0,0.0,0.0,0.0,0.0,0.0,0.0,0.0,0.0,0.0,0.0,0.0,0.0,0.0,0.0,0.0,0.0,0.0,0.0,0.0,0.0,0.0,0.0,0.0,0.0,0.0,0.0,0.0,0.0,0.0,0.0,0.0,0.0,0.0,0.0,0.0,0.0,0.0,0.0,0.0,0.0,0.0,0.0,0.0,0.0,0.0,0.0,0.0,0.0,0.0,0.0,0.0,0.0,0.0,0.0,0.0,0.0,0.0,0.0,0.0,0.0,0.0,0.0,0.0,0.0,0.0,0.0,0.0,0.0,0.0,0.0,0.0,0.0,0.0,0.0,0.0,0.0,0.0,0.0,0.0,0.0,0.0,0.0,0.0,0.0,0.0,-1.8033,-1.8033,-1.8033,-1.8033,-1.8033,-1.8033,0.0,0.0,0.0,0.0,0.0,0.0,0.0,0.0,0.0,0.0,0.0,0.0,0.0,0.0,0.0,0.0,0.0,0.0,0.0,0.0,0.0,0.0,0.0,0.0,0.0,0.0,0.0,0.0,0.0,0.0,0.0,0.0,0.0,0.0,0.0,0.0,0.0,0.0,0.0,0.0,0.0,0.0,0.0,0.0,0.0,0.0,0.0,0.0,0.0,0.0,0.0,0.0,0.0,0.0,0.0,0.0,0.0,0.0,0.0,0.0,0.0,0.0,0.0,0.0,0.0,0.0,0.0,0.0,0.0,0.0,0.0,0.0,0.0,0.0,0.0,0.0,0.0,0.0,0.0,0.0,0.0,0.0,0.0,0.0,0.0,0.0,0.0,0.0,0.0,0.0,0.0,0.0,0.0,0.0,0.0,0.0,0.0,0.0,0.0,0.0,0.0,0.0,0.0,0.0,0.0,0.0,0.0,0.0,0.0,-1.5434,-1.5434,-1.5303,-1.5303,-1.5303,-1.5303,0.0,0.0,0.0,0.0,0.0,0.0,0.0,0.0,0.0,0.0,0.0,0.0,0.0,0.0,0.0,0.0,0.0,0.0,0.0,0.0,0.0,0.0,0.0,0.0,0.0,0.0,0.0,0.0,0.0,0.0,0.0,0.0,0.0,0.0,0.0,0.0,0.0,0.0,0.0,0.0,0.0,0.0,0.0,0.0,0.0,0.0,0.0,0.0,0.0,0.0,0.0,0.0,0.0,0.0,0.0,0.0,0.0,0.0,0.0,0.0,0.0,0.0,0.0,0.0,0.0,0.0,0.0,0.0,0.0,0.0,0.0,0.0,0.0,0.0,0.0,0.0,0.0,0.0,0.0,0.0,0.0,0.0,0.0,0.0,0.0,0.0,0.0,0.0,0.0,0.0,0.0,0.0,0.0,0.0,0.0,0.0,0.0,0.0,0.0,0.0,0.0,0.0,0.0,0.0,0.0,0.0,0.0,0.0,0.0,-1.3613,0.0,-1.3481,-1.3481,-1.3613,-1.3481,0.0,0.0,0.0,0.0,0.0,0.0,0.0,0.0,0.0,0.0,0.0,0.0,0.0,0.0,0.0,0.0,0.0,0.0,0.0,0.0,0.0,0.0,0.0,0.0,0.0,0.0,0.0,0.0,0.0,0.0,0.0,0.0,0.0,0.0,0.0,0.0,0.0,0.0,0.0,0.0,0.0,0.0,0.0,0.0,0.0,0.0,0.0,0.0,0.0,0.0,0.0,0.0,0.0,0.0,0.0,0.0,0.0,0.0,0.0,0.0,0.0,0.0,0.0,0.0,0.0,0.0,0.0,0.0,0.0,0.0,0.0,0.0,0.0,0.0,0.0,0.0,0.0,0.0,0.0,0.0,0.0,0.0,0.0,0.0,0.0,0.0,0.0,0.0,0.0,0.0,0.0,0.0,0.0,0.0,0.0,0.0,0.0,0.0,0.0,0.0,0.0,0.0,0.0,0.0,0.0,0.0,0.0,0.0,-1.2824,-1.2824,-1.2832,-1.2708,-1.2824,-1.2692,-1.2824,0.0,0.0,0.0,0.0,0.0,0.0,0.0,0.0,0.0,0.0,0.0,0.0,0.0,0.0,0.0,0.0,0.0,0.0,0.0,0.0,0.0,0.0,0.0,0.0,0.0,0.0,0.0,0.0,0.0,0.0,0.0,0.0,0.0,0.0,0.0,0.0,0.0,0.0,0.0,0.0,0.0,0.0,0.0,0.0,0.0,0.0,0.0,0.0,0.0,0.0,0.0,0.0,0.0,0.0,0.0,0.0,0.0,0.0,0.0,0.0,0.0,0.0,0.0,0.0,0.0,0.0,0.0,0.0,0.0,0.0,0.0,0.0,0.0,0.0,0.0,0.0,0.0,0.0,0.0,0.0,0.0,0.0,0.0,0.0,0.0,0.0,0.0,0.0,0.0,0.0,0.0,0.0,0.0,0.0,0.0,0.0,0.0,0.0,0.0,0.0,0.0,0.0,0.0,0.0,0.0,0.0,0.0,0.0,0.0,-1.1553,-1.1646,-1.1653,-1.1545,-1.1545,-1.1488,0.0,0.0,0.0,0.0,0.0,0.0,0.0,0.0,0.0,0.0,0.0,0.0,0.0,0.0,0.0,0.0,0.0,0.0,0.0,0.0,0.0,0.0,0.0,0.0,0.0,0.0,0.0,0.0,0.0,0.0,0.0,0.0,0.0,0.0,0.0,0.0,0.0,0.0,0.0,0.0,0.0,0.0,0.0,0.0,0.0,0.0,0.0,0.0,0.0,0.0,0.0,0.0,0.0,0.0,0.0,0.0,0.0,0.0,0.0,0.0,0.0,0.0,0.0,0.0,0.0,0.0,0.0,0.0,0.0,0.0,0.0,0.0,0.0,0.0,0.0,0.0,0.0,0.0,0.0,0.0,0.0,0.0,0.0,0.0,0.0,0.0,0.0,0.0,0.0,0.0,0.0,0.0,0.0,0.0,0.0,0.0,0.0,0.0,0.0,0.0,0.0,0.0,0.0,0.0,0.0,0.0,0.0,0.0,0.0,-1.1369,-1.145,-1.143,-1.128,-1.1274,-1.1124,-1.0819,0.0,0.0,0.0,0.0,0.0,0.0,0.0,0.0,0.0,0.0,0.0,0.0,0.0,0.0,0.0,0.0,0.0,0.0,0.0,0.0,0.0,0.0,0.0,0.0,0.0,0.0,0.0,0.0,0.0,0.0,0.0,0.0,0.0,0.0,0.0,0.0,0.0,0.0,0.0,0.0,0.0,0.0,0.0,0.0,0.0,0.0,0.0,0.0,0.0,0.0,0.0,0.0,0.0,0.0,0.0,0.0,0.0,0.0,0.0,0.0,0.0,0.0,0.0,0.0,0.0,0.0,0.0,0.0,0.0,0.0,0.0,0.0,0.0,0.0,0.0,0.0,0.0,0.0,0.0,0.0,0.0,0.0,0.0,0.0,0.0,0.0,0.0,0.0,0.0,0.0,0.0,0.0,0.0,0.0,0.0,0.0,0.0,0.0,0.0,0.0,0.0,0.0,0.0,0.0,0.0,0.0,0.0,0.0,-1.2121,-1.2149,-1.2074,-1.1884,-1.185,-1.1572,0.0,0.0,0.0,0.0,0.0,0.0,0.0,0.0,0.0,0.0,0.0,0.0,0.0,0.0,0.0,0.0,0.0,0.0,0.0,0.0,0.0,0.0,0.0,0.0,0.0,0.0,0.0,0.0,0.0,0.0,0.0,0.0,0.0,0.0,0.0,0.0,0.0,0.0,0.0,0.0,0.0,0.0,0.0,0.0,0.0,0.0,0.0,0.0,0.0,0.0,0.0,0.0,0.0,0.0,0.0,0.0,0.0,0.0,0.0,0.0,0.0,0.0,0.0,0.0,0.0,0.0,0.0,0.0,0.0,0.0,0.0,0.0,0.0,0.0,0.0,0.0,0.0,0.0,0.0,0.0,0.0,0.0,0.0,0.0,0.0,0.0,0.0,0.0,0.0,0.0,0.0,0.0,0.0,0.0,0.0,0.0,0.0,0.0,0.0,0.0,0.0,0.0,0.0,0.0,0.0,0.0,0.0,0.0,0.0,-1.2868,-1.32,-1.3098,-1.2515,-1.2176,-1.183,0.0,0.0,0.0,0.0,0.0,0.0,0.0,0.0,0.0,0.0,0.0,0.0,0.0,0.0,0.0,0.0,0.0,0.0,0.0,0.0,0.0,0.0,0.0,0.0,0.0,0.0,0.0,0.0,0.0,0.0,0.0,0.0,0.0,0.0,0.0,0.0,0.0,0.0,0.0,0.0,0.0,0.0,0.0,0.0,0.0,0.0,0.0,0.0,0.0,0.0,0.0,0.0,0.0,0.0,0.0,0.0,0.0,0.0,0.0,0.0,0.0,0.0,0.0,0.0,0.0,0.0,0.0,0.0,0.0,0.0,0.0,0.0,0.0,0.0,0.0,0.0,0.0,0.0,0.0,0.0,0.0,0.0,0.0,0.0,0.0,0.0,0.0,0.0,0.0,0.0,0.0,0.0,0.0,0.0,0.0,0.0,0.0,0.0,0.0,0.0,0.0,0.0,0.0,0.0,0.0,0.0,0.0,0.0,-1.2678,-1.3166,-1.3736,-1.3831,-1.3403,-1.2827,-1.2298,0.0,0.0,0.0,0.0,0.0,0.0,0.0,0.0,0.0,0.0,0.0,0.0,0.0,0.0,0.0,0.0,0.0,0.0,0.0,0.0,0.0,0.0,0.0,0.0,0.0,0.0,0.0,0.0,0.0,0.0,0.0,0.0,0.0,0.0,0.0,0.0,0.0,0.0,0.0,0.0,0.0,0.0,0.0,0.0,0.0,0.0,0.0,0.0,0.0,0.0,0.0,0.0,0.0,0.0,0.0,0.0,0.0,0.0,0.0,0.0,0.0,0.0,0.0,0.0,0.0,0.0,0.0,0.0,0.0,0.0,0.0,0.0,0.0,0.0,0.0,0.0,0.0,0.0,0.0,0.0,0.0,0.0,0.0,0.0,0.0,0.0,0.0,0.0,0.0,0.0,0.0,0.0,0.0,0.0,0.0,0.0,0.0,0.0,0.0,0.0,0.0,0.0,0.0,0.0,0.0,0.0,0.0,0.0,-1.3037,-1.3247,-1.3933,-1.4299,-1.4278,-1.3566,-1.2847,0.0,0.0,0.0,0.0,0.0,0.0,0.0,0.0,0.0,0.0,0.0,0.0,0.0,0.0,0.0,0.0,0.0,0.0,0.0,0.0,0.0,0.0,0.0,0.0,0.0,0.0,0.0,0.0,0.0,0.0,0.0,0.0,0.0,0.0,0.0,0.0,0.0,0.0,0.0,0.0,0.0,0.0,0.0,0.0,0.0,0.0,0.0,0.0,0.0,0.0,0.0,0.0,0.0,0.0,0.0,0.0,0.0,0.0,0.0,0.0,0.0,0.0,0.0,0.0,0.0,0.0,0.0,0.0,0.0,0.0,0.0,0.0,0.0,0.0,0.0,0.0,0.0,0.0,0.0,0.0,0.0,0.0,0.0,0.0,0.0,0.0,0.0,0.0,0.0,0.0,0.0,0.0,0.0,0.0,0.0,0.0,0.0,0.0,0.0,0.0,0.0,0.0,0.0,0.0,0.0,0.0,0.0,0.0,-1.3078,-1.3688,-1.4089,-1.4299,-1.4299,-1.3566,-1.299,0.0,0.0,0.0,0.0,0.0,0.0,0.0,0.0,0.0,0.0,0.0,0.0,0.0,0.0,0.0,0.0,0.0,0.0,0.0,0.0,0.0,0.0,0.0,0.0,0.0,0.0,0.0,0.0,0.0,0.0,0.0,0.0,0.0,0.0,0.0,0.0,0.0,0.0,0.0,0.0,0.0,0.0,0.0,0.0,0.0,0.0,0.0,0.0,-3.4805,0.0,0.0,0.0,0.0,0.0,0.0,0.0,0.0,0.0,0.0,0.0,0.0,0.0,0.0,0.0,0.0,0.0,0.0,0.0,0.0,0.0,0.0,0.0,0.0,0.0,0.0,0.0,0.0,0.0,0.0,0.0,0.0,0.0,0.0,0.0,0.0,0.0,0.0,0.0,0.0,0.0,0.0,0.0,0.0,0.0,0.0,0.0,0.0,0.0,0.0,0.0,0.0,0.0,0.0,0.0,0.0,0.0,0.0,0.0,-1.3166,-1.3817,-1.4143,-1.4299,-1.4278,-1.377,-1.3281,0.0,0.0,0.0,0.0,0.0,0.0,0.0,0.0,0.0,0.0,0.0,0.0,0.0,0.0,0.0,0.0,0.0,0.0,0.0,0.0,0.0,0.0,0.0,0.0,0.0,0.0,0.0,0.0,0.0,0.0,0.0,0.0,0.0,0.0,0.0,0.0,0.0,0.0,0.0,0.0,0.0,0.0,0.0,0.0,0.0,0.0,0.0,0.0,0.0,0.0,0.0,0.0,0.0,0.0,0.0,0.0,0.0,0.0,0.0,0.0,0.0,0.0,0.0,0.0,0.0,0.0,0.0,0.0,0.0,0.0,0.0,0.0,0.0,0.0,0.0,0.0,0.0,0.0,0.0,0.0,0.0,0.0,0.0,0.0,0.0,0.0,0.0,0.0,0.0,0.0,0.0,0.0,0.0,0.0,0.0,0.0,0.0,0.0,0.0,0.0,0.0,0.0,0.0,0.0,0.0,0.0,0.0,-1.2834,-1.3295,-1.3892,-1.4163,-1.4299,-1.4299,-1.4,-1.3566,-1.2983,0.0,0.0,0.0,0.0,0.0,0.0,0.0,0.0,0.0,0.0,0.0,0.0,0.0,0.0,0.0,0.0,0.0,0.0,0.0,0.0,0.0,0.0,0.0,0.0,0.0,0.0,0.0,0.0,0.0,0.0,0.0,0.0,0.0,0.0,0.0,0.0,0.0,0.0,-3.3681,-3.4148,0.0,0.0,0.0,0.0,0.0,0.0,0.0,0.0,-3.5195,0.0,0.0,0.0,0.0,0.0,0.0,0.0,0.0,0.0,0.0,0.0,0.0,0.0,0.0,0.0,0.0,0.0,0.0,0.0,0.0,0.0,0.0,0.0,0.0,0.0,0.0,0.0,0.0,0.0,0.0,0.0,0.0,0.0,0.0,0.0,0.0,0.0,0.0,0.0,0.0,0.0,0.0,0.0,0.0,0.0,0.0,0.0,0.0,0.0,0.0,0.0,0.0,0.0,0.0,0.0,0.0,-1.2684,-1.299,-1.3492,-1.4204,-1.4272,-1.4299,-1.4292,-1.4,-1.3559,-1.299,0.0,0.0,0.0,0.0,0.0,0.0,0.0,0.0,0.0,0.0,0.0,0.0,0.0,0.0,0.0,0.0,0.0,0.0,0.0,0.0,0.0,0.0,0.0,0.0,0.0,0.0,0.0,0.0,0.0,0.0,0.0,0.0,0.0,0.0,0.0,0.0,0.0,0.0,0.0,-3.5176,-3.5234,0.0,0.0,0.0,0.0,0.0,0.0,0.0,0.0,-3.5799,0.0,0.0,0.0,0.0,0.0,0.0,0.0,0.0,0.0,0.0,0.0,0.0,0.0,0.0,0.0,0.0,0.0,0.0,0.0,0.0,0.0,0.0,0.0,0.0,0.0,0.0,0.0,0.0,0.0,0.0,0.0,0.0,0.0,0.0,0.0,0.0,0.0,0.0,0.0,0.0,0.0,0.0,0.0,0.0,0.0,0.0,0.0,0.0,0.0,0.0,0.0,0.0,0.0,0.0,0.0,-1.2725,-1.318,-1.3695,-1.4272,-1.4299,-1.4299,-1.4292,-1.3933,-1.3451,0.0,0.0,0.0,0.0,0.0,0.0,0.0,0.0,0.0,0.0,0.0,0.0,0.0,0.0,0.0,0.0,0.0,0.0,0.0,0.0,0.0,0.0,0.0,0.0,0.0,0.0,0.0,0.0,0.0,0.0,0.0,0.0,0.0,0.0,0.0,0.0,0.0,0.0,0.0,0.0,-3.5723,-3.5957,-3.6621,0.0,0.0,0.0,0.0,0.0,0.0,-3.6777,-3.6642,0.0,0.0,0.0,0.0,0.0,0.0,0.0,0.0,0.0,0.0,0.0,0.0,0.0,0.0,0.0,0.0,0.0,0.0,0.0,0.0,0.0,0.0,0.0,0.0,0.0,0.0,0.0,0.0,0.0,0.0,0.0,0.0,0.0,0.0,0.0,0.0,0.0,0.0,0.0,0.0,0.0,0.0,0.0,0.0,0.0,0.0,0.0,0.0,0.0,0.0,0.0,0.0,0.0,0.0,0.0,-1.2827,-1.3383,-1.3878,-1.4278,-1.4299,-1.4299,-1.4292,-1.3804,-1.3281,0.0,0.0,0.0,0.0,0.0,0.0,0.0,0.0,0.0,0.0,0.0,0.0,0.0,0.0,0.0,0.0,0.0,0.0,0.0,0.0,0.0,0.0,0.0,0.0,0.0,0.0,0.0,0.0,0.0,0.0,0.0,0.0,0.0,0.0,0.0,0.0,0.0,0.0,0.0,0.0,0.0,-3.6582,-3.7734,-3.6621,0.0,0.0,0.0,0.0,-3.7324,-3.7578,0.0,0.0,0.0,0.0,0.0,0.0,0.0,0.0,0.0,0.0,0.0,0.0,0.0,0.0,0.0,0.0,0.0,0.0,0.0,0.0,0.0,0.0,0.0,0.0,0.0,0.0,0.0,0.0,0.0,0.0,0.0,0.0,0.0,0.0,0.0,0.0,0.0,0.0,0.0,0.0,0.0,0.0,0.0,0.0,0.0,0.0,0.0,0.0,0.0,0.0,0.0,0.0,0.0,0.0,0.0,0.0,-1.3119,-1.358,-1.3973,-1.4278,-1.4299,-1.4299,-1.4292,-1.36,-1.3071,0.0,0.0,0.0,0.0,0.0,0.0,0.0,0.0,0.0,0.0,0.0,0.0,0.0,0.0,0.0,0.0,0.0,0.0,0.0,0.0,0.0,0.0,0.0,0.0,0.0,0.0,0.0,0.0,0.0,0.0,0.0,0.0,0.0,0.0,0.0,0.0,0.0,0.0,0.0,0.0,0.0,-3.6914,-3.7793,-3.7129,-3.6406,0.0,0.0,-3.7734,-3.7851,-3.8476,0.0,0.0,0.0,0.0,0.0,0.0,0.0,0.0,0.0,0.0,0.0,0.0,0.0,0.0,0.0,0.0,0.0,0.0,0.0,0.0,0.0,0.0,0.0,0.0,0.0,0.0,0.0,0.0,0.0,0.0,0.0,0.0,0.0,0.0,0.0,0.0,0.0,0.0,0.0,0.0,0.0,0.0,0.0,0.0,0.0,0.0,0.0,0.0,0.0,0.0,0.0,0.0,0.0,0.0,0.0,-1.2773,-1.3064,-1.3743,-1.4163,-1.4292,-1.4299,-1.4299,-1.4299,-1.3566,-1.299,0.0,0.0,0.0,0.0,0.0,0.0,0.0,0.0,0.0,0.0,0.0,0.0,0.0,0.0,0.0,0.0,0.0,0.0,0.0,0.0,0.0,0.0,0.0,0.0,0.0,0.0,0.0,0.0,0.0,0.0,0.0,0.0,0.0,0.0,0.0,0.0,0.0,0.0,0.0,0.0,0.0,0.0,-3.8184,-3.7773,0.0,0.0,0.0,-3.793,-3.793,0.0,0.0,0.0,0.0,0.0,0.0,0.0,0.0,0.0,0.0,0.0,0.0,0.0,0.0,0.0,0.0,0.0,0.0,0.0,0.0,0.0,0.0,0.0,0.0,0.0,0.0,0.0,0.0,0.0,0.0,0.0,0.0,0.0,0.0,0.0,0.0,0.0,0.0,0.0,0.0,0.0,0.0,0.0,0.0,0.0,0.0,0.0,0.0,0.0,0.0,0.0,0.0,0.0,0.0,0.0,0.0,0.0,-1.3024,-1.3865,-1.4299,-1.4299,-1.4299,-1.4299,-1.4285,-1.3641,0.0,0.0,0.0,0.0,0.0,0.0,0.0,0.0,0.0,0.0,0.0,0.0,0.0,0.0,0.0,0.0,0.0,0.0,0.0,0.0,0.0,0.0,0.0,0.0,0.0,0.0,0.0,-2.3394,0.0,0.0,0.0,0.0,0.0,0.0,0.0,0.0,0.0,0.0,0.0,0.0,0.0,0.0,-3.7598,-3.8457,-3.8398,-3.8398,0.0,0.0,-3.8281,-3.8398,-3.9434,-3.97,0.0,0.0,0.0,0.0,0.0,0.0,0.0,0.0,0.0,0.0,0.0,0.0,0.0,0.0,0.0,0.0,0.0,0.0,0.0,0.0,0.0,0.0,0.0,0.0,0.0,0.0,0.0,0.0,0.0,0.0,0.0,0.0,0.0,0.0,0.0,0.0,0.0,0.0,0.0,0.0,0.0,0.0,0.0,0.0,0.0,0.0,0.0,0.0,0.0,0.0,0.0,0.0,0.0,0.0,-1.2868,-1.3173,-1.3912,-1.4299,-1.4299,-1.4299,-1.4299,-1.4292,-1.3844,-1.3315,0.0,0.0,0.0,0.0,0.0,0.0,0.0,0.0,0.0,0.0,0.0,0.0,0.0,0.0,0.0,0.0,0.0,0.0,0.0,0.0,0.0,0.0,0.0,0.0,0.0,0.0,0.0,0.0,0.0,0.0,0.0,0.0,0.0,0.0,0.0,0.0,0.0,0.0,0.0,0.0,0.0,-3.7617,-3.8457,-3.8887,-3.9277,0.0,-3.9414,-3.9258,-3.9687,-4.0488,-4.0367,-3.8141,0.0,0.0,0.0,0.0,0.0,0.0,0.0,0.0,0.0,0.0,0.0,0.0,0.0,0.0,0.0,0.0,0.0,0.0,0.0,0.0,0.0,0.0,0.0,0.0,0.0,0.0,0.0,0.0,0.0,0.0,0.0,0.0,0.0,0.0,0.0,0.0,0.0,0.0,0.0,0.0,0.0,0.0,0.0,0.0,0.0,0.0,0.0,0.0,0.0,0.0,0.0,0.0,0.0,-1.2739,-1.3044,-1.3871,-1.4299,-1.4299,-1.4299,-1.4299,-1.4299,-1.3953,-1.3485,0.0,0.0,0.0,0.0,0.0,0.0,0.0,0.0,0.0,0.0,0.0,0.0,0.0,0.0,0.0,0.0,0.0,0.0,0.0,0.0,0.0,0.0,0.0,0.0,0.0,0.0,0.0,0.0,-2.5783,-2.6822,-2.8133,0.0,0.0,0.0,0.0,0.0,0.0,0.0,0.0,0.0,0.0,-3.7798,-3.9219,-3.9531,0.0,0.0,-3.9746,-3.9492,-3.9141,-3.9805,-3.9687,-3.7759,-3.7826,0.0,0.0,0.0,0.0,0.0,0.0,0.0,0.0,0.0,0.0,0.0,0.0,0.0,0.0,0.0,0.0,0.0,0.0,0.0,0.0,0.0,0.0,0.0,0.0,0.0,0.0,0.0,0.0,0.0,0.0,0.0,0.0,0.0,0.0,0.0,0.0,0.0,0.0,0.0,0.0,0.0,0.0,0.0,0.0,0.0,0.0,0.0,0.0,0.0,0.0,0.0,0.0,-1.2698,-1.3091,-1.3933,-1.4387,-1.4434,-1.4428,-1.4434,-1.4428,-1.4224,-1.3831,0.0,0.0,0.0,0.0,0.0,0.0,0.0,0.0,0.0,0.0,0.0,0.0,0.0,0.0,0.0,0.0,0.0,0.0,0.0,0.0,0.0,0.0,0.0,0.0,0.0,0.0,0.0,0.0,-2.635,-2.7424,-2.8916,0.0,0.0,0.0,0.0,0.0,0.0,0.0,0.0,0.0,0.0,-3.8302,-3.9394,-3.9609,-3.9687,-3.9537,-3.9323,-3.9121,-3.8467,-3.8965,-3.8848,-3.7519,0.0,0.0,0.0,0.0,0.0,0.0,0.0,0.0,0.0,0.0,0.0,0.0,0.0,0.0,0.0,0.0,0.0,0.0,0.0,0.0,0.0,0.0,0.0,0.0,0.0,0.0,0.0,0.0,0.0,0.0,-1.1626,0.0,0.0,0.0,0.0,0.0,0.0,0.0,0.0,0.0,0.0,0.0,0.0,0.0,0.0,0.0,0.0,0.0,0.0,0.0,0.0,0.0,0.0,-1.2793,-1.339,-1.4122,-1.4577,-1.4719,-1.4733,-1.4719,-1.4719,-1.4719,-1.4434,-1.3831,0.0,0.0,0.0,0.0,0.0,0.0,0.0,0.0,0.0,0.0,0.0,0.0,0.0,0.0,0.0,0.0,0.0,0.0,0.0,0.0,0.0,0.0,0.0,0.0,0.0,0.0,-2.5281,-2.6659,-2.797,0.0,0.0,0.0,0.0,0.0,0.0,0.0,0.0,0.0,-3.6008,-3.7798,-3.9023,-3.8672,-3.8945,-3.907,-3.8812,-3.8243,-3.7942,-3.7924,-3.7875,-3.7812,0.0,0.0,0.0,0.0,0.0,0.0,0.0,0.0,0.0,0.0,0.0,0.0,0.0,0.0,0.0,0.0,0.0,0.0,0.0,0.0,0.0,0.0,0.0,0.0,0.0,0.0,0.0,-1.2414,-1.2291,0.0,0.0,0.0,0.0,0.0,0.0,0.0,0.0,0.0,0.0,0.0,-1.303,-1.3132,0.0,0.0,0.0,0.0,0.0,0.0,0.0,0.0,0.0,0.0,0.0,0.0,-1.2901,-1.341,-1.4238,-1.4685,-1.474,-1.474,-1.474,-1.474,-1.474,-1.4502,-1.4007,0.0,0.0,0.0,0.0,0.0,0.0,0.0,0.0,0.0,0.0,0.0,0.0,0.0,0.0,0.0,0.0,0.0,0.0,0.0,0.0,0.0,0.0,0.0,0.0,0.0,-2.5215,0.0,0.0,0.0,0.0,0.0,0.0,0.0,0.0,0.0,0.0,-3.3659,-3.3925,-3.7057,-3.7355,-3.7413,-3.7981,-3.8262,-3.8672,0.0,0.0,0.0,0.0,0.0,0.0,0.0,0.0,0.0,0.0,0.0,0.0,0.0,-4.5846,-4.6778,-4.5673,-4.6465,-4.7459,-4.7795,0.0,0.0,0.0,0.0,0.0,0.0,0.0,0.0,0.0,0.0,0.0,0.0,0.0,0.0,-1.2919,0.0,-1.2868,0.0,0.0,0.0,0.0,0.0,0.0,0.0,0.0,-1.3417,-1.3627,-1.3715,-1.3715,-1.3661,0.0,-1.3458,-1.3152,0.0,0.0,0.0,0.0,0.0,0.0,0.0,0.0,-1.3057,-1.3566,-1.4387,-1.4841,-1.4889,-1.4896,-1.4896,-1.4889,-1.4848,-1.4685,-1.4394,-1.3899,-1.3424,0.0,0.0,0.0,0.0,0.0,0.0,0.0,0.0,0.0,0.0,0.0,0.0,0.0,0.0,0.0,0.0,0.0,0.0,0.0,0.0,0.0,0.0,0.0,-2.5718,0.0,0.0,0.0,0.0,0.0,0.0,0.0,0.0,0.0,-3.5257,-3.4557,-3.4994,-3.7728,-3.7893,-3.7566,-3.7222,0.0,0.0,0.0,0.0,0.0,0.0,0.0,-3.6758,-3.6348,-3.7014,-3.8006,-3.909,-4.2114,-4.4533,-4.4929,0.0,0.0,-4.7456,-4.8032,-4.8913,-4.9138,-4.9512,-5.0227,-5.151,-5.276,-5.4147,0.0,0.0,0.0,0.0,0.0,0.0,0.0,0.0,-1.3565,-1.3607,0.0,-1.3573,0.0,0.0,0.0,0.0,0.0,-1.3349,0.0,0.0,-1.438,-1.459,-1.434,-1.4326,-1.4326,-1.4312,-1.4027,-1.3885,-1.3844,-1.3308,0.0,0.0,0.0,0.0,0.0,0.0,-1.3268,-1.3865,-1.4597,-1.5045,-1.5167,-1.5174,-1.5181,-1.5174,-1.5045,-1.4977,-1.4957,-1.4414,-1.4034,-1.3858,-1.3037,0.0,0.0,0.0,0.0,0.0,0.0,0.0,0.0,0.0,0.0,0.0,0.0,0.0,0.0,0.0,0.0,0.0,0.0,0.0,0.0,-2.5391,0.0,0.0,0.0,0.0,0.0,0.0,0.0,0.0,0.0,-3.1507,-3.4631,-3.6581,-3.7951,-3.797,0.0,0.0,0.0,0.0,-3.8242,-3.5975,-3.5801,-3.5996,-3.572,-3.67,-3.75,-3.7891,0.0,0.0,-4.1319,-4.3327,-4.5097,-4.5754,-4.867,-5.0488,-4.9188,-4.9389,-4.987,-5.0128,-5.0281,-5.1097,-5.3254,-5.4183,-5.5317,-1.3933,0.0,0.0,0.0,0.0,-1.3444,-1.3715,-1.4122,-1.4169,-1.4115,-1.4048,-1.4089,0.0,0.0,0.0,0.0,0.0,0.0,-1.3953,-1.4265,-1.459,-1.4808,-1.493,-1.493,-1.493,-1.4923,-1.4841,-1.4801,-1.4787,-1.4631,-1.3926,-1.2718,0.0,0.0,0.0,0.0,-1.362,-1.4306,-1.4848,-1.514,-1.5181,-1.5181,-1.5181,-1.5181,-1.514,-1.5126,-1.512,-1.4957,-1.4692,-1.4333,-1.398,0.0,0.0,0.0,0.0,0.0,0.0,0.0,0.0,0.0,0.0,0.0,0.0,0.0,0.0,0.0,0.0,0.0,0.0,0.0,-2.5358,-2.5688,-2.6074,0.0,0.0,0.0,0.0,0.0,0.0,0.0,0.0,0.0,-3.3781,-3.3799,-3.4645,0.0,0.0,-3.6432,-3.5996,-3.707,-3.8008,-3.8476,-3.8164,0.0,-3.9316,-3.9004,-3.8691,-3.8809,-3.9668,-4.092,-4.2663,-4.4874,-4.6939,-4.8498,-5.0734,-5.209,-5.1875,-5.185,-5.195,-5.211,-5.211,-5.2245,-5.313,-5.5114,-5.7203,-1.4835,-1.4387,-1.3946,-1.3844,-1.3987,-1.4109,-1.438,-1.4753,-1.4896,-1.4875,-1.4746,-1.4808,-1.4584,-1.4156,-1.4,0.0,0.0,0.0,-1.4468,-1.478,-1.4875,-1.5011,-1.5174,-1.5181,-1.5181,-1.5181,-1.5181,-1.5181,-1.5181,-1.5181,-1.4672,-1.3682,0.0,0.0,-1.3234,-1.358,-1.4007,-1.4509,-1.4957,-1.5181,-1.5181,-1.5181,-1.5181,-1.5181,-1.5181,-1.5181,-1.5181,-1.5181,-1.5059,-1.4787,-1.4523,-1.4416,0.0,0.0,0.0,0.0,0.0,0.0,0.0,0.0,0.0,0.0,0.0,-2.3621,-2.3674,0.0,0.0,0.0,-2.5531,-2.5838,-2.6012,-2.5872,0.0,0.0,0.0,0.0,0.0,0.0,0.0,-2.9683,-3.0887,-3.1872,-3.2487,-3.2789,-3.4255,-3.7481,-3.7796,-3.7576,-3.7148,0.0,-3.9219,-3.957,-3.9316,-3.9453,-4.0488,-4.043,-4.0293,-4.0449,-4.0762,-4.1227,-4.2424,-4.4955,-4.7321,-4.8794,-5.0998,-5.2929,-5.2929,-5.2929,-5.2929,-5.2929,-5.2929,-5.3316,-5.4567,-5.6596,-5.8383,-1.5635,-1.5567,-1.4746,-1.4482,-1.4624,-1.4903,-1.5174,-1.5438,-1.5574,-1.556,-1.5438,-1.5574,-1.5411,-1.5018,-1.4875,0.0,-1.4821,-1.4957,-1.5092,-1.5221,-1.5221,-1.5221,-1.5215,-1.5221,-1.5215,-1.5221,-1.5215,-1.5221,-1.5221,-1.5221,-1.5079,-1.4808,-1.4543,-1.4183,-1.3783,-1.415,-1.4434,-1.4604,-1.5011,-1.5221,-1.5215,-1.5221,-1.5215,-1.5221,-1.5221,-1.5221,-1.5215,-1.5208,-1.5201,-1.5187,-1.4794,-1.4668,-1.4815,0.0,0.0,0.0,0.0,0.0,0.0,0.0,0.0,0.0,0.0,0.0,0.0,0.0,0.0,-2.5892,-2.6547,0.0,-2.6921,-2.6172,0.0,0.0,0.0,-2.6752,-2.7976,-2.8418,-2.8705,-2.9138,0.0,0.0,-3.1003,-3.321,-3.5326,-3.7348,-3.9888,-4.0783,-3.8689,-4.0257,-4.123,-3.9805,-3.9922,-4.0215,-4.0566,-4.1289,-4.1992,-4.2246,-4.2129,-4.1837,-4.1892,-4.4548,-4.6757,-4.749,-5.041,-5.2929,-5.2929,-5.2929,-5.2929,-5.2929,-5.2929,-5.381,-5.6726,-5.7751,-5.8884,-1.5635,-1.5622,-1.5411,-1.5337,-1.5377,-1.5452,-1.552,-1.5588,-1.5622,-1.5615,-1.5588,-1.5622,-1.5581,-1.5479,-1.5438,-1.5425,-1.5425,-1.5466,-1.5499,-1.5533,-1.5533,-1.5527,-1.5533,-1.5533,-1.5533,-1.5533,-1.5533,-1.5533,-1.5533,-1.5533,-1.5493,-1.5425,-1.535,-1.5099,-1.4672,-1.476,-1.4997,-1.5371,-1.5479,-1.5533,-1.5533,-1.5533,-1.5527,-1.5533,-1.5533,-1.5533,-1.5527,-1.5418,-1.5357,-1.535,-1.514,-1.5032,-1.5005,-1.5501,0.0,0.0,0.0,0.0,0.0,0.0,0.0,0.0,0.0,-2.3728,-2.3861,0.0,-2.5732,0.0,-2.7094,-2.7829,-2.7816,-2.7442,0.0,0.0,-2.7305,-2.7464,-2.8641,-2.8952,-2.9174,-2.9353,-2.9565,-2.9731,-3.0055,-3.199,-3.4359,-3.6677,-3.8737,-3.9319,-3.7712,-4.0044,-4.1797,-4.1719,-4.2226,-4.2793,-4.2734,-4.3027,-4.3144,-4.2949,-4.2558,-4.2586,-4.3649,-4.5492,-4.7467,-4.9105,-5.1163,-5.2767,-5.2929,-5.2929,-5.2929,-5.2929,-5.2929,-5.3563,-5.5551,-5.7085,-5.8634,-1.5839,-1.5839,-1.5839,-1.5839,-1.5832,-1.5764,-1.5737,-1.5737,-1.5805,-1.5839,-1.5839,-1.5832,-1.5839,-1.5832,-1.5839,-1.5798,-1.5737,-1.5737,-1.5696,-1.5642,-1.5635,-1.5635,-1.5635,-1.5635,-1.5635,-1.5635,-1.5635,-1.5635,-1.5642,-1.5703,-1.573,-1.5737,-1.5805,-1.571,-1.5472,-1.5337,-1.5391,-1.5635,-1.5635,-1.5635,-1.5635,-1.5635,-1.5547,-1.535,-1.5276,-1.514,-1.495,-1.4794,-1.4713,-1.4713,-1.4881,-1.5111,-1.5204,-1.6181,-1.728,0.0,0.0,0.0,0.0,0.0,0.0,0.0,0.0,0.0,0.0,0.0,-2.6587,-2.672,-2.7722,-2.8243,-2.7963,-2.7789,-2.7915,-2.819,-2.8054,-2.8244,-2.9302,-2.9499,-2.946,-2.9658,-2.9866,-2.9974,-3.0151,-3.2149,-3.3746,-3.4124,-3.6794,-3.896,-3.9999,-4.1522,-4.2734,-4.2988,-4.3398,-4.3691,-4.3691,-4.3691,-4.3555,-4.3144,-4.2715,-4.2585,-4.3346,-4.5449,-4.7344,-4.865,-5.0998,-5.2929,-5.2929,-5.2929,-5.2929,-5.2929,-5.3563,-5.4541,-5.6206,-5.7341,-5.8634,-1.6083,-1.6083,-1.6083,-1.6083,-1.6069,-1.594,-1.5886,-1.5893,-1.6022,-1.6083,-1.6083,-1.6083,-1.6083,-1.6083,-1.6083,-1.6008,-1.5886,-1.5886,-1.5818,-1.5703,-1.5696,-1.5696,-1.5696,-1.5696,-1.5696,-1.5696,-1.5696,-1.5696,-1.5696,-1.5818,-1.5879,-1.5886,-1.6015,-1.6083,-1.6069,-1.5825,-1.5696,-1.5696,-1.5676,-1.5655,-1.5642,-1.5622,-1.5404,-1.4991,-1.4821,-1.4543,-1.4143,-1.396,-1.3871,-1.3878,-1.4347,-1.4966,-1.5874,-1.7093,-1.8484,0.0,-2.1329,0.0,0.0,0.0,0.0,0.0,0.0,0.0,0.0,-2.6974,-2.7468,-2.7843,-2.835,-2.847,-2.803,-2.7976,-2.819,-2.8698,-2.8778,-2.9098,-2.986,-2.998,-2.998,-3.002,-3.0261,-3.0408,-3.059,-3.2421,-3.2928,-3.2169,-3.4757,-3.8489,-4.2423,-4.3068,-4.3214,-4.3604,-4.375,-4.3691,-4.3691,-4.3691,-4.3594,-4.3203,-4.2832,-4.2523,-4.2586,-4.4972,-4.7118,-4.7781,-5.0551,-5.2792,-5.2929,-5.2929,-5.2929,-5.2929,-5.419,-5.5814,-5.7469,-5.823,-5.938,-1.6083,-1.6083,-1.6083,-1.6083,-1.6076,-1.6049,-1.6035,-1.6042,-1.6069,-1.6083,-1.6083,-1.6083,-1.6083,-1.6083,-1.6083,-1.6062,-1.6035,-1.6035,-1.6022,-1.6001,-1.6001,-1.5995,-1.6001,-1.5995,-1.5995,-1.5995,-1.6001,-1.5995,-1.6001,-1.6029,-1.6042,-1.6042,-1.6069,-1.6083,-1.6076,0.0,0.0,0.0,-1.5872,-1.5757,-1.5642,-1.5513,-1.5296,-1.4984,-1.4821,0.0,-1.4434,-1.417,-1.4027,-1.4027,-1.4409,0.0,0.0,0.0,0.0,0.0,0.0,0.0,0.0,0.0,0.0,0.0,-2.7161,-2.7068,-2.6787,-2.7281,-2.7936,-2.8698,-2.8898,-2.9112,-2.9459,-2.9499,-2.9539,-2.9646,-2.9659,-2.9833,-3.0234,-3.0274,-3.0368,-3.0595,-3.0675,-3.0715,-3.0715,-3.1123,-3.2042,-3.3139,-3.4367,-3.6788,-4.1269,-4.1666,-4.1992,-4.3716,-4.3945,-4.3711,-4.3691,-4.3691,-4.3672,-4.3535,-4.3223,-4.3418,-4.4523,-4.616,-4.8044,-4.9054,-5.1303,-5.2929,-5.2929,-5.2929,-5.2929,-5.2929,-5.4299,-5.5918,-5.7624,-5.9104,-6.0629,-1.63,0.0,-1.63,-1.63,0.0,-1.63,-1.63,-1.6286,-1.6144,-1.6083,-1.6083,-1.6083,-1.6083,-1.6083,-1.6083,-1.6083,-1.6083,-1.6083,-1.6083,-1.6083,-1.6083,-1.6083,-1.6083,-1.6083,-1.6083,-1.6083,-1.6083,-1.6083,-1.6083,-1.6083,-1.6083,-1.6083,-1.6083,-1.6083,-1.6083,-1.6083,-1.6083,-1.6083,-1.6001,-1.5934,-1.5859,-1.5784,-1.556,-1.5201,-1.5038,0.0,0.0,0.0,0.0,0.0,0.0,0.0,0.0,-1.9499,0.0,-2.3648,-2.5724,-2.7096,-2.7909,-2.819,-2.8551,-2.8965,-2.9005,-2.8698,-2.7976,-2.8457,-2.8978,-2.9419,-2.9472,-2.9593,-2.9887,-3.0047,-3.014,-3.014,-3.0261,-3.0421,-3.0541,-3.0568,-3.0635,-3.0768,-3.0915,-3.1009,-3.1009,-3.1142,-3.1583,-3.2845,-3.411,-3.6079,-3.9473,-4.0649,-4.1831,-4.389,-4.4004,-4.3711,-4.3691,-4.3691,-4.3691,-4.3652,-4.3359,-4.3718,-4.5117,-4.6616,-4.8225,-4.9795,-5.1583,-5.2929,-5.2929,-5.2929,-5.2929,-5.3179,-5.4942,-5.6828,-5.7878,-5.9352,-6.099,-1.6517,-1.6517,-1.6517,-1.6517,-1.6517,-1.6517,-1.6517,-1.6503,0.0,0.0,0.0,-1.6157,-1.6157,-1.6157,-1.6157,-1.6157,-1.6157,-1.6137,-1.6123,-1.6123,-1.6096,-1.6083,-1.6083,-1.6083,-1.6083,-1.6083,-1.6083,-1.6083,-1.6083,-1.6083,-1.6083,-1.6083,-1.6083,-1.6083,-1.6083,-1.6083,-1.6083,-1.6083,-1.6056,-1.6029,-1.6008,-1.5974,-1.5764,-1.5343,-1.5187,-1.4916,-1.4529,-1.4373,-1.4272,-1.438,-1.4935,-1.5793,-1.7087,-2.0159,-2.2726,-2.4241,-2.6934,-2.8908,-2.9686,-2.994,-3.0274,-3.0755,-3.0568,-3.0114,-2.9325,-2.9713,-3.002,-3.006,-3.0074,-3.0074,-3.0074,-3.0287,-3.0434,-3.0434,-3.0648,-3.0808,-3.0862,-3.0862,-3.0902,-3.0955,-3.1169,-3.1303,-3.1316,-3.1503,-3.1853,-3.2583,-3.4175,-3.6421,-3.9076,-4.1196,-4.2702,-4.4097,-4.4004,-4.3691,-4.3691,-4.3691,-4.3691,-4.3691,-4.3418,-4.3798,-4.5607,-4.6985,-4.8441,-5.0364,-5.1886,-5.2767,-5.2929,-5.2929,-5.2929,-5.2929,-5.5604,-5.7977,-5.8103,-5.9626,-6.1407,-1.6524,-1.6517,-1.6735,-1.6735,-1.6517,-1.6517,-1.6517,-1.6517,-1.6476,-1.6456,-1.6463,-1.6456,-1.6463,-1.6252,-1.6456,-1.6463,-1.6449,-1.6334,-1.6279,-1.6273,-1.6144,-1.6083,-1.6083,-1.6083,-1.6083,-1.6083,-1.6083,-1.6083,-1.6083,-1.6083,-1.6083,-1.6083,-1.6083,-1.6083,-1.6083,-1.6083,-1.6083,-1.6076,-1.5954,-1.5825,-1.5703,-1.5574,-1.5357,-1.5045,-1.4903,-1.4713,-1.4523,-1.4387,-1.4318,-1.4344,-1.4963,-1.7142,-2.162,-2.2892,-2.5487,-2.9659,-3.0478,-3.0795,-3.0621,-3.0648,-3.0702,-3.0782,-3.0755,-3.0568,-3.0221,-3.0247,-3.0394,-3.0635,-3.0635,-3.0675,-3.0675,-3.0702,-3.0728,-3.0742,-3.0768,-3.0889,-3.1129,-3.1169,-3.1249,-3.1476,-3.157,-3.1597,-3.1583,-3.1637,-3.2408,-3.4233,-3.5137,-3.6975,-4.0884,-4.341,-4.4373,-4.4285,-4.4004,-4.373,-4.3691,-4.3691,-4.3691,-4.3691,-4.3652,-4.4724,-4.7334,-4.8138,-4.9375,-5.1943,-5.2679,-5.2792,-5.2929,-5.2929,-5.2929,-5.3179,-5.5841,-5.7878,-5.8103,-6.0508,-6.2701,-1.6775,-1.6775,-1.6982,-1.6982,-1.6775,-1.6768,-1.6768,-1.6768,-1.6775,-1.6673,-1.6524,-1.6517,-1.6517,-1.6517,-1.6517,-1.6524,-1.6728,-1.6456,-1.6422,-1.6415,-1.63,-1.6273,-1.6307,-1.6266,-1.6232,-1.6205,-1.6205,-1.6164,-1.609,-1.6083,-1.6083,-1.6083,-1.6083,-1.6083,-1.6083,-1.6083,-1.6083,-1.6083,-1.6015,-1.5947,-1.5879,-1.5811,-1.571,-1.5574,-1.5499,-1.5438,-1.5364,-1.5303,-1.5368,-1.519,-1.6898,-1.8995,-2.1252,-2.4283,-2.6978,-2.9128,-3.0695,-3.141,-3.1276,-3.1276,-3.1196,-3.1036,-3.1022,-3.0982,-3.0835,-3.0688,-3.0648,-3.0782,-3.0795,-3.0795,-3.0795,-3.0942,-3.1022,-3.1022,-3.1169,-3.1316,-3.1436,-3.1463,-3.1517,-3.165,-3.1677,-3.1677,-3.1677,-3.1677,-3.2043,-3.3309,-3.5338,-3.8611,-4.2049,-4.3951,-4.4961,-4.4726,-4.416,-4.375,-4.3691,-4.3691,-4.3691,-4.3691,-4.4658,-4.6274,-4.8388,-4.9314,-5.0906,-5.2759,-5.313,-5.2955,-5.2929,-5.2929,-5.3316,-5.4433,-5.6076,-5.7977,-5.938,-6.1407,-6.2933,-1.6978,-1.6978,-1.6978,-1.6978,-1.6978,-1.6978,-1.6978,-1.6978,-1.6978,-1.6849,-1.6646,-1.6625,-1.6625,-1.6625,-1.6625,-1.6838,-1.6838,-1.6592,-1.6571,-1.6564,-1.6442,-1.6435,-1.651,-1.6469,-1.6422,-1.6361,-1.6354,-1.63,-1.6191,-1.6178,-1.6164,-1.6137,-1.6137,-1.6117,-1.6083,-1.6083,-1.6083,-1.6083,-1.6083,-1.6083,-1.6083,-1.6083,-1.6083,-1.6083,-1.6076,-1.6083,-1.6083,-1.6083,-1.6083,-1.6282,-1.8031,-1.9585,-2.0925,-2.4646,-2.7384,-2.856,-3.0509,-3.1677,-3.1677,-3.1677,-3.157,-3.1343,-3.1316,-3.133,-3.1303,-3.1129,-3.0982,-3.0996,-3.1009,-3.1009,-3.1049,-3.1183,-3.133,-3.133,-3.1517,-3.1637,-3.1664,-3.1677,-3.1677,-3.1677,-3.1677,-3.1677,-3.1677,-3.1677,-3.2043,-3.3135,-3.6791,-4.0446,-4.2371,-4.3933,-4.4888,-4.4863,-4.4277,-4.375,-4.3691,-4.3691,-4.3691,-4.3711,-4.5454,-4.7093,-4.8808,-5.033,-5.1946,-5.3172,-5.3256,-5.298,-5.2929,-5.2929,-5.3538,-5.4916,-5.6699,-5.8606,-6.075,-6.2028,-6.3079,-1.6978,-1.6978,-1.6978,-1.6978,-1.6978,-1.6978,-1.6978,-1.6978,-1.6978,-1.6971,-1.6924,-1.6937,-1.6931,-1.6937,-1.6924,-1.6924,-1.691,-1.6788,-1.6727,-1.67,-1.649,-1.6435,-1.6544,-1.6612,-1.6393,-1.6517,-1.6503,-1.649,-1.6456,-1.6463,-1.6408,-1.63,-1.6286,-1.6218,-1.6103,-1.609,-1.6083,-1.6083,-1.6083,-1.6083,-1.6083,-1.6083,-1.6083,-1.6083,-1.6083,-1.6083,-1.6083,-1.6083,-1.6083,-1.6083,-1.6474,-1.8781,-2.2974,-2.4013,-2.6409,-3.089,-3.1474,-3.1677,-3.1677,-3.1677,-3.165,-3.1637,-3.1623,-3.161,-3.161,-3.1597,-3.1583,-3.1557,-3.157,-3.1543,-3.1583,-3.1597,-3.1597,-3.1583,-3.1637,-3.1677,-3.1677,-3.1677,-3.1677,-3.1677,-3.1677,-3.1677,-3.1677,-3.1677,-3.2583,-3.442,-3.8429,-4.1726,-4.2567,-4.3933,-4.5039,-4.4883,-4.4277,-4.3769,-4.3691,-4.3691,-4.3691,-4.3856,-4.5434,-4.7453,-4.9073,-5.0526,-5.1946,-5.3371,-5.3281,-5.2955,-5.2929,-5.2929,-5.3563,-5.5551,-5.7341,-5.9132,-6.191,-6.2933,-6.3079,-1.6978,-1.6978,-1.6978,-1.6978,-1.6978,-1.6978,-1.6978,-1.6978,-1.6978,-1.6978,-1.6978,-1.6978,-1.6978,-1.6978,-1.6978,-1.6978,-1.6971,-1.6917,-1.6883,-1.6876,-1.6781,-1.6761,-1.6795,-1.6829,-1.6788,-1.6666,-1.6653,-1.6612,-1.6537,-1.6524,-1.649,-1.6442,-1.6435,-1.6402,-1.6347,-1.6341,-1.6307,-1.6225,-1.6218,-1.6171,-1.609,-1.6083,-1.6083,-1.6083,-1.6083,-1.6083,-1.6083,-1.6083,-1.6083,-1.6275,-1.901,-2.1725,-2.3809,-2.6761,-2.9517,-3.1474,-3.1677,-3.1677,-3.1677,-3.1677,-3.1677,-3.1677,-3.1677,-3.1677,-3.1677,-3.1677,-3.1677,-3.1677,-3.1677,-3.1677,-3.1677,-3.1677,-3.1677,-3.1677,-3.1677,-3.1677,-3.1677,-3.1677,-3.1677,-3.1677,-3.1677,-3.1677,-3.1677,-3.1677,-3.2772,-3.4966,-3.8429,-4.0988,-4.2407,-4.3933,-4.4908,-4.4922,-4.4277,-4.3769,-4.3691,-4.3691,-4.3691,-4.4166,-4.6545,-4.9072,-4.9672,-5.1882,-5.3557,-5.4069,-5.3457,-5.298,-5.2929,-5.3042,-5.3563,-5.6076,-5.9256,-6.1555,-6.2933,-6.3079,-6.3394,-1.6978,-1.6978,-1.6978,-1.6978,-1.6978,-1.6978,-1.6978,-1.6978,-1.6978,-1.6978,-1.6978,-1.6978,-1.6978,-1.6978,-1.6978,-1.6978,-1.6978,-1.6978,-1.6978,-1.6978,-1.6978,-1.6978,-1.6978,-1.6978,-1.6924,-1.6829,-1.6809,-1.6761,-1.6653,-1.6646,-1.6625,-1.6592,-1.6585,-1.6564,-1.6524,-1.6517,-1.6469,-1.6381,-1.6368,-1.63,-1.6171,-1.6144,-1.6123,-1.609,-1.6083,-1.6083,-1.6083,-1.6864,-1.7253,-1.7253,-2.1539,-2.4269,-2.5045,-2.8548,-3.089,-3.1664,-3.1677,-3.1677,-3.1677,-3.1677,-3.1677,-3.1677,-3.1677,-3.1677,-3.1677,-3.1677,-3.1677,-3.1677,-3.1677,-3.1677,-3.1677,-3.1677,-3.1677,-3.1677,-3.1677,-3.1677,-3.1677,-3.1677,-3.1677,-3.1677,-3.1677,-3.2043,-3.2597,-3.2772,-3.3685,-3.6236,-3.8611,-4.0446,-4.2335,-4.397,-4.5039,-4.5,-4.4277,-4.3769,-4.3691,-4.3691,-4.3876,-4.5291,-4.7645,-4.9986,-5.0694,-5.3107,-5.4561,-5.431,-5.3507,-5.3005,-5.3067,-5.3316,-5.4701,-5.7977,-6.0899,-6.2817,-6.3079,-6.3079,-6.3706,-1.6978,-1.6978,-1.6978,-1.6978,-1.6978,-1.6978,-1.6978,-1.6978,-1.6978,-1.6978,-1.6978,-1.6978,-1.6978,-1.6978,-1.6978,-1.6978,-1.6978,-1.6978,-1.6978,-1.6978,-1.6978,-1.6978,-1.6978,-1.6978,-1.6971,-1.6951,-1.6944,-1.6944,-1.6937,-1.6944,-1.6883,-1.6748,-1.6741,-1.6666,-1.6564,-1.6551,-1.6524,-1.6517,-1.6517,-1.6442,-1.6313,-1.63,-1.6225,-1.611,-1.6083,-1.6083,-1.6275,-1.8426,-1.9782,-1.9782,-2.2507,-2.5045,-2.7191,-2.7972,-2.9326,-3.1284,-3.1677,-3.1677,-3.1677,-3.1677,-3.1677,-3.1677,-3.1677,-3.1677,-3.1677,-3.1677,-3.1677,-3.1677,-3.1677,-3.1677,-3.1677,-3.1677,-3.1677,-3.1677,-3.1677,-3.1677,-3.1677,-3.1677,-3.1677,-3.1677,-3.1677,-3.2583,-3.4607,-3.5137,-3.6252,-3.8429,-4.0808,-4.2443,-4.2887,-4.4125,-4.4927,-4.4863,-4.4336,-4.3691,-4.3691,-4.3691,-4.4494,-4.6082,-4.8122,-5.063,-5.2292,-5.3741,-5.434,-5.4386,-5.3607,-5.3268,-5.3255,-5.4567,-5.6569,-5.9228,-6.1407,-6.2933,-6.3079,-6.3194,-6.3902,-1.6978,-1.6978,-1.6978,-1.6978,-1.6978,-1.6978,-1.6978,-1.6978,-1.6978,-1.6978,-1.6978,-1.6978,-1.6978,-1.6978,-1.6978,-1.6978,-1.6978,-1.6978,-1.6978,-1.6978,-1.6978,-1.6978,-1.6978,-1.6978,-1.6978,-1.6978,-1.6978,-1.6978,-1.6978,-1.6978,-1.6951,-1.691,-1.6897,-1.687,-1.6822,-1.6815,-1.6775,-1.6673,-1.6666,-1.6592,-1.6449,-1.6361,-1.6279,-1.6225,-1.613,-1.6083,-1.6083,-1.8616,-1.997,-1.9978,-2.4064,-2.6806,-2.778,-2.9338,-3.0687,-3.1474,-3.1677,-3.1677,-3.1677,-3.1677,-3.1677,-3.1677,-3.1677,-3.1677,-3.1677,-3.1677,-3.1677,-3.1677,-3.1677,-3.1677,-3.1677,-3.1677,-3.1677,-3.1677,-3.1677,-3.1677,-3.1677,-3.1677,-3.1677,-3.1677,-3.1677,-3.2583,-3.4779,-3.5323,-3.6975,-4.0446,-4.2085,-4.3175,-4.4517,-4.5029,-4.5039,-4.4902,-4.4297,-4.3691,-4.3691,-4.3691,-4.4494,-4.6566,-4.8597,-5.0762,-5.2561,-5.4181,-5.4945,-5.4561,-5.3783,-5.3645,-5.3878,-5.5841,-5.7977,-5.9965,-6.2145,-6.2933,-6.3079,-6.3683,-6.4795,-1.6978,-1.6978,-1.6978,-1.6978,-1.6978,-1.6978,-1.6978,-1.6978,-1.6978,-1.6978,-1.6978,-1.6978,-1.6978,-1.6978,-1.6978,-1.6978,-1.6978,-1.6978,-1.6978,-1.6978,-1.6978,-1.6978,-1.6978,-1.6978,-1.6978,-1.6978,-1.6978,-1.6978,-1.6978,-1.6978,-1.6978,-1.6978,-1.6978,-1.6978,-1.6978,-1.6978,-1.6924,-1.6836,-1.6822,-1.6748,-1.6598,-1.6456,-1.6354,-1.6495,-1.6949,-1.7452,-1.7444,-2.0568,-2.2516,-2.3092,-2.6795,-2.9135,-2.9326,-3.07,-3.1677,-3.1677,-3.1677,-3.1677,-3.1677,-3.1677,-3.1677,-3.1677,-3.1677,-3.1677,-3.1677,-3.1677,-3.1677,-3.1677,-3.1677,-3.1677,-3.1677,-3.1677,-3.1677,-3.1677,-3.1677,-3.1677,-3.1677,-3.1677,-3.1677,-3.1853,-3.2583,-3.4046,-3.6051,-3.716,-3.9704,-4.3353,-4.3727,-4.4649,-4.5822,-4.5605,-4.5039,-4.4961,-4.4258,-4.4284,-4.4658,-4.5128,-4.6082,-4.7963,-4.9674,-5.1532,-5.3155,-5.4622,-5.5071,-5.4662,-5.4365,-5.4199,-5.5095,-5.7038,-5.898,-6.087,-6.2145,-6.3164,-6.3797,-6.4758,-6.6103,-1.6978,-1.6978,-1.6978,-1.6978,-1.6978,-1.6978,-1.6978,-1.6978,-1.6978,-1.6978,-1.6978,-1.6978,-1.6978,-1.6978,-1.6978,-1.6978,-1.6978,-1.6978,-1.6978,-1.6978,-1.6978,-1.6978,-1.6978,-1.6978,-1.6978,-1.6978,-1.6978,-1.6978,-1.6978,-1.6978,-1.6978,-1.6978,-1.6978,-1.6978,-1.6978,-1.6978,-1.6978,-1.6958,-1.6958,-1.689,-1.6754,-1.6592,-1.6653,-1.6919,-1.8718,-2.0175,-2.0371,-2.4851,-2.7191,-2.7576,-2.9911,-3.1664,-3.1284,-3.1664,-3.1677,-3.1677,-3.1677,-3.1677,-3.1677,-3.1677,-3.1677,-3.1677,-3.1677,-3.1677,-3.1677,-3.1677,-3.1677,-3.1677,-3.1677,-3.1677,-3.1677,-3.1677,-3.1677,-3.1677,-3.1677,-3.1677,-3.1677,-3.1677,-3.1677,-3.2043,-3.3511,-3.6066,-3.8611,-4.0446,-4.264,-4.5021,-4.5939,-4.59,-4.6152,-4.5527,-4.5098,-4.4844,-4.4778,-4.5025,-4.5941,-4.7048,-4.828,-4.9696,-5.1401,-5.3076,-5.4424,-5.5817,-5.5315,-5.4879,-5.453,-5.4492,-5.642,-5.8383,-6.0266,-6.191,-6.2788,-6.3683,-6.4738,-6.5857,-6.7536,-1.6978,-1.6978,-1.6978,-1.6978,-1.6978,-1.6978,-1.6978,-1.6978,-1.6978,-1.6978,-1.6978,-1.6978,-1.6978,-1.6978,-1.6978,-1.6978,-1.6978,-1.6978,-1.6978,-1.6978,-1.6978,-1.6978,-1.6978,-1.6978,-1.6978,-1.6978,-1.6978,-1.6978,-1.6978,-1.6978,-1.6978,-1.6978,-1.6978,-1.6978,-1.6978,-1.6978,-1.6978,-1.6978,-1.6978,-1.6951,-1.6883,-1.6653,-1.7305,-1.9235,-2.1524,-2.3491,-2.5238,-2.6999,-2.778,-2.7972,-3.0306,-3.1677,-3.1677,-3.1677,-3.1677,-3.1677,-3.1677,-3.1677,-3.1677,-3.1677,-3.1677,-3.1677,-3.1677,-3.1677,-3.1677,-3.1677,-3.1677,-3.1677,-3.1677,-3.1677,-3.1677,-3.1677,-3.1677,-3.1677,-3.1677,-3.1677,-3.1677,-3.1677,-3.1677,-3.2043,-3.3873,-3.6252,-3.8811,-4.1169,-4.3727,-4.5744,-4.6308,-4.623,-4.5879,-4.543,-4.4902,-4.4609,-4.5018,-4.6082,-4.7507,-4.9069,-5.0762,-5.1555,-5.2949,-5.4025,-5.5361,-5.5993,-5.5465,-5.5228,-5.5006,-5.5842,-5.7734,-5.9532,-6.1407,-6.2468,-6.3109,-6.4288,-6.562,-6.7237,-6.9124,-1.6978,-1.6978,-1.6978,-1.6978,-1.6978,-1.6978,-1.6978,-1.6978,-1.6978,-1.6978,-1.6978,-1.6978,-1.6978,-1.6978,-1.6978,-1.6978,-1.6978,-1.6978,-1.6978,-1.6978,-1.6978,-1.6978,-1.6978,-1.6978,-1.6978,-1.6978,-1.6978,-1.6978,-1.6978,-1.6978,-1.6978,-1.6978,-1.6978,-1.6978,-1.6978,-1.6978,-1.6978,-1.6978,-1.6978,-1.7391,-1.8157,-1.81,-1.9135,-2.1885,-2.4113,-2.6045,-2.778,-2.8752,-2.9326,-2.9529,-3.089,-3.1677,-3.1677,-3.1677,-3.1677,-3.1677,-3.1677,-3.1677,-3.1677,-3.1677,-3.1677,-3.1677,-3.1677,-3.1677,-3.1677,-3.1677,-3.1677,-3.1677,-3.1677,-3.1677,-3.1677,-3.1677,-3.1677,-3.1677,-3.1677,-3.1677,-3.1677,-3.1677,-3.2219,-3.3323,-3.5323,-3.7528,-4.0084,-4.2461,-4.4454,-4.5939,-4.6308,-4.6152,-4.5742,-4.5312,-4.5033,-4.525,-4.6086,-4.7432,-4.9227,-5.1093,-5.31,-5.3726,-5.4348,-5.5115,-5.5876,-5.6143,-5.5937,-5.6287,-5.6258,-5.7445,-5.9177,-6.0716,-6.2321,-6.2877,-6.3985,-6.5472,-6.7134,-6.9061,-7.0888,-1.6978,-1.6978,-1.6978,-1.6978,-1.6978,-1.6978,-1.6978,-1.6978,-1.6978,-1.6978,-1.6978,-1.6978,-1.6978,-1.6978,-1.6978,-1.6978,-1.6978,-1.6978,-1.6978,-1.6978,-1.6978,-1.6978,-1.6978,-1.6978,-1.6978,-1.6978,-1.6978,-1.6978,-1.6978,-1.6978,-1.6978,-1.6978,-1.6978,-1.6978,-1.6978,-1.6978,-1.6978,-1.6978,-1.6978,-1.8215,-2.0239,-2.0331,-2.1528,-2.4088,-2.6276,-2.778,-2.856,-3.0306,-3.1474,-3.1664,-3.1664,-3.1677,-3.1677,-3.1677,-3.1677,-3.1677,-3.1677,-3.1677,-3.1677,-3.1677,-3.1677,-3.1677,-3.1677,-3.1677,-3.1677,-3.1677,-3.1677,-3.1677,-3.1677,-3.1677,-3.1677,-3.1677,-3.1677,-3.1677,-3.1677,-3.1677,-3.1677,-3.1677,-3.2583,-3.4779,-3.7344,-3.9903,-4.1905,-4.4473,-4.5763,-4.6308,-4.6289,-4.6094,-4.5644,-4.5366,-4.5837,-4.6372,-4.7062,-4.8907,-5.0853,-5.2646,-5.4497,-5.4819,-5.5287,-5.5729,-5.6264,-5.6479,-5.6616,-5.7111,-5.813,-5.9289,-6.0508,-6.1932,-6.3354,-6.4407,-6.5678,-6.7199,-6.8872,-7.081,-7.2249,-1.6978,-1.6978,-1.6978,-1.6978,-1.6978,-1.6978,-1.6978,-1.6978,-1.6978,-1.6978,-1.6978,-1.6978,-1.6978,-1.6978,-1.6978,-1.6978,-1.6978,-1.6978,-1.6978,-1.6978,-1.6978,-1.6978,-1.6978,-1.6978,-1.6978,-1.6978,-1.6978,-1.6978,-1.6978,-1.6978,-1.6978,-1.6978,-1.6978,-1.6978,-1.6978,-1.6978,-1.6978,-1.6978,-1.6978,-1.7336,-1.8233,-1.9865,-2.1676,-2.4087,-2.6577,-2.8764,-3.0306,-3.1284,-3.1677,-3.1677,-3.1677,-3.1677,-3.1677,-3.1677,-3.1677,-3.1677,-3.1677,-3.1677,-3.1677,-3.1677,-3.1677,-3.1677,-3.1677,-3.1677,-3.1677,-3.1677,-3.1677,-3.1677,-3.1677,-3.1677,-3.1677,-3.1677,-3.1677,-3.1677,-3.1677,-3.1677,-3.1677,-3.1867,-3.2583,-3.4966,-3.7528,-4.0084,-4.2621,-4.4649,-4.6308,-4.6308,-4.623,-4.6016,-4.5469,-4.5608,-4.6072,-4.7051,-4.8136,-5.0277,-5.233,-5.4248,-5.5435,-5.5754,-5.6047,-5.6047,-5.6743,-5.7255,-5.7562,-5.7958,-5.9862,-6.1326,-6.2196,-6.3289,-6.4575,-6.591,-6.702,-6.8387,-7.0461,-7.238,-7.3408,-1.6978,-1.6978,-1.6978,-1.6978,-1.6978,-1.6978,-1.6978,-1.6978,-1.6978,-1.6978,-1.6978,-1.6978,-1.6978,-1.6978,-1.6978,-1.6978,-1.6978,-1.6978,-1.6978,-1.6978,-1.6978,-1.6978,-1.6978,-1.6978,-1.6978,-1.6978,-1.6978,-1.6978,-1.6978,-1.6978,-1.6978,-1.6978,-1.6978,-1.6978,-1.6978,-1.6978,-1.6978,-1.6978,-1.7181,-1.7732,-2.0003,-2.1238,-2.4038,-2.6778,-2.8885,-3.0306,-3.1474,-3.1677,-3.1677,-3.1677,-3.1677,-3.1677,-3.1677,-3.1677,-3.1677,-3.1677,-3.1677,-3.1677,-3.1677,-3.1677,-3.1677,-3.1677,-3.1677,-3.1677,-3.1677,-3.1677,-3.1677,-3.1677,-3.1677,-3.1677,-3.1677,-3.1677,-3.1677,-3.1677,-3.1677,-3.1677,-3.1677,-3.2583,-3.4233,-3.6606,-3.8993,-4.1366,-4.3727,-4.5373,-4.6114,-4.6269,-4.6094,-4.5703,-4.5195,-4.5599,-4.6637,-4.8068,-4.9826,-5.1916,-5.3521,-5.5164,-5.6022,-5.634,-5.7824,-5.7707,-5.7978,-5.8699,-5.9424,-6.0368,-6.1868,-6.3159,-6.3965,-6.4845,-6.6052,-6.7198,-6.8296,-7.0022,-7.2106,-7.3672,-7.4753,-1.6978,-1.6978,-1.6978,-1.6978,-1.6978,-1.6978,-1.6978,-1.6978,-1.6978,-1.6978,-1.6978,-1.6978,-1.6978,-1.6978,-1.6978,-1.6978,-1.6978,-1.6978,-1.6978,-1.6978,-1.6978,-1.6978,-1.6978,-1.6978,-1.6978,-1.6978,-1.6978,-1.6978,-1.6978,-1.6978,-1.6978,-1.6978,-1.6978,-1.6978,-1.6978,-1.6978,-1.6978,-1.7181,-1.7559,-1.9513,-2.2572,-2.3977,-2.6529,-2.9455,-3.0829,-3.1284,-3.1664,-3.1677,-3.1677,-3.1677,-3.1677,-3.1677,-3.1677,-3.1677,-3.1677,-3.1677,-3.1677,-3.1677,-3.1677,-3.1677,-3.1677,-3.1677,-3.1677,-3.1677,-3.1677,-3.1677,-3.1677,-3.1677,-3.1677,-3.1677,-3.1677,-3.1677,-3.1677,-3.1677,-3.1677,-3.1664,-3.2394,-3.4046,-3.6236,-3.8977,-4.1349,-4.3549,-4.5373,-4.6308,-4.6289,-4.6055,-4.6052,-4.5832,-4.5847,-4.6471,-4.799,-5.0162,-5.1901,-5.3624,-5.4819,-5.6072,-5.6485,-5.704,-5.9296,-6.0127,-6.0401,-6.1026,-6.2061,-6.3136,-6.4356,-6.5136,-6.5802,-6.6656,-6.7807,-6.9162,-7.0717,-7.2228,-7.3974,-7.5012,-7.6036,-1.6978,-1.6978,-1.6978,-1.6978,-1.6978,-1.6978,-1.6978,-1.6978,-1.6978,-1.6978,-1.6978,-1.6978,-1.6978,-1.6978,-1.6978,-1.6978,-1.6978,-1.6978,-1.6978,-1.6978,-1.6978,-1.6978,-1.6978,-1.6978,-1.6978,-1.6978,-1.6978,-1.6978,-1.6978,-1.6978,-1.6978,-1.6978,-1.6978,-1.6978,-1.6978,-1.6978,-1.6978,-1.737,-1.8707,-2.0184,-2.2214,-2.5398,-2.7743,-2.927,-3.0726,-3.1677,-3.1677,-3.1677,-3.1677,-3.1677,-3.1677,-3.1677,-3.1677,-3.1677,-3.1677,-3.1677,-3.1677,-3.1677,-3.1677,-3.1677,-3.1677,-3.1677,-3.1677,-3.1677,-3.1677,-3.1677,-3.1677,-3.1677,-3.1677,-3.1677,-3.1677,-3.1677,-3.1677,-3.1677,-3.1677,-3.2597,-3.4233,-3.4966,-3.7344,-4.0446,-4.2264,-4.3549,-4.5939,-4.6269,-4.6133,-4.5879,-4.6082,-4.6106,-4.6674,-4.7337,-4.9366,-5.1707,-5.3058,-5.4497,-5.541,-5.675,-5.7824,-5.8648,-6.0784,-6.2529,-6.2661,-6.3289,-6.4277,-6.5411,-6.655,-6.7213,-6.7326,-6.9233,-7.0472,-7.1819,-7.2897,-7.4106,-7.531,-7.6382,-7.7283,-1.6978,-1.6978,-1.6978,-1.6978,-1.6978,-1.6978,-1.6978,-1.6978,-1.6978,-1.6978,-1.6978,-1.6978,-1.6978,-1.6978,-1.6978,-1.6978,-1.6978,-1.6978,-1.6978,-1.6978,-1.6978,-1.6978,-1.6978,-1.6978,-1.6978,-1.6978,-1.6978,-1.6978,-1.6978,-1.6978,-1.6978,-1.6978,-1.6978,-1.6978,-1.6978,-1.6978,-1.6937,-1.728,-1.9236,-2.1087,-2.2622,-2.5852,-2.8813,-2.9579,-3.089,-3.1677,-3.1677,-3.1677,-3.1677,-3.1677,-3.1677,-3.1677,-3.1677,-3.1677,-3.1677,-3.1677,-3.1677,-3.1677,-3.1677,-3.1677,-3.1677,-3.1677,-3.1677,-3.1677,-3.1677,-3.1677,-3.1677,-3.1677,-3.1677,-3.1677,-3.1677,-3.1677,-3.1677,-3.1677,-3.1677,-3.3135,-3.6066,-3.6975,-3.8246,-4.1905,-4.3727,-4.4826,-4.5919,-4.6152,-4.5957,-4.5683,-4.6522,-4.6864,-4.7996,-4.8864,-5.0748,-5.2623,-5.3846,-5.5115,-5.6022,-5.7421,-5.9322,-6.0648,-6.2661,-6.4153,-6.4949,-6.5676,-6.6485,-6.7155,-6.7818,-6.8298,-6.8883,-7.0949,-7.2485,-7.3089,-7.394,-7.5344,-7.6439,-7.7071,-7.8161,-1.6978,-1.6978,-1.6978,-1.6978,-1.6978,-1.6978,-1.6978,-1.6978,-1.6978,-1.6978,-1.6978,-1.6978,-1.6978,-1.6978,-1.6978,-1.6978,-1.6978,-1.6978,-1.6978,-1.6978,-1.6978,-1.6978,-1.6978,-1.6978,-1.6978,-1.6978,-1.6978,-1.6978,-1.6978,-1.6978,-1.6978,-1.6978,-1.6978,-1.6978,-1.6978,-1.6971,-1.7322,-1.8011,-2.0364,-2.2608,-2.468,-2.7318,-2.9704,-3.0942,-3.1474,-3.1677,-3.1677,-3.1677,-3.1677,-3.1677,-3.1677,-3.1677,-3.1677,-3.1677,-3.1677,-3.1677,-3.1677,-3.1677,-3.1677,-3.1677,-3.1677,-3.1677,-3.1677,-3.1677,-3.1677,-3.1677,-3.1677,-3.1677,-3.1677,-3.1677,-3.1677,-3.1677,-3.1677,-3.1853,-3.1853,-3.442,-3.7712,-3.9175,-4.0808,-4.2996,-4.463,-4.5725,-4.5919,-4.5937,-4.5723,-4.5753,-4.6552,-4.7638,-4.8778,-5.0075,-5.1809,-5.3617,-5.4868,-5.6093,-5.7133,-5.9462,-6.1191,-6.2396,-6.441,-6.5706,-6.6879,-6.7427,-6.7907,-6.812,-6.8689,-6.9457,-7.074,-7.255,-7.3665,-7.4038,-7.5123,-7.6496,-7.7213,-7.7736,-7.9028,-1.6978,-1.6978,-1.6978,-1.6978,-1.6978,-1.6978,-1.6978,-1.6978,-1.6978,-1.6978,-1.6978,-1.6978,-1.6978,-1.6978,-1.6978,-1.6978,-1.6978,-1.6978,-1.6978,-1.6978,-1.6978,-1.6978,-1.6978,-1.6978,-1.6978,-1.6978,-1.6978,-1.6978,-1.6978,-1.6978,-1.6978,-1.6978,-1.6978,-1.6978,-1.6978,-1.7174,-1.7905,-1.9561,-2.1855,-2.4436,-2.6973,-2.9332,-3.0981,-3.1677,-3.1677,-3.1677,-3.1677,-3.1677,-3.1677,-3.1677,-3.1677,-3.1677,-3.1677,-3.1677,-3.1677,-3.1677,-3.1677,-3.1677,-3.1677,-3.1677,-3.1677,-3.1677,-3.1677,-3.1677,-3.1677,-3.1677,-3.1677,-3.1677,-3.1677,-3.1677,-3.1677,-3.1677,-3.1853,-3.2219,-3.3497,-3.5695,-3.8628,-4.0593,-4.2585,-4.4731,-4.5667,-4.6172,-4.5918,-4.5625,-4.5273,-4.5489,-4.6288,-4.7771,-4.9289,-5.0633,-5.226,-5.4098,-5.5926,-5.7133,-5.8224,-6.1326,-6.3606,-6.3995,-6.558,-6.7033,-6.8057,-6.8618,-6.9147,-6.9672,-7.074,-7.1945,-7.3168,-7.4206,-7.506,-7.5722,-7.6734,-7.765,-7.8506,-7.9309,-8.0222,-1.6978,-1.6978,-1.6978,-1.6978,-1.6978,-1.6978,-1.6978,-1.6978,-1.6978,-1.6978,-1.6978,-1.6978,-1.6978,-1.6978,-1.6978,-1.6978,-1.6978,-1.6978,-1.6978,-1.6978,-1.6978,-1.6978,-1.6978,-1.6978,-1.6978,-1.6978,-1.6978,-1.6978,-1.6978,-1.6978,-1.6978,-1.6978,-1.6978,-1.6978,-1.6951,-1.689,-1.8211,-2.0468,-2.2888,-2.5447,-2.7991,-3.0357,-3.1487,-3.1677,-3.1677,-3.1677,-3.1677,-3.1677,-3.1677,-3.1677,-3.1677,-3.1677,-3.1677,-3.1677,-3.1677,-3.1677,-3.1677,-3.1677,-3.1677,-3.1677,-3.1677,-3.1677,-3.1677,-3.1677,-3.1677,-3.1677,-3.1677,-3.1677,-3.1677,-3.1677,-3.1677,-3.1677,-3.2219,-3.3511,-3.4764,-3.696,-3.9835,-4.1532,-4.3625,-4.5609,-4.5705,-4.5801,-4.5703,-4.5332,-4.4863,-4.531,-4.6127,-4.7923,-5.0009,-5.1555,-5.31,-5.5041,-5.7159,-5.8648,-5.9989,-6.2529,-6.5173,-6.5955,-6.6697,-6.8176,-6.9432,-7.0199,-7.1059,-7.1853,-7.3037,-7.4064,-7.4273,-7.482,-7.6074,-7.7285,-7.7922,-7.8705,-7.9884,-8.091,-8.1666,-1.6978,-1.6978,-1.6978,-1.6978,-1.6978,-1.6978,-1.6978,-1.6978,-1.6978,-1.6978,-1.6978,-1.6978,-1.6978,-1.6978,-1.6978,-1.6978,-1.6978,-1.6978,-1.6978,-1.6978,-1.6978,-1.6978,-1.6978,-1.6978,-1.6978,-1.6978,-1.6978,-1.6978,-1.6978,-1.6978,-1.6978,-1.6978,-1.6978,-1.6951,-1.6904,-1.6822,-1.8283,-2.0906,-2.2926,-2.5473,-2.8416,-3.0496,-3.1677,-3.1677,-3.1677,-3.1677,-3.1677,-3.1677,-3.1677,-3.1677,-3.1677,-3.1677,-3.1677,-3.1677,-3.1677,-3.1677,-3.1677,-3.1677,-3.1677,-3.1677,-3.1677,-3.1677,-3.1677,-3.1677,-3.1677,-3.1677,-3.1677,-3.1677,-3.1677,-3.1677,-3.1677,-3.1677,-3.296,-3.4578,-3.582,-3.7385,-4.0728,-4.2755,-4.3584,-4.4972,-4.5297,-4.5351,-4.5346,-4.6165,-4.583,-4.6332,-4.728,-4.9267,-5.1224,-5.2774,-5.4473,-5.6504,-5.8366,-6.0264,-6.1864,-6.3606,-6.5955,-6.7306,-6.7996,-6.9201,-7.0648,-7.1961,-7.2704,-7.3533,-7.4505,-7.5291,-7.5391,-7.5766,-7.7094,-7.8201,-7.8832,-7.9849,-8.115,-8.1884,-8.2425,-1.6978,-1.6978,-1.6978,-1.6978,-1.6978,-1.6978,-1.6978,-1.6978,-1.6978,-1.6978,-1.6978,-1.6978,-1.6978,-1.6978,-1.6978,-1.6978,-1.6978,-1.6978,-1.6978,-1.6978,-1.6978,-1.6978,-1.6978,-1.6978,-1.6978,-1.6978,-1.6978,-1.6978,-1.6978,-1.6978,-1.6978,-1.6978,-1.6958,-1.6924,-1.6809,-1.6727,-1.923,-2.2746,-2.4026,-2.6449,-3.0153,-3.1284,-3.1677,-3.1677,-3.1677,-3.1677,-3.1677,-3.1677,-3.1677,-3.1677,-3.1677,-3.1677,-3.1677,-3.1677,-3.1677,-3.1677,-3.1677,-3.1677,-3.1677,-3.1677,-3.1677,-3.1677,-3.1677,-3.1677,-3.1677,-3.1677,-3.1677,-3.1677,-3.1677,-3.1677,-3.1664,-3.165,-3.2947,-3.5018,-3.6861,-3.8924,-4.1691,-4.3397,-4.4243,-4.4431,-4.4902,-4.4876,-4.4848,-4.6186,-4.7129,-4.7623,-4.8482,-5.0475,-5.2447,-5.4126,-5.5629,-5.7512,-5.9851,-6.173,-6.2953,-6.4822,-6.6574,-6.8413,-6.9317,-7.0199,-7.1713,-7.3121,-7.414,-7.4996,-7.5798,-7.6656,-7.7181,-7.7727,-7.8423,-7.9209,-8.0038,-8.1287,-8.2645,-8.3057,-8.3321,-1.6978,-1.6978,-1.6978,-1.6978,-1.6978,-1.6978,-1.6978,-1.6978,-1.6978,-1.6978,-1.6978,-1.6978,-1.6978,-1.6978,-1.6978,-1.6978,-1.6978,-1.6978,-1.6978,-1.6978,-1.6978,-1.6978,-1.6978,-1.6978,-1.6978,-1.6978,-1.6978,-1.6978,-1.6978,-1.6971,-1.6978,-1.6958,-1.6897,-1.6822,-1.6707,-1.6605,-1.9468,-2.3444,-2.6644,-2.8669,-2.9746,-3.089,-3.1677,-3.1677,-3.1677,-3.1677,-3.1677,-3.1677,-3.1677,-3.1677,-3.1677,-3.1677,-3.1677,-3.1677,-3.1677,-3.1677,-3.1677,-3.1677,-3.1677,-3.1677,-3.1677,-3.1677,-3.1677,-3.1677,-3.1677,-3.1677,-3.1677,-3.1677,-3.1677,-3.1664,-3.161,-3.1517,-3.3815,-3.5868,-3.763,-4.0384,-4.2362,-4.3462,-4.446,-4.4492,-4.4503,-4.4865,-4.5552,-4.692,-4.7965,-4.8294,-4.9696,-5.2014,-5.3953,-5.5701,-5.7056,-5.834,-6.092,-6.3346,-6.4281,-6.5484,-6.7185,-6.8883,-7.0312,-7.1278,-7.2914,-7.4206,-7.5157,-7.6011,-7.6622,-7.7615,-7.867,-7.9215,-7.9681,-8.0476,-8.136,-8.2363,-8.3378,-8.4141,-8.4438,-1.6978,-1.6978,-1.6978,-1.6978,-1.6978,-1.6978,-1.6978,-1.6978,-1.6978,-1.6978,-1.6978,-1.6978,-1.6978,-1.6978,-1.6978,-1.6978,-1.6978,-1.6978,-1.6978,-1.6978,-1.6978,-1.6978,-1.6978,-1.6978,-1.6978,-1.6978,-1.6978,-1.6951,-1.6917,-1.6917,-1.6904,-1.6917,-1.6822,-1.67,-1.6605,-1.6884,-1.893,-2.3856,-2.8824,-3.0319,-2.9911,-3.089,-3.1474,-3.1677,-3.1677,-3.1677,-3.1677,-3.1677,-3.1677,-3.1677,-3.1677,-3.1677,-3.1677,-3.1677,-3.1677,-3.1677,-3.1677,-3.1677,-3.1677,-3.1677,-3.1677,-3.1677,-3.1677,-3.1677,-3.1677,-3.1677,-3.1677,-3.1677,-3.1557,-3.1557,-3.1679,-3.1651,-3.422,-3.6585,-3.8518,-4.1413,-4.3557,-4.3967,-4.4425,-4.4454,-4.4647,-4.5657,-4.6509,-4.7868,-4.8776,-4.9069,-5.0916,-5.3251,-5.5164,-5.7031,-5.8569,-5.9712,-6.1864,-6.4281,-6.561,-6.6634,-6.8057,-6.9432,-7.0838,-7.2388,-7.4005,-7.5157,-7.6163,-7.6892,-7.7563,-7.8623,-7.9732,-8.0262,-8.0771,-8.1599,-8.24,-8.302,-8.3876,-8.4696,-8.5358,-1.6978,-1.6978,-1.6978,-1.6978,-1.6978,-1.6978,-1.6978,-1.6978,-1.6978,-1.6978,-1.6978,-1.6978,-1.6978,-1.6978,-1.6978,-1.6978,-1.6978,-1.6978,-1.6978,-1.6978,-1.6978,-1.6978,-1.6978,-1.6978,-1.6971,-1.6958,-1.6944,-1.687,-1.6795,-1.6768,-1.6761,-1.6754,-1.6686,-1.6551,-1.6842,-1.735,-1.9131,-2.385,-2.8833,-3.1284,-3.089,-3.1284,-3.1677,-3.1677,-3.1677,-3.1677,-3.1677,-3.1677,-3.1677,-3.1677,-3.1677,-3.1677,-3.1677,-3.1677,-3.1677,-3.1677,-3.1677,-3.1677,-3.1677,-3.1677,-3.1677,-3.1677,-3.1677,-3.165,-3.1597,-3.1637,-3.1664,-3.157,-3.1356,-3.145,-3.1902,-3.3002,-3.4955,-3.7483,-3.96,-4.1341,-4.3101,-4.3748,-4.4052,-4.4265,-4.5169,-4.6405,-4.828,-4.983,-5.0607,-5.0916,-5.2599,-5.5115,-5.6359,-5.8056,-5.9686,-6.1326,-6.3084,-6.4949,-6.6663,-6.7998,-6.9085,-7.0616,-7.2036,-7.3566,-7.5064,-7.6173,-7.6892,-7.7822,-7.8541,-7.9691,-8.0623,-8.1073,-8.1728,-8.2594,-8.3378,-8.3979,-8.4597,-8.5397,-8.5892,-1.6978,-1.6978,-1.6978,-1.6978,-1.6978,-1.6978,-1.6978,-1.6978,-1.6978,-1.6978,-1.6978,-1.6978,-1.6978,-1.6978,-1.6978,-1.6978,-1.6978,-1.6978,-1.6978,-1.6978,-1.6978,-1.6978,-1.6978,-1.6958,-1.6937,-1.6863,-1.6829,-1.6761,-1.6619,-1.6612,-1.6537,-1.651,-1.6497,-1.6429,-1.6724,-1.8789,-2.1076,-2.301,-2.7736,-3.108,-2.9721,-3.108,-3.1677,-3.1677,-3.1677,-3.1677,-3.1677,-3.1677,-3.1677,-3.1677,-3.1677,-3.1677,-3.1677,-3.1677,-3.1677,-3.1677,-3.1677,-3.1677,-3.1677,-3.1677,-3.1677,-3.1677,-3.1664,-3.1597,-3.1436,-3.1396,-3.1276,-3.1156,-3.1235,-3.1498,-3.3071,-3.372,-3.5095,-3.8366,-4.0493,-4.2012,-4.2907,-4.3604,-4.4514,-4.5148,-4.6405,-4.7804,-4.983,-5.2014,-5.2471,-5.31,-5.4942,-5.6605,-5.7707,-5.9322,-6.1056,-6.2765,-6.4509,-6.6144,-6.7848,-6.8969,-7.0168,-7.1713,-7.3258,-7.4306,-7.558,-7.6565,-7.7389,-7.8411,-7.9458,-8.0551,-8.1364,-8.1864,-8.2499,-8.3152,-8.3979,-8.4785,-8.5436,-8.6035,-8.6296,-1.6978,-1.6978,-1.6978,-1.6978,-1.6978,-1.6978,-1.6978,-1.6978,-1.6978,-1.6978,-1.6978,-1.6978,-1.6978,-1.6978,-1.6978,-1.6978,-1.6978,-1.6978,-1.6978,-1.6978,-1.6978,-1.6951,-1.6917,-1.687,-1.6802,-1.6707,-1.6666,-1.6605,-1.6463,-1.6463,-1.6374,-1.6293,-1.6246,-1.6239,-1.7399,-2.0826,-2.3272,-2.4419,-2.7451,-3.089,-2.9529,-3.07,-3.1677,-3.1677,-3.1677,-3.1677,-3.1677,-3.1677,-3.1677,-3.1677,-3.1677,-3.1677,-3.1677,-3.1677,-3.1677,-3.1677,-3.1664,-3.1664,-3.1664,-3.1677,-3.1623,-3.1517,-3.1517,-3.1356,-3.1183,-3.1102,-3.1009,-3.106,-3.128,-3.2435,-3.4367,-3.5327,-3.6878,-3.9919,-4.1413,-4.2773,-4.3125,-4.3876,-4.5128,-4.6061,-4.7645,-4.9204,-5.1378,-5.3401,-5.4175,-5.4745,-5.6359,-5.7707,-5.8507,-6.0401,-6.2529,-6.4224,-6.605,-6.7517,-6.8969,-7.0392,-7.1821,-7.2461,-7.3871,-7.4638,-7.5703,-7.6802,-7.7822,-7.8705,-7.9844,-8.1226,-8.2095,-8.2765,-8.3115,-8.3488,-8.4467,-8.5475,-8.5817,-8.6329,-8.6483,-1.6978,-1.6978,-1.6978,-1.6978,-1.6978,-1.6978,-1.6978,-1.6978,-1.6978,-1.6978,-1.6978,-1.6978,-1.6978,-1.6978,-1.6978,-1.6965,-1.6944,-1.6951,-1.6937,-1.691,-1.6694,-1.6654,-1.6775,-1.67,-1.6632,-1.6551,-1.6517,-1.6456,-1.6313,-1.6313,-1.6225,-1.635,-1.6522,-1.6708,-1.6679,-2.1361,-2.4939,-2.751,-3.0191,-3.1054,-3.1284,-3.1474,-3.1677,-3.1677,-3.1677,-3.1677,-3.1677,-3.1677,-3.1677,-3.1677,-3.1677,-3.1677,-3.1677,-3.1677,-3.1677,-3.1677,-3.165,-3.1637,-3.1637,-3.165,-3.1476,-3.1289,-3.1263,-3.1129,-3.0902,-3.0808,-3.111,-3.13,-3.2432,-3.3546,-3.5332,-3.7268,-3.9213,-4.0855,-4.2345,-4.301,-4.3526,-4.4494,-4.5758,-4.7645,-4.9204,-5.0762,-5.2774,-5.4646,-5.5582,-5.658,-5.7966,-5.8903,-5.9574,-6.1326,-6.3606,-6.5425,-6.7063,-6.8439,-6.9973,-7.2036,-7.3328,-7.3871,-7.4571,-7.5479,-7.6565,-7.7822,-7.8659,-7.9222,-8.0515,-8.2095,-8.292,-8.3667,-8.4029,-8.4467,-8.52,-8.5992,-8.6324,-8.6538,-8.667,-1.6978,-1.6978,-1.6978,-1.6978,-1.6978,-1.6978,-1.6978,-1.6978,-1.6978,-1.6978,-1.6978,-1.6978,-1.6978,-1.6978,-1.6958,-1.6924,-1.6627,-1.6822,-1.6802,-1.6693,-1.654,-1.6487,-1.6605,-1.6517,-1.6449,-1.6402,-1.6368,-1.6307,-1.6157,-1.6171,-1.6151,-1.6282,-1.8031,-1.86,-1.9568,-2.2283,-2.5142,-2.7724,-3.0165,-3.1677,-3.1677,-3.1677,-3.1677,-3.1677,-3.1677,-3.1677,-3.1677,-3.1677,-3.1677,-3.1677,-3.1677,-3.1677,-3.1677,-3.1677,-3.1664,-3.161,-3.153,-3.1276,-3.1156,-3.1076,-3.1049,-3.0982,-3.0996,-3.0889,-3.0581,-3.0581,-3.1163,-3.2233,-3.3176,-3.4968,-3.798,-3.899,-4.0632,-4.2345,-4.3526,-4.3526,-4.4021,-4.5271,-4.6846,-4.9047,-5.0762,-5.2622,-5.4646,-5.5654,-5.6725,-5.7824,-5.9043,-6.0127,-6.092,-6.2529,-6.4567,-6.6204,-6.7848,-6.9286,-7.087,-7.2809,-7.4206,-7.4736,-7.5635,-7.6622,-7.7736,-7.8577,-7.9501,-8.011,-8.1526,-8.2994,-8.3559,-8.4179,-8.4872,-8.5475,-8.5958,-8.6247,-8.644,-8.6645,-8.679,-1.6978,-1.6978,-1.6978,-1.6978,-1.6978,-1.6978,-1.6978,-1.6978,-1.6978,-1.6978,-1.6978,-1.6978,-1.6944,-1.6917,-1.689,-1.6815,-1.6467,-1.6666,-1.6653,-1.653,-1.6379,-1.6339,-1.6449,-1.6341,-1.6273,-1.6239,-1.6225,-1.6171,-1.6103,-1.6083,-1.6665,-1.8038,-1.9978,-2.1912,-2.3072,-2.5013,-2.6738,-2.9189,-3.1231,-3.1677,-3.1677,-3.1677,-3.1677,-3.1677,-3.1677,-3.1677,-3.1677,-3.1677,-3.1677,-3.1677,-3.1677,-3.1677,-3.1677,-3.1664,-3.1623,-3.1476,-3.1236,-3.0955,-3.0742,-3.0675,-3.0621,-3.0474,-3.0504,-3.0595,-3.0314,-3.0247,-3.1567,-3.2645,-3.3922,-3.6658,-3.9413,-4.0427,-4.1974,-4.3691,-4.3691,-4.3691,-4.433,-4.5596,-4.7666,-4.9853,-5.2014,-5.4025,-5.6022,-5.6844,-5.7681,-5.8903,-5.9962,-6.1191,-6.2264,-6.3894,-6.558,-6.7185,-6.8852,-7.0424,-7.1929,-7.3566,-7.4736,-7.558,-7.6508,-7.7424,-7.7992,-7.8705,-7.9884,-8.1048,-8.2176,-8.3266,-8.3992,-8.4696,-8.5436,-8.589,-8.618,-8.6401,-8.6588,-8.6761,-8.6906,-1.6978,-1.6978,-1.6978,-1.6978,-1.6978,-1.6978,-1.6978,-1.6978,-1.6978,-1.6971,-1.6965,-1.6951,-1.6876,-1.6975,-1.6748,-1.6653,-1.6537,-1.6524,-1.649,-1.6469,-1.6245,-1.6381,-1.6293,-1.6178,-1.6144,-1.611,-1.6103,-1.6123,-1.6083,-1.6864,-1.8031,-2.0175,-2.2711,-2.5034,-2.6795,-2.7948,-2.911,-3.0648,-3.1244,-3.1677,-3.1677,-3.1677,-3.1677,-3.1677,-3.1677,-3.1677,-3.1677,-3.1677,-3.1677,-3.1677,-3.1677,-3.1677,-3.1664,-3.1664,-3.1463,-3.1209,-3.0902,-3.0648,-3.0408,-3.0354,-3.0261,-3.014,-3.0247,-3.014,-3.024,-3.0519,-3.2218,-3.4113,-3.5793,-3.8015,-4.0259,-4.1807,-4.3176,-4.3691,-4.3691,-4.4021,-4.4514,-4.6103,-4.8165,-5.0342,-5.2494,-5.4473,-5.641,-5.7707,-5.8789,-6.0511,-6.1864,-6.3084,-6.4153,-6.5232,-6.6879,-6.8321,-6.9973,-7.1605,-7.3121,-7.4306,-7.5383,-7.6173,-7.7016,-7.7907,-7.8376,-7.9309,-8.0659,-8.1856,-8.2668,-8.3629,-8.4613,-8.5397,-8.6,-8.6324,-8.644,-8.6632,-8.6819,-8.6929,-8.7086,-1.6978,-1.6978,-1.6978,-1.6978,-1.6978,-1.6978,-1.6978,-1.6978,-1.6978,-1.6931,-1.6815,-1.6815,-1.6941,-1.7016,-1.6592,-1.649,-1.6415,-1.6354,-1.6286,-1.6266,-1.6252,-1.6191,-1.6144,-1.611,-1.6083,-1.6083,-1.6083,-1.6083,-1.6665,-1.7444,-1.9978,-2.2711,-2.4851,-2.7576,-2.9326,-3.0496,-3.108,-3.1474,-3.1677,-3.1677,-3.1677,-3.1677,-3.1677,-3.1677,-3.1677,-3.1677,-3.1677,-3.1677,-3.1677,-3.1677,-3.1677,-3.1677,-3.1664,-3.1463,-3.1183,-3.0675,-3.0488,-3.0354,-3.0114,-3.0047,-3.0007,-2.9953,-3.002,-2.9993,-3.0258,-3.1423,-3.3305,-3.5588,-3.7501,-3.9564,-4.1249,-4.2787,-4.3613,-4.3594,-4.3739,-4.4211,-4.5068,-4.7196,-4.9403,-5.1884,-5.4025,-5.5483,-5.7421,-5.8507,-5.9712,-6.1864,-6.3606,-6.4822,-6.586,-6.6786,-6.7968,-6.9401,-7.0838,-7.2388,-7.3566,-7.4736,-7.5824,-7.6747,-7.7736,-7.8705,-7.9614,-8.0587,-8.1732,-8.2728,-8.3697,-8.4613,-8.5551,-8.6103,-8.6363,-8.6555,-8.6671,-8.6858,-8.7006,-8.7108,-8.7174,-1.6978,-1.6978,-1.6978,-1.6978,-1.6971,-1.6917,-1.689,-1.689,-1.689,-1.6829,-1.6748,-1.6686,-1.679,-1.6666,-1.6435,-1.6361,-1.6225,-1.6212,-1.6178,-1.6137,-1.6083,-1.609,-1.6083,-1.6083,-1.6083,-1.6083,-1.6083,-1.6083,-1.6864,-1.8616,-2.0951,-2.2126,-2.5636,-2.8356,-2.9721,-3.07,-3.1474,-3.1677,-3.1677,-3.1677,-3.1677,-3.1677,-3.1677,-3.1677,-3.1677,-3.1677,-3.1677,-3.1677,-3.1677,-3.1677,-3.1677,-3.1597,-3.145,-3.1116,-3.0835,-3.0394,-3.0234,-3.014,-2.998,-2.994,-2.9927,-2.9913,-2.9913,-3.0616,-3.1479,-3.2646,-3.5067,-3.7673,-3.9225,-4.0932,-4.2416,-4.3574,-4.3496,-4.3437,-4.3909,-4.4379,-4.6384,-4.8583,-5.1012,-5.3774,-5.5532,-5.6819,-5.8108,-5.9183,-6.0784,-6.2953,-6.4694,-6.5764,-6.6757,-6.7608,-6.8883,-7.0312,-7.1605,-7.3018,-7.4073,-7.5287,-7.6256,-7.7476,-7.8705,-7.9691,-8.0732,-8.1696,-8.2728,-8.3801,-8.4785,-8.5552,-8.6103,-8.6291,-8.6517,-8.6704,-8.6826,-8.6982,-8.7113,-8.7242,-8.726,-1.6978,-1.6978,-1.6965,-1.6944,-1.6937,-1.6809,-1.6741,-1.6727,-1.6714,-1.6714,-1.6673,-1.6564,-1.6429,-1.6515,-1.6286,-1.6225,-1.6144,-1.6117,-1.6117,-1.6083,-1.6083,-1.6083,-1.6083,-1.6083,-1.6083,-1.6083,-1.6083,-1.6083,-1.6864,-1.8616,-2.0175,-2.0363,-2.5238,-2.8164,-2.856,-3.07,-3.1664,-3.1677,-3.1677,-3.1677,-3.1677,-3.1677,-3.1677,-3.1677,-3.1677,-3.1677,-3.1677,-3.1677,-3.1677,-3.1677,-3.1597,-3.1463,-3.1049,-3.0742,-3.0461,-3.0274,-3.0087,-2.9993,-2.9927,-2.9913,-2.9913,-2.9913,-3.0093,-3.16,-3.2939,-3.3861,-3.6296,-3.8711,-4.0396,-4.147,-4.2751,-4.3125,-4.3047,-4.3332,-4.3798,-4.5041,-4.7026,-4.9585,-5.267,-5.5016,-5.6555,-5.7824,-5.9574,-6.0648,-6.2396,-6.4438,-6.5639,-6.66,-6.7759,-6.8531,-6.9631,-7.1091,-7.2282,-7.3566,-7.4899,-7.6046,-7.6858,-7.8126,-7.9423,-8.0623,-8.1495,-8.2571,-8.3735,-8.456,-8.528,-8.5854,-8.6363,-8.6524,-8.6684,-8.6894,-8.7054,-8.7079,-8.718,-8.7264,-8.7213,-1.6978,-1.6965,-1.6856,-1.6809,-1.6795,-1.652,-1.6646,-1.6571,-1.6497,-1.6449,-1.6408,-1.6368,-1.6286,-1.6171,-1.6157,-1.6117,-1.6096,-1.6083,-1.6083,-1.6083,-1.6083,-1.6083,-1.6083,-1.6083,-1.6083,-1.6083,-1.6083,-1.6083,-1.6665,-1.8418,-2.0166,-2.0559,-2.4851,-2.7395,-2.7972,-3.0306,-3.1677,-3.1677,-3.1677,-3.1677,-3.1677,-3.1677,-3.1677,-3.1677,-3.1677,-3.1677,-3.1677,-3.1677,-3.1677,-3.1664,-3.1436,-3.1076,-3.0595,-3.0434,-3.0247,-3.006,-2.9967,-2.9927,-2.9913,-2.99,-3.0066,-3.0588,-3.1423,-3.3535,-3.4894,-3.554,-3.7058,-3.9413,-4.1118,-4.1991,-4.2689,-4.2553,-4.2739,-4.336,-4.3977,-4.5806,-4.7641,-5.1048,-5.4353,-5.5797,-5.72,-5.8903,-6.0675,-6.2396,-6.4281,-6.5513,-6.6322,-6.7305,-6.8649,-6.9662,-7.0424,-7.1745,-7.2704,-7.4073,-7.5479,-7.6747,-7.7736,-7.8751,-8.0035,-8.1186,-8.2301,-8.3393,-8.4475,-8.4915,-8.5514,-8.6111,-8.6478,-8.666,-8.6824,-8.7071,-8.7096,-8.7075,-8.7019,-8.7032,-8.6961,-1.6937,-1.6863,-1.6714,-1.6653,-1.6632,-1.6366,-1.6497,-1.6415,-1.63,-1.6232,-1.6212,-1.6205,-1.6157,-1.6083,-1.6083,-1.6083,-1.6083,-1.6083,-1.6083,-1.6083,-1.6083,-1.6083,-1.6083,-1.6083,-1.6083,-1.6083,-1.6083,-1.6275,-1.6474,-1.7253,-1.8616,-2.0371,-2.4269,-2.6806,-2.778,-3.0115,-3.1677,-3.1677,-3.1677,-3.1677,-3.1677,-3.1677,-3.1677,-3.1677,-3.1677,-3.1677,-3.1677,-3.1677,-3.1677,-3.153,-3.1276,-3.0875,-3.0474,-3.0234,-3.0087,-2.998,-2.9927,-2.9913,-2.9913,-3.0066,-3.0369,-3.1352,-3.2134,-3.3843,-3.6963,-3.7738,-3.8742,-4.0763,-4.1599,-4.2495,-4.2378,-4.2402,-4.312,-4.3807,-4.4608,-4.598,-4.9028,-5.2569,-5.4571,-5.5566,-5.7203,-5.9322,-6.1056,-6.2821,-6.4694,-6.6168,-6.6999,-6.7759,-6.9085,-7.0759,-7.1497,-7.2567,-7.3737,-7.4896,-7.6348,-7.7598,-7.8577,-7.9655,-8.0659,-8.2216,-8.3554,-8.4391,-8.5162,-8.5552,-8.589,-8.6261,-8.6607,-8.677,-8.702,-8.7287,-8.7212,-8.7078,-8.6973,-8.6752,-8.6485,-1.6836,-1.6707,-1.6558,-1.6497,-1.6476,-1.6381,-1.632,-1.6266,-1.6144,-1.609,-1.6096,-1.6096,-1.6083,-1.6083,-1.6083,-1.6083,-1.6083,-1.6083,-1.6083,-1.6083,-1.6083,-1.6083,-1.6083,-1.6083,-1.6083,-1.6083,-1.6083,-1.6083,-1.6275,-1.7253,-1.8813,-2.0371,-2.2906,-2.5636,-2.7972,-3.0115,-3.1677,-3.1677,-3.1677,-3.1677,-3.1677,-3.1677,-3.1677,-3.1677,-3.1677,-3.1677,-3.1677,-3.1677,-3.1677,-3.1383,-3.1049,-3.0621,-3.0327,-3.0074,-3.0007,-2.9913,-2.9913,-2.9913,-3.0079,-3.0355,-3.1254,-3.2135,-3.2887,-3.4886,-3.8118,-3.9685,-4.0515,-4.1124,-4.1946,-4.2266,-4.2148,-4.2309,-4.317,-4.4552,-4.551,-4.6959,-5.0584,-5.3689,-5.4633,-5.5526,-5.7588,-5.977,-6.1461,-6.3215,-6.4978,-6.6446,-6.7548,-6.8325,-6.9432,-7.1278,-7.2599,-7.3704,-7.5026,-7.6163,-7.716,-7.8161,-7.9143,-8.0258,-8.1391,-8.3209,-8.4658,-8.5162,-8.559,-8.5961,-8.6324,-8.655,-8.6722,-8.6878,-8.7176,-8.7343,-8.7074,-8.6824,-8.6675,-8.6415,-8.5895,-1.6598,-1.6134,-1.6205,-1.6347,-1.6334,-1.6205,-1.613,-1.6123,-1.6103,-1.6083,-1.6083,-1.6083,-1.6083,-1.6083,-1.6083,-1.6083,-1.6083,-1.6083,-1.6083,-1.6083,-1.6083,-1.6083,-1.6083,-1.6083,-1.6083,-1.6083,-1.6083,-1.6083,-1.7062,-1.8426,-1.9593,-2.0755,-2.5238,-2.7191,-2.7972,-3.0115,-3.1677,-3.1677,-3.1677,-3.1677,-3.1677,-3.1677,-3.1677,-3.1677,-3.1677,-3.1677,-3.1677,-3.1677,-3.153,-3.1223,-3.0795,-3.0381,-3.0127,-2.998,-2.9927,-2.9913,-2.9913,-2.9873,-3.0012,-3.1091,-3.228,-3.3097,-3.4296,-3.7022,-3.9266,-4.0424,-4.1005,-4.1148,-4.1641,-4.1699,-4.1621,-4.1817,-4.2551,-4.5191,-4.6854,-4.9427,-5.2607,-5.396,-5.4838,-5.6611,-5.8732,-6.0348,-6.173,-6.3765,-6.6044,-6.7335,-6.8087,-6.8969,-7.0424,-7.2036,-7.3566,-7.4929,-7.6139,-7.6712,-7.7336,-7.8494,-7.9536,-8.0766,-8.2076,-8.3777,-8.4957,-8.5589,-8.5992,-8.6252,-8.6434,-8.6653,-8.6809,-8.695,-8.6992,-8.7082,-8.6785,-8.6555,-8.6338,-8.6007,-8.5435]}]]